<?xml version="1.0" encoding="UTF-8" standalone="no" ?>
<gpx xmlns="http://www.topografix.com/GPX/1/1" xmlns:xsi="http://www.w3.org/2001/XMLSchema-instance" xsi:schemaLocation="http://www.topografix.com/GPX/1/1 http://www.topografix.com/GPX/1/1/gpx.xsd" version="1.1" creator="VisuGPX - https://www.visugpx.com">
  <metadata>
    <name>Pic St Michel</name>
    <desc><![CDATA[A développerA développerA développerA développerA développerA développerA développerA développerA développer]]></desc>
  </metadata>
  <trk>
    <name><![CDATA[Pic St Michel 09 02 2014]]></name>
    <trkseg>
      <trkpt lat="45.1071" lon="5.6038">
        <ele>1297</ele>
        <time>2014-02-09T07:18:19Z</time>
      </trkpt>
      <trkpt lat="45.1071" lon="5.6038">
        <ele>1297</ele>
        <time>2014-02-09T07:18:20Z</time>
      </trkpt>
      <trkpt lat="45.1071" lon="5.60379">
        <ele>1297</ele>
        <time>2014-02-09T07:18:22Z</time>
      </trkpt>
      <trkpt lat="45.10704" lon="5.60376">
        <ele>1298</ele>
        <time>2014-02-09T07:18:31Z</time>
      </trkpt>
      <trkpt lat="45.10696" lon="5.60375">
        <ele>1299</ele>
        <time>2014-02-09T07:18:37Z</time>
      </trkpt>
      <trkpt lat="45.10694" lon="5.60373">
        <ele>1299.599975586</ele>
        <time>2014-02-09T07:18:38Z</time>
      </trkpt>
      <trkpt lat="45.10694" lon="5.60374">
        <ele>1299.400024414</ele>
        <time>2014-02-09T07:18:39Z</time>
      </trkpt>
      <trkpt lat="45.10691" lon="5.60372">
        <ele>1300</ele>
        <time>2014-02-09T07:18:41Z</time>
      </trkpt>
      <trkpt lat="45.1069" lon="5.60374">
        <ele>1299.800048828</ele>
        <time>2014-02-09T07:18:42Z</time>
      </trkpt>
      <trkpt lat="45.10685" lon="5.60373">
        <ele>1300.599975586</ele>
        <time>2014-02-09T07:18:46Z</time>
      </trkpt>
      <trkpt lat="45.10683" lon="5.60371">
        <ele>1301.199951172</ele>
        <time>2014-02-09T07:18:48Z</time>
      </trkpt>
      <trkpt lat="45.10679" lon="5.60369">
        <ele>1301.800048828</ele>
        <time>2014-02-09T07:18:51Z</time>
      </trkpt>
      <trkpt lat="45.10675" lon="5.60369">
        <ele>1302.199951172</ele>
        <time>2014-02-09T07:18:53Z</time>
      </trkpt>
      <trkpt lat="45.10671" lon="5.60368">
        <ele>1302.800048828</ele>
        <time>2014-02-09T07:18:56Z</time>
      </trkpt>
      <trkpt lat="45.1067" lon="5.60368">
        <ele>1303</ele>
        <time>2014-02-09T07:18:57Z</time>
      </trkpt>
      <trkpt lat="45.10664" lon="5.60367">
        <ele>1303.599975586</ele>
        <time>2014-02-09T07:19:01Z</time>
      </trkpt>
      <trkpt lat="45.10663" lon="5.60367">
        <ele>1303.800048828</ele>
        <time>2014-02-09T07:19:02Z</time>
      </trkpt>
      <trkpt lat="45.10657" lon="5.60368">
        <ele>1303.800048828</ele>
        <time>2014-02-09T07:19:07Z</time>
      </trkpt>
      <trkpt lat="45.10651" lon="5.60369">
        <ele>1304.199951172</ele>
        <time>2014-02-09T07:19:12Z</time>
      </trkpt>
      <trkpt lat="45.10647" lon="5.6037">
        <ele>1304.199951172</ele>
        <time>2014-02-09T07:19:16Z</time>
      </trkpt>
      <trkpt lat="45.10644" lon="5.60371">
        <ele>1304.199951172</ele>
        <time>2014-02-09T07:19:19Z</time>
      </trkpt>
      <trkpt lat="45.10643" lon="5.60371">
        <ele>1304.199951172</ele>
        <time>2014-02-09T07:19:20Z</time>
      </trkpt>
      <trkpt lat="45.10636" lon="5.60371">
        <ele>1304.800048828</ele>
        <time>2014-02-09T07:19:26Z</time>
      </trkpt>
      <trkpt lat="45.10634" lon="5.6037">
        <ele>1305</ele>
        <time>2014-02-09T07:19:28Z</time>
      </trkpt>
      <trkpt lat="45.1063" lon="5.60371">
        <ele>1305.199951172</ele>
        <time>2014-02-09T07:19:32Z</time>
      </trkpt>
      <trkpt lat="45.10626" lon="5.6037">
        <ele>1305.400024414</ele>
        <time>2014-02-09T07:19:35Z</time>
      </trkpt>
      <trkpt lat="45.10618" lon="5.60369">
        <ele>1306.199951172</ele>
        <time>2014-02-09T07:19:41Z</time>
      </trkpt>
      <trkpt lat="45.10607" lon="5.60369">
        <ele>1306.800048828</ele>
        <time>2014-02-09T07:19:50Z</time>
      </trkpt>
      <trkpt lat="45.10599" lon="5.60369">
        <ele>1307.599975586</ele>
        <time>2014-02-09T07:19:57Z</time>
      </trkpt>
      <trkpt lat="45.10591" lon="5.60366">
        <ele>1308.400024414</ele>
        <time>2014-02-09T07:20:04Z</time>
      </trkpt>
      <trkpt lat="45.10589" lon="5.60366">
        <ele>1308.599975586</ele>
        <time>2014-02-09T07:20:05Z</time>
      </trkpt>
      <trkpt lat="45.10582" lon="5.60365">
        <ele>1309.199951172</ele>
        <time>2014-02-09T07:20:11Z</time>
      </trkpt>
      <trkpt lat="45.10576" lon="5.60362">
        <ele>1310.199951172</ele>
        <time>2014-02-09T07:20:17Z</time>
      </trkpt>
      <trkpt lat="45.10569" lon="5.60361">
        <ele>1310.800048828</ele>
        <time>2014-02-09T07:20:23Z</time>
      </trkpt>
      <trkpt lat="45.10562" lon="5.6036">
        <ele>1311.599975586</ele>
        <time>2014-02-09T07:20:29Z</time>
      </trkpt>
      <trkpt lat="45.10553" lon="5.60359">
        <ele>1312.599975586</ele>
        <time>2014-02-09T07:20:36Z</time>
      </trkpt>
      <trkpt lat="45.10545" lon="5.60358">
        <ele>1313.400024414</ele>
        <time>2014-02-09T07:20:42Z</time>
      </trkpt>
      <trkpt lat="45.10538" lon="5.60357">
        <ele>1314</ele>
        <time>2014-02-09T07:20:47Z</time>
      </trkpt>
      <trkpt lat="45.10533" lon="5.60356">
        <ele>1314.400024414</ele>
        <time>2014-02-09T07:20:51Z</time>
      </trkpt>
      <trkpt lat="45.10528" lon="5.60357">
        <ele>1314.800048828</ele>
        <time>2014-02-09T07:20:56Z</time>
      </trkpt>
      <trkpt lat="45.1052" lon="5.60357">
        <ele>1315.400024414</ele>
        <time>2014-02-09T07:21:02Z</time>
      </trkpt>
      <trkpt lat="45.10518" lon="5.60357">
        <ele>1315.599975586</ele>
        <time>2014-02-09T07:21:04Z</time>
      </trkpt>
      <trkpt lat="45.10513" lon="5.60355">
        <ele>1316.199951172</ele>
        <time>2014-02-09T07:21:08Z</time>
      </trkpt>
      <trkpt lat="45.10511" lon="5.60354">
        <ele>1316.400024414</ele>
        <time>2014-02-09T07:21:10Z</time>
      </trkpt>
      <trkpt lat="45.10508" lon="5.60352">
        <ele>1316.800048828</ele>
        <time>2014-02-09T07:21:13Z</time>
      </trkpt>
      <trkpt lat="45.10504" lon="5.60349">
        <ele>1317.400024414</ele>
        <time>2014-02-09T07:21:16Z</time>
      </trkpt>
      <trkpt lat="45.10497" lon="5.60349">
        <ele>1318</ele>
        <time>2014-02-09T07:21:21Z</time>
      </trkpt>
      <trkpt lat="45.10492" lon="5.60349">
        <ele>1318.400024414</ele>
        <time>2014-02-09T07:21:26Z</time>
      </trkpt>
      <trkpt lat="45.10485" lon="5.60349">
        <ele>1318.800048828</ele>
        <time>2014-02-09T07:21:32Z</time>
      </trkpt>
      <trkpt lat="45.10482" lon="5.60349">
        <ele>1319.199951172</ele>
        <time>2014-02-09T07:21:35Z</time>
      </trkpt>
      <trkpt lat="45.10478" lon="5.60349">
        <ele>1319.400024414</ele>
        <time>2014-02-09T07:21:38Z</time>
      </trkpt>
      <trkpt lat="45.10474" lon="5.60349">
        <ele>1319.800048828</ele>
        <time>2014-02-09T07:21:41Z</time>
      </trkpt>
      <trkpt lat="45.10467" lon="5.60348">
        <ele>1320.400024414</ele>
        <time>2014-02-09T07:21:46Z</time>
      </trkpt>
      <trkpt lat="45.10461" lon="5.60349">
        <ele>1320.800048828</ele>
        <time>2014-02-09T07:21:51Z</time>
      </trkpt>
      <trkpt lat="45.10455" lon="5.60349">
        <ele>1321.400024414</ele>
        <time>2014-02-09T07:21:56Z</time>
      </trkpt>
      <trkpt lat="45.10448" lon="5.60349">
        <ele>1322</ele>
        <time>2014-02-09T07:22:01Z</time>
      </trkpt>
      <trkpt lat="45.1044" lon="5.60349">
        <ele>1322.599975586</ele>
        <time>2014-02-09T07:22:06Z</time>
      </trkpt>
      <trkpt lat="45.10429" lon="5.60346">
        <ele>1323.599975586</ele>
        <time>2014-02-09T07:22:13Z</time>
      </trkpt>
      <trkpt lat="45.1042" lon="5.60347">
        <ele>1324.199951172</ele>
        <time>2014-02-09T07:22:19Z</time>
      </trkpt>
      <trkpt lat="45.1041" lon="5.60348">
        <ele>1325.400024414</ele>
        <time>2014-02-09T07:22:24Z</time>
      </trkpt>
      <trkpt lat="45.1041" lon="5.60347">
        <ele>1325.599975586</ele>
        <time>2014-02-09T07:22:25Z</time>
      </trkpt>
      <trkpt lat="45.10403" lon="5.60345">
        <ele>1326.599975586</ele>
        <time>2014-02-09T07:22:30Z</time>
      </trkpt>
      <trkpt lat="45.10393" lon="5.60343">
        <ele>1328.199951172</ele>
        <time>2014-02-09T07:22:37Z</time>
      </trkpt>
      <trkpt lat="45.10387" lon="5.60341">
        <ele>1329</ele>
        <time>2014-02-09T07:22:42Z</time>
      </trkpt>
      <trkpt lat="45.10385" lon="5.60342">
        <ele>1329.199951172</ele>
        <time>2014-02-09T07:22:45Z</time>
      </trkpt>
      <trkpt lat="45.10383" lon="5.6034">
        <ele>1329.599975586</ele>
        <time>2014-02-09T07:22:47Z</time>
      </trkpt>
      <trkpt lat="45.10376" lon="5.60339">
        <ele>1330.400024414</ele>
        <time>2014-02-09T07:22:52Z</time>
      </trkpt>
      <trkpt lat="45.10371" lon="5.60338">
        <ele>1331.199951172</ele>
        <time>2014-02-09T07:22:57Z</time>
      </trkpt>
      <trkpt lat="45.10367" lon="5.60338">
        <ele>1331.599975586</ele>
        <time>2014-02-09T07:23:00Z</time>
      </trkpt>
      <trkpt lat="45.10364" lon="5.60335">
        <ele>1332</ele>
        <time>2014-02-09T07:23:02Z</time>
      </trkpt>
      <trkpt lat="45.10362" lon="5.60334">
        <ele>1332.400024414</ele>
        <time>2014-02-09T07:23:05Z</time>
      </trkpt>
      <trkpt lat="45.10358" lon="5.60332">
        <ele>1333.199951172</ele>
        <time>2014-02-09T07:23:08Z</time>
      </trkpt>
      <trkpt lat="45.10355" lon="5.60331">
        <ele>1334</ele>
        <time>2014-02-09T07:23:12Z</time>
      </trkpt>
      <trkpt lat="45.10355" lon="5.6033">
        <ele>1334.199951172</ele>
        <time>2014-02-09T07:23:13Z</time>
      </trkpt>
      <trkpt lat="45.10348" lon="5.60329">
        <ele>1335.400024414</ele>
        <time>2014-02-09T07:23:17Z</time>
      </trkpt>
      <trkpt lat="45.10341" lon="5.60329">
        <ele>1336.400024414</ele>
        <time>2014-02-09T07:23:23Z</time>
      </trkpt>
      <trkpt lat="45.1033" lon="5.60328">
        <ele>1338.400024414</ele>
        <time>2014-02-09T07:23:29Z</time>
      </trkpt>
      <trkpt lat="45.10324" lon="5.60328">
        <ele>1339.400024414</ele>
        <time>2014-02-09T07:23:33Z</time>
      </trkpt>
      <trkpt lat="45.10318" lon="5.60329">
        <ele>1339.800048828</ele>
        <time>2014-02-09T07:23:36Z</time>
      </trkpt>
      <trkpt lat="45.10315" lon="5.60328">
        <ele>1340.400024414</ele>
        <time>2014-02-09T07:23:38Z</time>
      </trkpt>
      <trkpt lat="45.10308" lon="5.60327">
        <ele>1341.599975586</ele>
        <time>2014-02-09T07:23:43Z</time>
      </trkpt>
      <trkpt lat="45.10306" lon="5.60327">
        <ele>1342</ele>
        <time>2014-02-09T07:23:44Z</time>
      </trkpt>
      <trkpt lat="45.10304" lon="5.60327">
        <ele>1342.599975586</ele>
        <time>2014-02-09T07:23:46Z</time>
      </trkpt>
      <trkpt lat="45.10301" lon="5.60326">
        <ele>1343</ele>
        <time>2014-02-09T07:23:48Z</time>
      </trkpt>
      <trkpt lat="45.10296" lon="5.60325">
        <ele>1344.199951172</ele>
        <time>2014-02-09T07:23:52Z</time>
      </trkpt>
      <trkpt lat="45.10289" lon="5.60326">
        <ele>1344.599975586</ele>
        <time>2014-02-09T07:23:57Z</time>
      </trkpt>
      <trkpt lat="45.10285" lon="5.60327">
        <ele>1345.199951172</ele>
        <time>2014-02-09T07:24:01Z</time>
      </trkpt>
      <trkpt lat="45.10277" lon="5.60324">
        <ele>1347.199951172</ele>
        <time>2014-02-09T07:24:06Z</time>
      </trkpt>
      <trkpt lat="45.10276" lon="5.60324">
        <ele>1347.199951172</ele>
        <time>2014-02-09T07:24:07Z</time>
      </trkpt>
      <trkpt lat="45.10273" lon="5.60323">
        <ele>1347.800048828</ele>
        <time>2014-02-09T07:24:09Z</time>
      </trkpt>
      <trkpt lat="45.10271" lon="5.60323">
        <ele>1348</ele>
        <time>2014-02-09T07:24:10Z</time>
      </trkpt>
      <trkpt lat="45.10267" lon="5.60325">
        <ele>1348.199951172</ele>
        <time>2014-02-09T07:24:14Z</time>
      </trkpt>
      <trkpt lat="45.10262" lon="5.60327">
        <ele>1348.400024414</ele>
        <time>2014-02-09T07:24:19Z</time>
      </trkpt>
      <trkpt lat="45.10257" lon="5.60324">
        <ele>1349.800048828</ele>
        <time>2014-02-09T07:24:23Z</time>
      </trkpt>
      <trkpt lat="45.10252" lon="5.60325">
        <ele>1350.400024414</ele>
        <time>2014-02-09T07:24:28Z</time>
      </trkpt>
      <trkpt lat="45.10251" lon="5.60326">
        <ele>1350.400024414</ele>
        <time>2014-02-09T07:24:29Z</time>
      </trkpt>
      <trkpt lat="45.10248" lon="5.60323">
        <ele>1351.199951172</ele>
        <time>2014-02-09T07:24:32Z</time>
      </trkpt>
      <trkpt lat="45.10246" lon="5.60321">
        <ele>1351.599975586</ele>
        <time>2014-02-09T07:24:33Z</time>
      </trkpt>
      <trkpt lat="45.10241" lon="5.60322">
        <ele>1351.599975586</ele>
        <time>2014-02-09T07:24:38Z</time>
      </trkpt>
      <trkpt lat="45.1024" lon="5.60322">
        <ele>1351.599975586</ele>
        <time>2014-02-09T07:24:39Z</time>
      </trkpt>
      <trkpt lat="45.10235" lon="5.6032">
        <ele>1352.400024414</ele>
        <time>2014-02-09T07:24:44Z</time>
      </trkpt>
      <trkpt lat="45.10234" lon="5.60319">
        <ele>1352.599975586</ele>
        <time>2014-02-09T07:24:46Z</time>
      </trkpt>
      <trkpt lat="45.10233" lon="5.60318">
        <ele>1352.800048828</ele>
        <time>2014-02-09T07:24:47Z</time>
      </trkpt>
      <trkpt lat="45.10228" lon="5.60317">
        <ele>1353.199951172</ele>
        <time>2014-02-09T07:24:51Z</time>
      </trkpt>
      <trkpt lat="45.10225" lon="5.60316">
        <ele>1353.400024414</ele>
        <time>2014-02-09T07:24:54Z</time>
      </trkpt>
      <trkpt lat="45.10223" lon="5.60317">
        <ele>1353.400024414</ele>
        <time>2014-02-09T07:24:55Z</time>
      </trkpt>
      <trkpt lat="45.10219" lon="5.60315">
        <ele>1354</ele>
        <time>2014-02-09T07:24:58Z</time>
      </trkpt>
      <trkpt lat="45.10216" lon="5.60314">
        <ele>1354.199951172</ele>
        <time>2014-02-09T07:25:00Z</time>
      </trkpt>
      <trkpt lat="45.10212" lon="5.60311">
        <ele>1355</ele>
        <time>2014-02-09T07:25:03Z</time>
      </trkpt>
      <trkpt lat="45.1021" lon="5.6031">
        <ele>1355.400024414</ele>
        <time>2014-02-09T07:25:06Z</time>
      </trkpt>
      <trkpt lat="45.10208" lon="5.60309">
        <ele>1355.599975586</ele>
        <time>2014-02-09T07:25:08Z</time>
      </trkpt>
      <trkpt lat="45.10206" lon="5.60309">
        <ele>1355.800048828</ele>
        <time>2014-02-09T07:25:11Z</time>
      </trkpt>
      <trkpt lat="45.10202" lon="5.6031">
        <ele>1355.599975586</ele>
        <time>2014-02-09T07:25:16Z</time>
      </trkpt>
      <trkpt lat="45.10199" lon="5.60309">
        <ele>1355.800048828</ele>
        <time>2014-02-09T07:25:18Z</time>
      </trkpt>
      <trkpt lat="45.10197" lon="5.6031">
        <ele>1356</ele>
        <time>2014-02-09T07:25:20Z</time>
      </trkpt>
      <trkpt lat="45.10195" lon="5.60309">
        <ele>1356</ele>
        <time>2014-02-09T07:25:22Z</time>
      </trkpt>
      <trkpt lat="45.10195" lon="5.60309">
        <ele>1356.199951172</ele>
        <time>2014-02-09T07:25:23Z</time>
      </trkpt>
      <trkpt lat="45.10191" lon="5.60311">
        <ele>1356</ele>
        <time>2014-02-09T07:25:28Z</time>
      </trkpt>
      <trkpt lat="45.10186" lon="5.60311">
        <ele>1356</ele>
        <time>2014-02-09T07:25:33Z</time>
      </trkpt>
      <trkpt lat="45.10185" lon="5.60312">
        <ele>1356</ele>
        <time>2014-02-09T07:25:36Z</time>
      </trkpt>
      <trkpt lat="45.10182" lon="5.6031">
        <ele>1356.400024414</ele>
        <time>2014-02-09T07:25:39Z</time>
      </trkpt>
      <trkpt lat="45.1018" lon="5.60311">
        <ele>1356.400024414</ele>
        <time>2014-02-09T07:25:40Z</time>
      </trkpt>
      <trkpt lat="45.10175" lon="5.6031">
        <ele>1356.800048828</ele>
        <time>2014-02-09T07:25:45Z</time>
      </trkpt>
      <trkpt lat="45.10175" lon="5.60311">
        <ele>1356.599975586</ele>
        <time>2014-02-09T07:25:46Z</time>
      </trkpt>
      <trkpt lat="45.10171" lon="5.60313">
        <ele>1356.199951172</ele>
        <time>2014-02-09T07:25:50Z</time>
      </trkpt>
      <trkpt lat="45.10167" lon="5.60313">
        <ele>1356.400024414</ele>
        <time>2014-02-09T07:25:55Z</time>
      </trkpt>
      <trkpt lat="45.10163" lon="5.60313">
        <ele>1356.599975586</ele>
        <time>2014-02-09T07:25:58Z</time>
      </trkpt>
      <trkpt lat="45.10162" lon="5.60313">
        <ele>1356.599975586</ele>
        <time>2014-02-09T07:26:00Z</time>
      </trkpt>
      <trkpt lat="45.10157" lon="5.60312">
        <ele>1357</ele>
        <time>2014-02-09T07:26:04Z</time>
      </trkpt>
      <trkpt lat="45.10157" lon="5.60312">
        <ele>1357</ele>
        <time>2014-02-09T07:26:05Z</time>
      </trkpt>
      <trkpt lat="45.10156" lon="5.60312">
        <ele>1356.800048828</ele>
        <time>2014-02-09T07:26:06Z</time>
      </trkpt>
      <trkpt lat="45.10152" lon="5.60312">
        <ele>1357</ele>
        <time>2014-02-09T07:26:10Z</time>
      </trkpt>
      <trkpt lat="45.10146" lon="5.60312">
        <ele>1357.400024414</ele>
        <time>2014-02-09T07:26:16Z</time>
      </trkpt>
      <trkpt lat="45.10146" lon="5.60312">
        <ele>1357.199951172</ele>
        <time>2014-02-09T07:26:17Z</time>
      </trkpt>
      <trkpt lat="45.10143" lon="5.60312">
        <ele>1357.400024414</ele>
        <time>2014-02-09T07:26:19Z</time>
      </trkpt>
      <trkpt lat="45.10138" lon="5.60312">
        <ele>1357.599975586</ele>
        <time>2014-02-09T07:26:25Z</time>
      </trkpt>
      <trkpt lat="45.10134" lon="5.60312">
        <ele>1357.800048828</ele>
        <time>2014-02-09T07:26:30Z</time>
      </trkpt>
      <trkpt lat="45.10129" lon="5.60313">
        <ele>1357.800048828</ele>
        <time>2014-02-09T07:26:35Z</time>
      </trkpt>
      <trkpt lat="45.10126" lon="5.60313">
        <ele>1358</ele>
        <time>2014-02-09T07:26:37Z</time>
      </trkpt>
      <trkpt lat="45.10125" lon="5.60313">
        <ele>1357.800048828</ele>
        <time>2014-02-09T07:26:38Z</time>
      </trkpt>
      <trkpt lat="45.10123" lon="5.60313">
        <ele>1358</ele>
        <time>2014-02-09T07:26:40Z</time>
      </trkpt>
      <trkpt lat="45.10116" lon="5.60313">
        <ele>1358.199951172</ele>
        <time>2014-02-09T07:26:45Z</time>
      </trkpt>
      <trkpt lat="45.10113" lon="5.60313">
        <ele>1358.400024414</ele>
        <time>2014-02-09T07:26:47Z</time>
      </trkpt>
      <trkpt lat="45.1011" lon="5.60312">
        <ele>1358.599975586</ele>
        <time>2014-02-09T07:26:50Z</time>
      </trkpt>
      <trkpt lat="45.10105" lon="5.60312">
        <ele>1358.800048828</ele>
        <time>2014-02-09T07:26:54Z</time>
      </trkpt>
      <trkpt lat="45.10103" lon="5.60311">
        <ele>1359</ele>
        <time>2014-02-09T07:26:56Z</time>
      </trkpt>
      <trkpt lat="45.10096" lon="5.60311">
        <ele>1359.199951172</ele>
        <time>2014-02-09T07:27:01Z</time>
      </trkpt>
      <trkpt lat="45.10091" lon="5.6031">
        <ele>1359.599975586</ele>
        <time>2014-02-09T07:27:05Z</time>
      </trkpt>
      <trkpt lat="45.10087" lon="5.60311">
        <ele>1359.599975586</ele>
        <time>2014-02-09T07:27:08Z</time>
      </trkpt>
      <trkpt lat="45.10081" lon="5.60309">
        <ele>1360.199951172</ele>
        <time>2014-02-09T07:27:13Z</time>
      </trkpt>
      <trkpt lat="45.10079" lon="5.6031">
        <ele>1360.599975586</ele>
        <time>2014-02-09T07:27:15Z</time>
      </trkpt>
      <trkpt lat="45.10076" lon="5.60309">
        <ele>1361.199951172</ele>
        <time>2014-02-09T07:27:17Z</time>
      </trkpt>
      <trkpt lat="45.10073" lon="5.60308">
        <ele>1362</ele>
        <time>2014-02-09T07:27:20Z</time>
      </trkpt>
      <trkpt lat="45.1007" lon="5.60308">
        <ele>1362.599975586</ele>
        <time>2014-02-09T07:27:22Z</time>
      </trkpt>
      <trkpt lat="45.10064" lon="5.60306">
        <ele>1364</ele>
        <time>2014-02-09T07:27:27Z</time>
      </trkpt>
      <trkpt lat="45.10059" lon="5.60305">
        <ele>1365</ele>
        <time>2014-02-09T07:27:31Z</time>
      </trkpt>
      <trkpt lat="45.10057" lon="5.60304">
        <ele>1365.400024414</ele>
        <time>2014-02-09T07:27:33Z</time>
      </trkpt>
      <trkpt lat="45.10054" lon="5.60304">
        <ele>1366</ele>
        <time>2014-02-09T07:27:35Z</time>
      </trkpt>
      <trkpt lat="45.10045" lon="5.60304">
        <ele>1367.599975586</ele>
        <time>2014-02-09T07:27:41Z</time>
      </trkpt>
      <trkpt lat="45.1004" lon="5.60305">
        <ele>1368.599975586</ele>
        <time>2014-02-09T07:27:45Z</time>
      </trkpt>
      <trkpt lat="45.10035" lon="5.60304">
        <ele>1369.599975586</ele>
        <time>2014-02-09T07:27:49Z</time>
      </trkpt>
      <trkpt lat="45.10034" lon="5.60304">
        <ele>1369.800048828</ele>
        <time>2014-02-09T07:27:50Z</time>
      </trkpt>
      <trkpt lat="45.10029" lon="5.60305">
        <ele>1370.800048828</ele>
        <time>2014-02-09T07:27:54Z</time>
      </trkpt>
      <trkpt lat="45.10024" lon="5.60304">
        <ele>1371.599975586</ele>
        <time>2014-02-09T07:27:58Z</time>
      </trkpt>
      <trkpt lat="45.10021" lon="5.60304">
        <ele>1372.199951172</ele>
        <time>2014-02-09T07:28:02Z</time>
      </trkpt>
      <trkpt lat="45.10015" lon="5.60305">
        <ele>1373.199951172</ele>
        <time>2014-02-09T07:28:07Z</time>
      </trkpt>
      <trkpt lat="45.10012" lon="5.60304">
        <ele>1374</ele>
        <time>2014-02-09T07:28:09Z</time>
      </trkpt>
      <trkpt lat="45.10009" lon="5.60304">
        <ele>1374.400024414</ele>
        <time>2014-02-09T07:28:11Z</time>
      </trkpt>
      <trkpt lat="45.10006" lon="5.60303">
        <ele>1375.400024414</ele>
        <time>2014-02-09T07:28:15Z</time>
      </trkpt>
      <trkpt lat="45.10005" lon="5.60304">
        <ele>1375.199951172</ele>
        <time>2014-02-09T07:28:16Z</time>
      </trkpt>
      <trkpt lat="45.10002" lon="5.60303">
        <ele>1376</ele>
        <time>2014-02-09T07:28:19Z</time>
      </trkpt>
      <trkpt lat="45.1" lon="5.60303">
        <ele>1376.400024414</ele>
        <time>2014-02-09T07:28:20Z</time>
      </trkpt>
      <trkpt lat="45.09993" lon="5.60303">
        <ele>1377.199951172</ele>
        <time>2014-02-09T07:28:25Z</time>
      </trkpt>
      <trkpt lat="45.09987" lon="5.60302">
        <ele>1378</ele>
        <time>2014-02-09T07:28:31Z</time>
      </trkpt>
      <trkpt lat="45.09979" lon="5.60301">
        <ele>1378.800048828</ele>
        <time>2014-02-09T07:28:38Z</time>
      </trkpt>
      <trkpt lat="45.09974" lon="5.60301">
        <ele>1379.599975586</ele>
        <time>2014-02-09T07:28:43Z</time>
      </trkpt>
      <trkpt lat="45.09968" lon="5.603">
        <ele>1380.199951172</ele>
        <time>2014-02-09T07:28:49Z</time>
      </trkpt>
      <trkpt lat="45.09963" lon="5.603">
        <ele>1380.800048828</ele>
        <time>2014-02-09T07:28:54Z</time>
      </trkpt>
      <trkpt lat="45.09961" lon="5.60299">
        <ele>1381</ele>
        <time>2014-02-09T07:28:55Z</time>
      </trkpt>
      <trkpt lat="45.09958" lon="5.603">
        <ele>1381.400024414</ele>
        <time>2014-02-09T07:28:58Z</time>
      </trkpt>
      <trkpt lat="45.09951" lon="5.60299">
        <ele>1382.199951172</ele>
        <time>2014-02-09T07:29:04Z</time>
      </trkpt>
      <trkpt lat="45.09945" lon="5.60298">
        <ele>1383</ele>
        <time>2014-02-09T07:29:09Z</time>
      </trkpt>
      <trkpt lat="45.09936" lon="5.60297">
        <ele>1384</ele>
        <time>2014-02-09T07:29:16Z</time>
      </trkpt>
      <trkpt lat="45.09928" lon="5.60296">
        <ele>1385</ele>
        <time>2014-02-09T07:29:23Z</time>
      </trkpt>
      <trkpt lat="45.09922" lon="5.60295">
        <ele>1385.599975586</ele>
        <time>2014-02-09T07:29:28Z</time>
      </trkpt>
      <trkpt lat="45.09915" lon="5.60293">
        <ele>1386.599975586</ele>
        <time>2014-02-09T07:29:34Z</time>
      </trkpt>
      <trkpt lat="45.0991" lon="5.60292">
        <ele>1387.400024414</ele>
        <time>2014-02-09T07:29:39Z</time>
      </trkpt>
      <trkpt lat="45.09909" lon="5.60291">
        <ele>1387.599975586</ele>
        <time>2014-02-09T07:29:40Z</time>
      </trkpt>
      <trkpt lat="45.09906" lon="5.60291">
        <ele>1388.199951172</ele>
        <time>2014-02-09T07:29:43Z</time>
      </trkpt>
      <trkpt lat="45.09901" lon="5.60291">
        <ele>1388.800048828</ele>
        <time>2014-02-09T07:29:47Z</time>
      </trkpt>
      <trkpt lat="45.09896" lon="5.6029">
        <ele>1389.599975586</ele>
        <time>2014-02-09T07:29:52Z</time>
      </trkpt>
      <trkpt lat="45.09889" lon="5.60289">
        <ele>1390.599975586</ele>
        <time>2014-02-09T07:29:58Z</time>
      </trkpt>
      <trkpt lat="45.09884" lon="5.60288">
        <ele>1391.599975586</ele>
        <time>2014-02-09T07:30:03Z</time>
      </trkpt>
      <trkpt lat="45.09877" lon="5.60287">
        <ele>1392.599975586</ele>
        <time>2014-02-09T07:30:09Z</time>
      </trkpt>
      <trkpt lat="45.09868" lon="5.60286">
        <ele>1394</ele>
        <time>2014-02-09T07:30:17Z</time>
      </trkpt>
      <trkpt lat="45.09863" lon="5.60287">
        <ele>1394.599975586</ele>
        <time>2014-02-09T07:30:22Z</time>
      </trkpt>
      <trkpt lat="45.09858" lon="5.60289">
        <ele>1395.199951172</ele>
        <time>2014-02-09T07:30:27Z</time>
      </trkpt>
      <trkpt lat="45.09853" lon="5.6029">
        <ele>1396</ele>
        <time>2014-02-09T07:30:32Z</time>
      </trkpt>
      <trkpt lat="45.0985" lon="5.60292">
        <ele>1396</ele>
        <time>2014-02-09T07:30:35Z</time>
      </trkpt>
      <trkpt lat="45.09848" lon="5.60293">
        <ele>1396.199951172</ele>
        <time>2014-02-09T07:30:37Z</time>
      </trkpt>
      <trkpt lat="45.09843" lon="5.60295">
        <ele>1396.800048828</ele>
        <time>2014-02-09T07:30:42Z</time>
      </trkpt>
      <trkpt lat="45.09837" lon="5.60296">
        <ele>1397.599975586</ele>
        <time>2014-02-09T07:30:48Z</time>
      </trkpt>
      <trkpt lat="45.09831" lon="5.60296">
        <ele>1398.599975586</ele>
        <time>2014-02-09T07:30:53Z</time>
      </trkpt>
      <trkpt lat="45.0983" lon="5.60296">
        <ele>1398.800048828</ele>
        <time>2014-02-09T07:30:54Z</time>
      </trkpt>
      <trkpt lat="45.09825" lon="5.60298">
        <ele>1400</ele>
        <time>2014-02-09T07:30:59Z</time>
      </trkpt>
      <trkpt lat="45.09822" lon="5.60299">
        <ele>1400.599975586</ele>
        <time>2014-02-09T07:31:02Z</time>
      </trkpt>
      <trkpt lat="45.09821" lon="5.60299">
        <ele>1400.800048828</ele>
        <time>2014-02-09T07:31:03Z</time>
      </trkpt>
      <trkpt lat="45.09815" lon="5.603">
        <ele>1402.199951172</ele>
        <time>2014-02-09T07:31:08Z</time>
      </trkpt>
      <trkpt lat="45.09814" lon="5.603">
        <ele>1402.599975586</ele>
        <time>2014-02-09T07:31:10Z</time>
      </trkpt>
      <trkpt lat="45.0981" lon="5.60299">
        <ele>1403.599975586</ele>
        <time>2014-02-09T07:31:13Z</time>
      </trkpt>
      <trkpt lat="45.09806" lon="5.603">
        <ele>1404.400024414</ele>
        <time>2014-02-09T07:31:17Z</time>
      </trkpt>
      <trkpt lat="45.09805" lon="5.603">
        <ele>1404.800048828</ele>
        <time>2014-02-09T07:31:18Z</time>
      </trkpt>
      <trkpt lat="45.098" lon="5.603">
        <ele>1406</ele>
        <time>2014-02-09T07:31:23Z</time>
      </trkpt>
      <trkpt lat="45.09799" lon="5.603">
        <ele>1406.400024414</ele>
        <time>2014-02-09T07:31:25Z</time>
      </trkpt>
      <trkpt lat="45.09797" lon="5.603">
        <ele>1406.800048828</ele>
        <time>2014-02-09T07:31:27Z</time>
      </trkpt>
      <trkpt lat="45.09791" lon="5.60301">
        <ele>1408.400024414</ele>
        <time>2014-02-09T07:31:33Z</time>
      </trkpt>
      <trkpt lat="45.09784" lon="5.60302">
        <ele>1409.800048828</ele>
        <time>2014-02-09T07:31:39Z</time>
      </trkpt>
      <trkpt lat="45.09778" lon="5.60304">
        <ele>1411.199951172</ele>
        <time>2014-02-09T07:31:45Z</time>
      </trkpt>
      <trkpt lat="45.09771" lon="5.60305">
        <ele>1412.800048828</ele>
        <time>2014-02-09T07:31:51Z</time>
      </trkpt>
      <trkpt lat="45.09765" lon="5.60306">
        <ele>1414.199951172</ele>
        <time>2014-02-09T07:31:57Z</time>
      </trkpt>
      <trkpt lat="45.0976" lon="5.60307">
        <ele>1415.199951172</ele>
        <time>2014-02-09T07:32:02Z</time>
      </trkpt>
      <trkpt lat="45.09754" lon="5.60307">
        <ele>1416.800048828</ele>
        <time>2014-02-09T07:32:08Z</time>
      </trkpt>
      <trkpt lat="45.09748" lon="5.60308">
        <ele>1417.800048828</ele>
        <time>2014-02-09T07:32:14Z</time>
      </trkpt>
      <trkpt lat="45.09743" lon="5.60308">
        <ele>1418.199951172</ele>
        <time>2014-02-09T07:32:20Z</time>
      </trkpt>
      <trkpt lat="45.09737" lon="5.60309">
        <ele>1418.800048828</ele>
        <time>2014-02-09T07:32:26Z</time>
      </trkpt>
      <trkpt lat="45.0973" lon="5.6031">
        <ele>1419.199951172</ele>
        <time>2014-02-09T07:32:33Z</time>
      </trkpt>
      <trkpt lat="45.09724" lon="5.6031">
        <ele>1419.800048828</ele>
        <time>2014-02-09T07:32:39Z</time>
      </trkpt>
      <trkpt lat="45.09717" lon="5.6031">
        <ele>1420.400024414</ele>
        <time>2014-02-09T07:32:46Z</time>
      </trkpt>
      <trkpt lat="45.09712" lon="5.6031">
        <ele>1421</ele>
        <time>2014-02-09T07:32:51Z</time>
      </trkpt>
      <trkpt lat="45.09708" lon="5.6031">
        <ele>1421.199951172</ele>
        <time>2014-02-09T07:32:54Z</time>
      </trkpt>
      <trkpt lat="45.09706" lon="5.6031">
        <ele>1421.400024414</ele>
        <time>2014-02-09T07:32:56Z</time>
      </trkpt>
      <trkpt lat="45.09704" lon="5.6031">
        <ele>1421.800048828</ele>
        <time>2014-02-09T07:32:58Z</time>
      </trkpt>
      <trkpt lat="45.097" lon="5.60309">
        <ele>1422.199951172</ele>
        <time>2014-02-09T07:33:02Z</time>
      </trkpt>
      <trkpt lat="45.09699" lon="5.60309">
        <ele>1422.199951172</ele>
        <time>2014-02-09T07:33:03Z</time>
      </trkpt>
      <trkpt lat="45.09694" lon="5.60308">
        <ele>1422.800048828</ele>
        <time>2014-02-09T07:33:08Z</time>
      </trkpt>
      <trkpt lat="45.09688" lon="5.60308">
        <ele>1423.400024414</ele>
        <time>2014-02-09T07:33:13Z</time>
      </trkpt>
      <trkpt lat="45.09682" lon="5.60308">
        <ele>1424</ele>
        <time>2014-02-09T07:33:18Z</time>
      </trkpt>
      <trkpt lat="45.09676" lon="5.60307">
        <ele>1424.599975586</ele>
        <time>2014-02-09T07:33:23Z</time>
      </trkpt>
      <trkpt lat="45.09676" lon="5.60307">
        <ele>1424.599975586</ele>
        <time>2014-02-09T07:33:24Z</time>
      </trkpt>
      <trkpt lat="45.09672" lon="5.60307">
        <ele>1425</ele>
        <time>2014-02-09T07:33:27Z</time>
      </trkpt>
      <trkpt lat="45.09669" lon="5.60306">
        <ele>1425.400024414</ele>
        <time>2014-02-09T07:33:30Z</time>
      </trkpt>
      <trkpt lat="45.09664" lon="5.60306">
        <ele>1425.800048828</ele>
        <time>2014-02-09T07:33:35Z</time>
      </trkpt>
      <trkpt lat="45.09658" lon="5.60305">
        <ele>1426.199951172</ele>
        <time>2014-02-09T07:33:40Z</time>
      </trkpt>
      <trkpt lat="45.09653" lon="5.60304">
        <ele>1426.599975586</ele>
        <time>2014-02-09T07:33:45Z</time>
      </trkpt>
      <trkpt lat="45.09647" lon="5.60303">
        <ele>1427</ele>
        <time>2014-02-09T07:33:51Z</time>
      </trkpt>
      <trkpt lat="45.09641" lon="5.60303">
        <ele>1427.400024414</ele>
        <time>2014-02-09T07:33:56Z</time>
      </trkpt>
      <trkpt lat="45.09634" lon="5.60303">
        <ele>1427.800048828</ele>
        <time>2014-02-09T07:34:03Z</time>
      </trkpt>
      <trkpt lat="45.09628" lon="5.60302">
        <ele>1428.199951172</ele>
        <time>2014-02-09T07:34:07Z</time>
      </trkpt>
      <trkpt lat="45.09621" lon="5.603">
        <ele>1428.599975586</ele>
        <time>2014-02-09T07:34:13Z</time>
      </trkpt>
      <trkpt lat="45.09615" lon="5.60298">
        <ele>1429</ele>
        <time>2014-02-09T07:34:18Z</time>
      </trkpt>
      <trkpt lat="45.09609" lon="5.60297">
        <ele>1429.400024414</ele>
        <time>2014-02-09T07:34:23Z</time>
      </trkpt>
      <trkpt lat="45.09608" lon="5.60297">
        <ele>1429.400024414</ele>
        <time>2014-02-09T07:34:24Z</time>
      </trkpt>
      <trkpt lat="45.09606" lon="5.60297">
        <ele>1429.599975586</ele>
        <time>2014-02-09T07:34:26Z</time>
      </trkpt>
      <trkpt lat="45.09601" lon="5.60296">
        <ele>1429.800048828</ele>
        <time>2014-02-09T07:34:30Z</time>
      </trkpt>
      <trkpt lat="45.09601" lon="5.60296">
        <ele>1429.800048828</ele>
        <time>2014-02-09T07:34:31Z</time>
      </trkpt>
      <trkpt lat="45.09598" lon="5.60295">
        <ele>1430</ele>
        <time>2014-02-09T07:34:34Z</time>
      </trkpt>
      <trkpt lat="45.09596" lon="5.60295">
        <ele>1430.199951172</ele>
        <time>2014-02-09T07:34:36Z</time>
      </trkpt>
      <trkpt lat="45.0959" lon="5.60293">
        <ele>1430.599975586</ele>
        <time>2014-02-09T07:34:41Z</time>
      </trkpt>
      <trkpt lat="45.09585" lon="5.60292">
        <ele>1430.800048828</ele>
        <time>2014-02-09T07:34:45Z</time>
      </trkpt>
      <trkpt lat="45.0958" lon="5.60291">
        <ele>1431.599975586</ele>
        <time>2014-02-09T07:34:50Z</time>
      </trkpt>
      <trkpt lat="45.09572" lon="5.6029">
        <ele>1433</ele>
        <time>2014-02-09T07:34:57Z</time>
      </trkpt>
      <trkpt lat="45.09566" lon="5.6029">
        <ele>1434</ele>
        <time>2014-02-09T07:35:02Z</time>
      </trkpt>
      <trkpt lat="45.09565" lon="5.6029">
        <ele>1434</ele>
        <time>2014-02-09T07:35:03Z</time>
      </trkpt>
      <trkpt lat="45.09561" lon="5.60289">
        <ele>1434.800048828</ele>
        <time>2014-02-09T07:35:06Z</time>
      </trkpt>
      <trkpt lat="45.09556" lon="5.60288">
        <ele>1435.599975586</ele>
        <time>2014-02-09T07:35:11Z</time>
      </trkpt>
      <trkpt lat="45.09551" lon="5.60288">
        <ele>1436.400024414</ele>
        <time>2014-02-09T07:35:15Z</time>
      </trkpt>
      <trkpt lat="45.09547" lon="5.60288">
        <ele>1437</ele>
        <time>2014-02-09T07:35:19Z</time>
      </trkpt>
      <trkpt lat="45.09543" lon="5.60288">
        <ele>1437.599975586</ele>
        <time>2014-02-09T07:35:23Z</time>
      </trkpt>
      <trkpt lat="45.09538" lon="5.60286">
        <ele>1438.599975586</ele>
        <time>2014-02-09T07:35:27Z</time>
      </trkpt>
      <trkpt lat="45.09537" lon="5.60286">
        <ele>1438.599975586</ele>
        <time>2014-02-09T07:35:28Z</time>
      </trkpt>
      <trkpt lat="45.09536" lon="5.60287">
        <ele>1438.800048828</ele>
        <time>2014-02-09T07:35:29Z</time>
      </trkpt>
      <trkpt lat="45.09533" lon="5.60287">
        <ele>1439.400024414</ele>
        <time>2014-02-09T07:35:32Z</time>
      </trkpt>
      <trkpt lat="45.09532" lon="5.60286">
        <ele>1439.599975586</ele>
        <time>2014-02-09T07:35:33Z</time>
      </trkpt>
      <trkpt lat="45.09529" lon="5.60286">
        <ele>1440</ele>
        <time>2014-02-09T07:35:36Z</time>
      </trkpt>
      <trkpt lat="45.09525" lon="5.60288">
        <ele>1440.599975586</ele>
        <time>2014-02-09T07:35:40Z</time>
      </trkpt>
      <trkpt lat="45.09522" lon="5.60288">
        <ele>1441</ele>
        <time>2014-02-09T07:35:43Z</time>
      </trkpt>
      <trkpt lat="45.09519" lon="5.60288">
        <ele>1441.400024414</ele>
        <time>2014-02-09T07:35:45Z</time>
      </trkpt>
      <trkpt lat="45.09515" lon="5.60289">
        <ele>1442.199951172</ele>
        <time>2014-02-09T07:35:49Z</time>
      </trkpt>
      <trkpt lat="45.09509" lon="5.60287">
        <ele>1443.199951172</ele>
        <time>2014-02-09T07:35:55Z</time>
      </trkpt>
      <trkpt lat="45.09502" lon="5.60285">
        <ele>1444.199951172</ele>
        <time>2014-02-09T07:36:02Z</time>
      </trkpt>
      <trkpt lat="45.095" lon="5.60285">
        <ele>1444.599975586</ele>
        <time>2014-02-09T07:36:04Z</time>
      </trkpt>
      <trkpt lat="45.09497" lon="5.60285">
        <ele>1445</ele>
        <time>2014-02-09T07:36:07Z</time>
      </trkpt>
      <trkpt lat="45.09493" lon="5.60285">
        <ele>1445.599975586</ele>
        <time>2014-02-09T07:36:12Z</time>
      </trkpt>
      <trkpt lat="45.09492" lon="5.60285">
        <ele>1445.599975586</ele>
        <time>2014-02-09T07:36:13Z</time>
      </trkpt>
      <trkpt lat="45.09487" lon="5.60283">
        <ele>1446.400024414</ele>
        <time>2014-02-09T07:36:18Z</time>
      </trkpt>
      <trkpt lat="45.09483" lon="5.60283">
        <ele>1447</ele>
        <time>2014-02-09T07:36:23Z</time>
      </trkpt>
      <trkpt lat="45.09477" lon="5.60285">
        <ele>1447.800048828</ele>
        <time>2014-02-09T07:36:30Z</time>
      </trkpt>
      <trkpt lat="45.09475" lon="5.60287">
        <ele>1448.199951172</ele>
        <time>2014-02-09T07:36:34Z</time>
      </trkpt>
      <trkpt lat="45.09474" lon="5.60287">
        <ele>1448.400024414</ele>
        <time>2014-02-09T07:36:35Z</time>
      </trkpt>
      <trkpt lat="45.09468" lon="5.60289">
        <ele>1449.199951172</ele>
        <time>2014-02-09T07:36:40Z</time>
      </trkpt>
      <trkpt lat="45.09467" lon="5.60289">
        <ele>1449.400024414</ele>
        <time>2014-02-09T07:36:41Z</time>
      </trkpt>
      <trkpt lat="45.09462" lon="5.6029">
        <ele>1450.199951172</ele>
        <time>2014-02-09T07:36:46Z</time>
      </trkpt>
      <trkpt lat="45.09461" lon="5.60291">
        <ele>1450.400024414</ele>
        <time>2014-02-09T07:36:49Z</time>
      </trkpt>
      <trkpt lat="45.09459" lon="5.60292">
        <ele>1450.800048828</ele>
        <time>2014-02-09T07:36:51Z</time>
      </trkpt>
      <trkpt lat="45.09456" lon="5.60294">
        <ele>1451.199951172</ele>
        <time>2014-02-09T07:36:54Z</time>
      </trkpt>
      <trkpt lat="45.09452" lon="5.60294">
        <ele>1451.800048828</ele>
        <time>2014-02-09T07:36:58Z</time>
      </trkpt>
      <trkpt lat="45.09449" lon="5.60295">
        <ele>1452.400024414</ele>
        <time>2014-02-09T07:37:03Z</time>
      </trkpt>
      <trkpt lat="45.09448" lon="5.60297">
        <ele>1452.599975586</ele>
        <time>2014-02-09T07:37:05Z</time>
      </trkpt>
      <trkpt lat="45.09447" lon="5.60298">
        <ele>1452.800048828</ele>
        <time>2014-02-09T07:37:07Z</time>
      </trkpt>
      <trkpt lat="45.09442" lon="5.60298">
        <ele>1453.599975586</ele>
        <time>2014-02-09T07:37:11Z</time>
      </trkpt>
      <trkpt lat="45.09437" lon="5.60302">
        <ele>1454.599975586</ele>
        <time>2014-02-09T07:37:17Z</time>
      </trkpt>
      <trkpt lat="45.09432" lon="5.60306">
        <ele>1455.599975586</ele>
        <time>2014-02-09T07:37:23Z</time>
      </trkpt>
      <trkpt lat="45.09424" lon="5.60307">
        <ele>1456.800048828</ele>
        <time>2014-02-09T07:37:30Z</time>
      </trkpt>
      <trkpt lat="45.09419" lon="5.60308">
        <ele>1457.800048828</ele>
        <time>2014-02-09T07:37:36Z</time>
      </trkpt>
      <trkpt lat="45.09417" lon="5.60309">
        <ele>1458.199951172</ele>
        <time>2014-02-09T07:37:38Z</time>
      </trkpt>
      <trkpt lat="45.09415" lon="5.60311">
        <ele>1458.599975586</ele>
        <time>2014-02-09T07:37:41Z</time>
      </trkpt>
      <trkpt lat="45.09412" lon="5.60312">
        <ele>1459</ele>
        <time>2014-02-09T07:37:43Z</time>
      </trkpt>
      <trkpt lat="45.0941" lon="5.60313">
        <ele>1459.400024414</ele>
        <time>2014-02-09T07:37:46Z</time>
      </trkpt>
      <trkpt lat="45.09405" lon="5.60317">
        <ele>1460.400024414</ele>
        <time>2014-02-09T07:37:52Z</time>
      </trkpt>
      <trkpt lat="45.09403" lon="5.60319">
        <ele>1460.800048828</ele>
        <time>2014-02-09T07:37:55Z</time>
      </trkpt>
      <trkpt lat="45.09402" lon="5.60321">
        <ele>1461.199951172</ele>
        <time>2014-02-09T07:37:57Z</time>
      </trkpt>
      <trkpt lat="45.09401" lon="5.60328">
        <ele>1461.800048828</ele>
        <time>2014-02-09T07:38:01Z</time>
      </trkpt>
      <trkpt lat="45.094" lon="5.60329">
        <ele>1462</ele>
        <time>2014-02-09T07:38:02Z</time>
      </trkpt>
      <trkpt lat="45.09398" lon="5.60337">
        <ele>1463.199951172</ele>
        <time>2014-02-09T07:38:08Z</time>
      </trkpt>
      <trkpt lat="45.09398" lon="5.60342">
        <ele>1464</ele>
        <time>2014-02-09T07:38:14Z</time>
      </trkpt>
      <trkpt lat="45.09397" lon="5.60345">
        <ele>1464.599975586</ele>
        <time>2014-02-09T07:38:16Z</time>
      </trkpt>
      <trkpt lat="45.09396" lon="5.60349">
        <ele>1465.199951172</ele>
        <time>2014-02-09T07:38:19Z</time>
      </trkpt>
      <trkpt lat="45.09395" lon="5.60353">
        <ele>1466</ele>
        <time>2014-02-09T07:38:23Z</time>
      </trkpt>
      <trkpt lat="45.09394" lon="5.60356">
        <ele>1466.599975586</ele>
        <time>2014-02-09T07:38:27Z</time>
      </trkpt>
      <trkpt lat="45.09393" lon="5.6036">
        <ele>1467.400024414</ele>
        <time>2014-02-09T07:38:30Z</time>
      </trkpt>
      <trkpt lat="45.09392" lon="5.60362">
        <ele>1467.599975586</ele>
        <time>2014-02-09T07:38:31Z</time>
      </trkpt>
      <trkpt lat="45.09391" lon="5.60367">
        <ele>1468.599975586</ele>
        <time>2014-02-09T07:38:36Z</time>
      </trkpt>
      <trkpt lat="45.0939" lon="5.60368">
        <ele>1468.800048828</ele>
        <time>2014-02-09T07:38:39Z</time>
      </trkpt>
      <trkpt lat="45.0939" lon="5.6037">
        <ele>1469.199951172</ele>
        <time>2014-02-09T07:38:41Z</time>
      </trkpt>
      <trkpt lat="45.09389" lon="5.60377">
        <ele>1470.400024414</ele>
        <time>2014-02-09T07:38:47Z</time>
      </trkpt>
      <trkpt lat="45.09389" lon="5.60383">
        <ele>1471.199951172</ele>
        <time>2014-02-09T07:38:51Z</time>
      </trkpt>
      <trkpt lat="45.09389" lon="5.60385">
        <ele>1471.400024414</ele>
        <time>2014-02-09T07:38:52Z</time>
      </trkpt>
      <trkpt lat="45.09389" lon="5.60389">
        <ele>1472</ele>
        <time>2014-02-09T07:38:55Z</time>
      </trkpt>
      <trkpt lat="45.09388" lon="5.60391">
        <ele>1472.400024414</ele>
        <time>2014-02-09T07:38:58Z</time>
      </trkpt>
      <trkpt lat="45.09386" lon="5.60396">
        <ele>1473.400024414</ele>
        <time>2014-02-09T07:39:04Z</time>
      </trkpt>
      <trkpt lat="45.09385" lon="5.60401">
        <ele>1474.199951172</ele>
        <time>2014-02-09T07:39:08Z</time>
      </trkpt>
      <trkpt lat="45.09382" lon="5.60407">
        <ele>1475.400024414</ele>
        <time>2014-02-09T07:39:14Z</time>
      </trkpt>
      <trkpt lat="45.0938" lon="5.6041">
        <ele>1476</ele>
        <time>2014-02-09T07:39:18Z</time>
      </trkpt>
      <trkpt lat="45.09379" lon="5.60414">
        <ele>1476.599975586</ele>
        <time>2014-02-09T07:39:23Z</time>
      </trkpt>
      <trkpt lat="45.09378" lon="5.60413">
        <ele>1476.599975586</ele>
        <time>2014-02-09T07:39:30Z</time>
      </trkpt>
      <trkpt lat="45.09378" lon="5.60413">
        <ele>1476.599975586</ele>
        <time>2014-02-09T07:39:32Z</time>
      </trkpt>
      <trkpt lat="45.09378" lon="5.60414">
        <ele>1476.800048828</ele>
        <time>2014-02-09T07:39:34Z</time>
      </trkpt>
      <trkpt lat="45.09377" lon="5.6042">
        <ele>1478</ele>
        <time>2014-02-09T07:39:38Z</time>
      </trkpt>
      <trkpt lat="45.09377" lon="5.6042">
        <ele>1478</ele>
        <time>2014-02-09T07:39:39Z</time>
      </trkpt>
      <trkpt lat="45.09374" lon="5.60425">
        <ele>1479.400024414</ele>
        <time>2014-02-09T07:39:46Z</time>
      </trkpt>
      <trkpt lat="45.09374" lon="5.6043">
        <ele>1480.400024414</ele>
        <time>2014-02-09T07:39:54Z</time>
      </trkpt>
      <trkpt lat="45.09372" lon="5.60432">
        <ele>1481</ele>
        <time>2014-02-09T07:39:58Z</time>
      </trkpt>
      <trkpt lat="45.0937" lon="5.60436">
        <ele>1482</ele>
        <time>2014-02-09T07:40:02Z</time>
      </trkpt>
      <trkpt lat="45.0937" lon="5.60444">
        <ele>1483.800048828</ele>
        <time>2014-02-09T07:40:09Z</time>
      </trkpt>
      <trkpt lat="45.0937" lon="5.60446">
        <ele>1484.400024414</ele>
        <time>2014-02-09T07:40:13Z</time>
      </trkpt>
      <trkpt lat="45.09368" lon="5.60452">
        <ele>1485.800048828</ele>
        <time>2014-02-09T07:40:18Z</time>
      </trkpt>
      <trkpt lat="45.09367" lon="5.60458">
        <ele>1487.199951172</ele>
        <time>2014-02-09T07:40:24Z</time>
      </trkpt>
      <trkpt lat="45.09367" lon="5.60462">
        <ele>1488</ele>
        <time>2014-02-09T07:40:27Z</time>
      </trkpt>
      <trkpt lat="45.09366" lon="5.60461">
        <ele>1488</ele>
        <time>2014-02-09T07:40:29Z</time>
      </trkpt>
      <trkpt lat="45.09365" lon="5.60467">
        <ele>1489.400024414</ele>
        <time>2014-02-09T07:40:34Z</time>
      </trkpt>
      <trkpt lat="45.09364" lon="5.60472">
        <ele>1490.599975586</ele>
        <time>2014-02-09T07:40:38Z</time>
      </trkpt>
      <trkpt lat="45.09363" lon="5.60475">
        <ele>1491.199951172</ele>
        <time>2014-02-09T07:40:41Z</time>
      </trkpt>
      <trkpt lat="45.09363" lon="5.60476">
        <ele>1491.400024414</ele>
        <time>2014-02-09T07:40:43Z</time>
      </trkpt>
      <trkpt lat="45.09362" lon="5.60481">
        <ele>1492.599975586</ele>
        <time>2014-02-09T07:40:48Z</time>
      </trkpt>
      <trkpt lat="45.09361" lon="5.60485">
        <ele>1493.400024414</ele>
        <time>2014-02-09T07:40:53Z</time>
      </trkpt>
      <trkpt lat="45.09362" lon="5.60489">
        <ele>1494.199951172</ele>
        <time>2014-02-09T07:40:57Z</time>
      </trkpt>
      <trkpt lat="45.09362" lon="5.60496">
        <ele>1495.599975586</ele>
        <time>2014-02-09T07:41:04Z</time>
      </trkpt>
      <trkpt lat="45.0936" lon="5.60499">
        <ele>1496.400024414</ele>
        <time>2014-02-09T07:41:09Z</time>
      </trkpt>
      <trkpt lat="45.09361" lon="5.60505">
        <ele>1497.800048828</ele>
        <time>2014-02-09T07:41:14Z</time>
      </trkpt>
      <trkpt lat="45.09359" lon="5.60509">
        <ele>1498.800048828</ele>
        <time>2014-02-09T07:41:18Z</time>
      </trkpt>
      <trkpt lat="45.09359" lon="5.6051">
        <ele>1499.199951172</ele>
        <time>2014-02-09T07:41:19Z</time>
      </trkpt>
      <trkpt lat="45.09357" lon="5.60514">
        <ele>1500.199951172</ele>
        <time>2014-02-09T07:41:24Z</time>
      </trkpt>
      <trkpt lat="45.09357" lon="5.60516">
        <ele>1500.599975586</ele>
        <time>2014-02-09T07:41:25Z</time>
      </trkpt>
      <trkpt lat="45.09355" lon="5.60519">
        <ele>1501.400024414</ele>
        <time>2014-02-09T07:41:28Z</time>
      </trkpt>
      <trkpt lat="45.09355" lon="5.60521">
        <ele>1501.800048828</ele>
        <time>2014-02-09T07:41:29Z</time>
      </trkpt>
      <trkpt lat="45.09354" lon="5.60524">
        <ele>1502.599975586</ele>
        <time>2014-02-09T07:41:32Z</time>
      </trkpt>
      <trkpt lat="45.09353" lon="5.60526">
        <ele>1503</ele>
        <time>2014-02-09T07:41:34Z</time>
      </trkpt>
      <trkpt lat="45.0935" lon="5.6053">
        <ele>1504</ele>
        <time>2014-02-09T07:41:39Z</time>
      </trkpt>
      <trkpt lat="45.0935" lon="5.6053">
        <ele>1504.199951172</ele>
        <time>2014-02-09T07:41:40Z</time>
      </trkpt>
      <trkpt lat="45.09349" lon="5.60533">
        <ele>1505</ele>
        <time>2014-02-09T07:41:44Z</time>
      </trkpt>
      <trkpt lat="45.09348" lon="5.60536">
        <ele>1505.800048828</ele>
        <time>2014-02-09T07:41:48Z</time>
      </trkpt>
      <trkpt lat="45.09347" lon="5.60542">
        <ele>1507</ele>
        <time>2014-02-09T07:41:55Z</time>
      </trkpt>
      <trkpt lat="45.09345" lon="5.60546">
        <ele>1508.199951172</ele>
        <time>2014-02-09T07:42:00Z</time>
      </trkpt>
      <trkpt lat="45.09345" lon="5.60549">
        <ele>1508.800048828</ele>
        <time>2014-02-09T07:42:05Z</time>
      </trkpt>
      <trkpt lat="45.09343" lon="5.60554">
        <ele>1509.800048828</ele>
        <time>2014-02-09T07:42:10Z</time>
      </trkpt>
      <trkpt lat="45.09342" lon="5.60556">
        <ele>1510.400024414</ele>
        <time>2014-02-09T07:42:15Z</time>
      </trkpt>
      <trkpt lat="45.09343" lon="5.6056">
        <ele>1511.400024414</ele>
        <time>2014-02-09T07:42:19Z</time>
      </trkpt>
      <trkpt lat="45.09342" lon="5.60565">
        <ele>1512.599975586</ele>
        <time>2014-02-09T07:42:24Z</time>
      </trkpt>
      <trkpt lat="45.09342" lon="5.6057">
        <ele>1513.599975586</ele>
        <time>2014-02-09T07:42:28Z</time>
      </trkpt>
      <trkpt lat="45.09341" lon="5.60576">
        <ele>1515</ele>
        <time>2014-02-09T07:42:33Z</time>
      </trkpt>
      <trkpt lat="45.09341" lon="5.60577">
        <ele>1515.199951172</ele>
        <time>2014-02-09T07:42:34Z</time>
      </trkpt>
      <trkpt lat="45.09341" lon="5.60582">
        <ele>1516.199951172</ele>
        <time>2014-02-09T07:42:38Z</time>
      </trkpt>
      <trkpt lat="45.09343" lon="5.60585">
        <ele>1517</ele>
        <time>2014-02-09T07:42:42Z</time>
      </trkpt>
      <trkpt lat="45.09345" lon="5.6059">
        <ele>1518.400024414</ele>
        <time>2014-02-09T07:42:46Z</time>
      </trkpt>
      <trkpt lat="45.09346" lon="5.6059">
        <ele>1518.599975586</ele>
        <time>2014-02-09T07:42:49Z</time>
      </trkpt>
      <trkpt lat="45.09348" lon="5.60594">
        <ele>1519.599975586</ele>
        <time>2014-02-09T07:42:54Z</time>
      </trkpt>
      <trkpt lat="45.0935" lon="5.60597">
        <ele>1520.599975586</ele>
        <time>2014-02-09T07:42:58Z</time>
      </trkpt>
      <trkpt lat="45.09351" lon="5.606">
        <ele>1521.400024414</ele>
        <time>2014-02-09T07:43:03Z</time>
      </trkpt>
      <trkpt lat="45.09351" lon="5.60605">
        <ele>1523.199951172</ele>
        <time>2014-02-09T07:43:08Z</time>
      </trkpt>
      <trkpt lat="45.09354" lon="5.60607">
        <ele>1523.800048828</ele>
        <time>2014-02-09T07:43:13Z</time>
      </trkpt>
      <trkpt lat="45.09357" lon="5.60611">
        <ele>1524.599975586</ele>
        <time>2014-02-09T07:43:19Z</time>
      </trkpt>
      <trkpt lat="45.09359" lon="5.60612">
        <ele>1525</ele>
        <time>2014-02-09T07:43:24Z</time>
      </trkpt>
      <trkpt lat="45.09361" lon="5.60615">
        <ele>1525.800048828</ele>
        <time>2014-02-09T07:43:30Z</time>
      </trkpt>
      <trkpt lat="45.09366" lon="5.60618">
        <ele>1526.599975586</ele>
        <time>2014-02-09T07:43:35Z</time>
      </trkpt>
      <trkpt lat="45.09367" lon="5.6062">
        <ele>1527.400024414</ele>
        <time>2014-02-09T07:43:37Z</time>
      </trkpt>
      <trkpt lat="45.09368" lon="5.60623">
        <ele>1528.199951172</ele>
        <time>2014-02-09T07:43:41Z</time>
      </trkpt>
      <trkpt lat="45.09368" lon="5.60623">
        <ele>1528.400024414</ele>
        <time>2014-02-09T07:43:42Z</time>
      </trkpt>
      <trkpt lat="45.09371" lon="5.60625">
        <ele>1528.599975586</ele>
        <time>2014-02-09T07:43:46Z</time>
      </trkpt>
      <trkpt lat="45.09373" lon="5.60627">
        <ele>1529.400024414</ele>
        <time>2014-02-09T07:43:50Z</time>
      </trkpt>
      <trkpt lat="45.09374" lon="5.60629">
        <ele>1530</ele>
        <time>2014-02-09T07:43:54Z</time>
      </trkpt>
      <trkpt lat="45.09376" lon="5.60634">
        <ele>1531.400024414</ele>
        <time>2014-02-09T07:44:00Z</time>
      </trkpt>
      <trkpt lat="45.09378" lon="5.60635">
        <ele>1531.800048828</ele>
        <time>2014-02-09T07:44:05Z</time>
      </trkpt>
      <trkpt lat="45.0938" lon="5.60637">
        <ele>1532.400024414</ele>
        <time>2014-02-09T07:44:09Z</time>
      </trkpt>
      <trkpt lat="45.09381" lon="5.60638">
        <ele>1532.599975586</ele>
        <time>2014-02-09T07:44:13Z</time>
      </trkpt>
      <trkpt lat="45.09383" lon="5.6064">
        <ele>1533.199951172</ele>
        <time>2014-02-09T07:44:17Z</time>
      </trkpt>
      <trkpt lat="45.09386" lon="5.60642">
        <ele>1533.599975586</ele>
        <time>2014-02-09T07:44:22Z</time>
      </trkpt>
      <trkpt lat="45.09389" lon="5.60644">
        <ele>1534.199951172</ele>
        <time>2014-02-09T07:44:27Z</time>
      </trkpt>
      <trkpt lat="45.09392" lon="5.60646">
        <ele>1534.800048828</ele>
        <time>2014-02-09T07:44:31Z</time>
      </trkpt>
      <trkpt lat="45.09395" lon="5.60648">
        <ele>1535.599975586</ele>
        <time>2014-02-09T07:44:35Z</time>
      </trkpt>
      <trkpt lat="45.09397" lon="5.60651">
        <ele>1536.400024414</ele>
        <time>2014-02-09T07:44:40Z</time>
      </trkpt>
      <trkpt lat="45.09398" lon="5.60654">
        <ele>1537.400024414</ele>
        <time>2014-02-09T07:44:44Z</time>
      </trkpt>
      <trkpt lat="45.09399" lon="5.60657">
        <ele>1538.199951172</ele>
        <time>2014-02-09T07:44:49Z</time>
      </trkpt>
      <trkpt lat="45.09401" lon="5.60659">
        <ele>1538.800048828</ele>
        <time>2014-02-09T07:44:53Z</time>
      </trkpt>
      <trkpt lat="45.09403" lon="5.60661">
        <ele>1539.400024414</ele>
        <time>2014-02-09T07:44:58Z</time>
      </trkpt>
      <trkpt lat="45.09406" lon="5.60662">
        <ele>1539.800048828</ele>
        <time>2014-02-09T07:45:03Z</time>
      </trkpt>
      <trkpt lat="45.09411" lon="5.60666">
        <ele>1541</ele>
        <time>2014-02-09T07:45:10Z</time>
      </trkpt>
      <trkpt lat="45.09413" lon="5.60668">
        <ele>1541.800048828</ele>
        <time>2014-02-09T07:45:15Z</time>
      </trkpt>
      <trkpt lat="45.09415" lon="5.6067">
        <ele>1543</ele>
        <time>2014-02-09T07:45:19Z</time>
      </trkpt>
      <trkpt lat="45.09419" lon="5.60673">
        <ele>1544</ele>
        <time>2014-02-09T07:45:26Z</time>
      </trkpt>
      <trkpt lat="45.09422" lon="5.60677">
        <ele>1545.800048828</ele>
        <time>2014-02-09T07:45:32Z</time>
      </trkpt>
      <trkpt lat="45.09425" lon="5.60681">
        <ele>1547.599975586</ele>
        <time>2014-02-09T07:45:38Z</time>
      </trkpt>
      <trkpt lat="45.09428" lon="5.60683">
        <ele>1548.599975586</ele>
        <time>2014-02-09T07:45:42Z</time>
      </trkpt>
      <trkpt lat="45.09431" lon="5.60687">
        <ele>1550.199951172</ele>
        <time>2014-02-09T07:45:46Z</time>
      </trkpt>
      <trkpt lat="45.09434" lon="5.60689">
        <ele>1551.199951172</ele>
        <time>2014-02-09T07:45:50Z</time>
      </trkpt>
      <trkpt lat="45.09435" lon="5.6069">
        <ele>1551.599975586</ele>
        <time>2014-02-09T07:45:53Z</time>
      </trkpt>
      <trkpt lat="45.09437" lon="5.60692">
        <ele>1552.400024414</ele>
        <time>2014-02-09T07:45:57Z</time>
      </trkpt>
      <trkpt lat="45.09439" lon="5.60694">
        <ele>1553.199951172</ele>
        <time>2014-02-09T07:46:01Z</time>
      </trkpt>
      <trkpt lat="45.0944" lon="5.60695">
        <ele>1553.800048828</ele>
        <time>2014-02-09T07:46:04Z</time>
      </trkpt>
      <trkpt lat="45.09443" lon="5.60698">
        <ele>1555.199951172</ele>
        <time>2014-02-09T07:46:09Z</time>
      </trkpt>
      <trkpt lat="45.09445" lon="5.607">
        <ele>1556</ele>
        <time>2014-02-09T07:46:13Z</time>
      </trkpt>
      <trkpt lat="45.09448" lon="5.60704">
        <ele>1557.400024414</ele>
        <time>2014-02-09T07:46:18Z</time>
      </trkpt>
      <trkpt lat="45.0945" lon="5.60706">
        <ele>1558.599975586</ele>
        <time>2014-02-09T07:46:22Z</time>
      </trkpt>
      <trkpt lat="45.09452" lon="5.60709">
        <ele>1559.800048828</ele>
        <time>2014-02-09T07:46:27Z</time>
      </trkpt>
      <trkpt lat="45.09456" lon="5.60711">
        <ele>1560.400024414</ele>
        <time>2014-02-09T07:46:31Z</time>
      </trkpt>
      <trkpt lat="45.0946" lon="5.60714">
        <ele>1561.400024414</ele>
        <time>2014-02-09T07:46:37Z</time>
      </trkpt>
      <trkpt lat="45.09463" lon="5.60717">
        <ele>1563</ele>
        <time>2014-02-09T07:46:44Z</time>
      </trkpt>
      <trkpt lat="45.09465" lon="5.60719">
        <ele>1563.599975586</ele>
        <time>2014-02-09T07:46:48Z</time>
      </trkpt>
      <trkpt lat="45.09467" lon="5.60722">
        <ele>1564.599975586</ele>
        <time>2014-02-09T07:46:53Z</time>
      </trkpt>
      <trkpt lat="45.09469" lon="5.60724">
        <ele>1565.599975586</ele>
        <time>2014-02-09T07:46:57Z</time>
      </trkpt>
      <trkpt lat="45.09473" lon="5.60729">
        <ele>1567.400024414</ele>
        <time>2014-02-09T07:47:03Z</time>
      </trkpt>
      <trkpt lat="45.09476" lon="5.60732">
        <ele>1568.800048828</ele>
        <time>2014-02-09T07:47:08Z</time>
      </trkpt>
      <trkpt lat="45.0948" lon="5.60735">
        <ele>1570</ele>
        <time>2014-02-09T07:47:13Z</time>
      </trkpt>
      <trkpt lat="45.09483" lon="5.60739">
        <ele>1571.199951172</ele>
        <time>2014-02-09T07:47:19Z</time>
      </trkpt>
      <trkpt lat="45.09487" lon="5.60741">
        <ele>1572</ele>
        <time>2014-02-09T07:47:25Z</time>
      </trkpt>
      <trkpt lat="45.09491" lon="5.60745">
        <ele>1573.199951172</ele>
        <time>2014-02-09T07:47:31Z</time>
      </trkpt>
      <trkpt lat="45.09493" lon="5.60746">
        <ele>1574</ele>
        <time>2014-02-09T07:47:35Z</time>
      </trkpt>
      <trkpt lat="45.09497" lon="5.6075">
        <ele>1575.199951172</ele>
        <time>2014-02-09T07:47:40Z</time>
      </trkpt>
      <trkpt lat="45.09502" lon="5.60754">
        <ele>1576.599975586</ele>
        <time>2014-02-09T07:47:47Z</time>
      </trkpt>
      <trkpt lat="45.09505" lon="5.60757">
        <ele>1577.599975586</ele>
        <time>2014-02-09T07:47:52Z</time>
      </trkpt>
      <trkpt lat="45.09508" lon="5.60759">
        <ele>1578.599975586</ele>
        <time>2014-02-09T07:47:57Z</time>
      </trkpt>
      <trkpt lat="45.09512" lon="5.60761">
        <ele>1579.199951172</ele>
        <time>2014-02-09T07:48:02Z</time>
      </trkpt>
      <trkpt lat="45.09515" lon="5.60763">
        <ele>1579.599975586</ele>
        <time>2014-02-09T07:48:06Z</time>
      </trkpt>
      <trkpt lat="45.09518" lon="5.60764">
        <ele>1580.199951172</ele>
        <time>2014-02-09T07:48:10Z</time>
      </trkpt>
      <trkpt lat="45.0952" lon="5.60768">
        <ele>1581.800048828</ele>
        <time>2014-02-09T07:48:16Z</time>
      </trkpt>
      <trkpt lat="45.09522" lon="5.60771">
        <ele>1583</ele>
        <time>2014-02-09T07:48:21Z</time>
      </trkpt>
      <trkpt lat="45.09524" lon="5.60773">
        <ele>1583.800048828</ele>
        <time>2014-02-09T07:48:25Z</time>
      </trkpt>
      <trkpt lat="45.09528" lon="5.60777">
        <ele>1585.199951172</ele>
        <time>2014-02-09T07:48:32Z</time>
      </trkpt>
      <trkpt lat="45.09531" lon="5.6078">
        <ele>1586.199951172</ele>
        <time>2014-02-09T07:48:38Z</time>
      </trkpt>
      <trkpt lat="45.09532" lon="5.60781">
        <ele>1586.599975586</ele>
        <time>2014-02-09T07:48:41Z</time>
      </trkpt>
      <trkpt lat="45.09533" lon="5.60781">
        <ele>1586.800048828</ele>
        <time>2014-02-09T07:48:42Z</time>
      </trkpt>
      <trkpt lat="45.09535" lon="5.60783">
        <ele>1587.599975586</ele>
        <time>2014-02-09T07:48:47Z</time>
      </trkpt>
      <trkpt lat="45.09536" lon="5.60785">
        <ele>1588</ele>
        <time>2014-02-09T07:48:51Z</time>
      </trkpt>
      <trkpt lat="45.09539" lon="5.60787">
        <ele>1588.800048828</ele>
        <time>2014-02-09T07:48:57Z</time>
      </trkpt>
      <trkpt lat="45.09541" lon="5.60788">
        <ele>1589.400024414</ele>
        <time>2014-02-09T07:49:01Z</time>
      </trkpt>
      <trkpt lat="45.09543" lon="5.6079">
        <ele>1589.800048828</ele>
        <time>2014-02-09T07:49:06Z</time>
      </trkpt>
      <trkpt lat="45.09545" lon="5.60791">
        <ele>1590.199951172</ele>
        <time>2014-02-09T07:49:11Z</time>
      </trkpt>
      <trkpt lat="45.09546" lon="5.60792">
        <ele>1590.599975586</ele>
        <time>2014-02-09T07:49:15Z</time>
      </trkpt>
      <trkpt lat="45.09547" lon="5.60793">
        <ele>1591.199951172</ele>
        <time>2014-02-09T07:49:19Z</time>
      </trkpt>
      <trkpt lat="45.09549" lon="5.60795">
        <ele>1592</ele>
        <time>2014-02-09T07:49:23Z</time>
      </trkpt>
      <trkpt lat="45.09552" lon="5.60798">
        <ele>1593</ele>
        <time>2014-02-09T07:49:28Z</time>
      </trkpt>
      <trkpt lat="45.09553" lon="5.608">
        <ele>1593.800048828</ele>
        <time>2014-02-09T07:49:33Z</time>
      </trkpt>
      <trkpt lat="45.09555" lon="5.60801">
        <ele>1594.199951172</ele>
        <time>2014-02-09T07:49:37Z</time>
      </trkpt>
      <trkpt lat="45.09557" lon="5.60803">
        <ele>1594.599975586</ele>
        <time>2014-02-09T07:49:43Z</time>
      </trkpt>
      <trkpt lat="45.0956" lon="5.60803">
        <ele>1594.599975586</ele>
        <time>2014-02-09T07:49:48Z</time>
      </trkpt>
      <trkpt lat="45.09562" lon="5.60804">
        <ele>1595</ele>
        <time>2014-02-09T07:49:53Z</time>
      </trkpt>
      <trkpt lat="45.09564" lon="5.60806">
        <ele>1595.599975586</ele>
        <time>2014-02-09T07:49:57Z</time>
      </trkpt>
      <trkpt lat="45.09566" lon="5.60808">
        <ele>1596.400024414</ele>
        <time>2014-02-09T07:50:01Z</time>
      </trkpt>
      <trkpt lat="45.09569" lon="5.6081">
        <ele>1597</ele>
        <time>2014-02-09T07:50:07Z</time>
      </trkpt>
      <trkpt lat="45.09573" lon="5.60812">
        <ele>1597.800048828</ele>
        <time>2014-02-09T07:50:11Z</time>
      </trkpt>
      <trkpt lat="45.09575" lon="5.60814">
        <ele>1598.400024414</ele>
        <time>2014-02-09T07:50:15Z</time>
      </trkpt>
      <trkpt lat="45.09578" lon="5.60818">
        <ele>1600</ele>
        <time>2014-02-09T07:50:20Z</time>
      </trkpt>
      <trkpt lat="45.09582" lon="5.60824">
        <ele>1602.400024414</ele>
        <time>2014-02-09T07:50:26Z</time>
      </trkpt>
      <trkpt lat="45.09583" lon="5.60825">
        <ele>1602.400024414</ele>
        <time>2014-02-09T07:50:27Z</time>
      </trkpt>
      <trkpt lat="45.09584" lon="5.60827">
        <ele>1603.400024414</ele>
        <time>2014-02-09T07:50:30Z</time>
      </trkpt>
      <trkpt lat="45.09588" lon="5.60831">
        <ele>1604.599975586</ele>
        <time>2014-02-09T07:50:35Z</time>
      </trkpt>
      <trkpt lat="45.0959" lon="5.60837">
        <ele>1605.599975586</ele>
        <time>2014-02-09T07:50:41Z</time>
      </trkpt>
      <trkpt lat="45.09593" lon="5.60843">
        <ele>1606</ele>
        <time>2014-02-09T07:50:47Z</time>
      </trkpt>
      <trkpt lat="45.09593" lon="5.60844">
        <ele>1606</ele>
        <time>2014-02-09T07:50:49Z</time>
      </trkpt>
      <trkpt lat="45.09595" lon="5.60848">
        <ele>1606.199951172</ele>
        <time>2014-02-09T07:50:52Z</time>
      </trkpt>
      <trkpt lat="45.09596" lon="5.6085">
        <ele>1606.199951172</ele>
        <time>2014-02-09T07:50:55Z</time>
      </trkpt>
      <trkpt lat="45.09597" lon="5.60854">
        <ele>1606.400024414</ele>
        <time>2014-02-09T07:51:00Z</time>
      </trkpt>
      <trkpt lat="45.09599" lon="5.60858">
        <ele>1606.599975586</ele>
        <time>2014-02-09T07:51:05Z</time>
      </trkpt>
      <trkpt lat="45.096" lon="5.60862">
        <ele>1607</ele>
        <time>2014-02-09T07:51:10Z</time>
      </trkpt>
      <trkpt lat="45.09599" lon="5.60867">
        <ele>1607.599975586</ele>
        <time>2014-02-09T07:51:16Z</time>
      </trkpt>
      <trkpt lat="45.09595" lon="5.6087">
        <ele>1608</ele>
        <time>2014-02-09T07:51:21Z</time>
      </trkpt>
      <trkpt lat="45.0959" lon="5.60871">
        <ele>1608.599975586</ele>
        <time>2014-02-09T07:51:27Z</time>
      </trkpt>
      <trkpt lat="45.09585" lon="5.60874">
        <ele>1609.199951172</ele>
        <time>2014-02-09T07:51:34Z</time>
      </trkpt>
      <trkpt lat="45.0958" lon="5.60879">
        <ele>1610.199951172</ele>
        <time>2014-02-09T07:51:41Z</time>
      </trkpt>
      <trkpt lat="45.09574" lon="5.60883">
        <ele>1611</ele>
        <time>2014-02-09T07:51:47Z</time>
      </trkpt>
      <trkpt lat="45.09567" lon="5.60885">
        <ele>1612</ele>
        <time>2014-02-09T07:51:54Z</time>
      </trkpt>
      <trkpt lat="45.09561" lon="5.60886">
        <ele>1612.800048828</ele>
        <time>2014-02-09T07:52:00Z</time>
      </trkpt>
      <trkpt lat="45.09556" lon="5.60887">
        <ele>1613.599975586</ele>
        <time>2014-02-09T07:52:06Z</time>
      </trkpt>
      <trkpt lat="45.09551" lon="5.60888">
        <ele>1614.199951172</ele>
        <time>2014-02-09T07:52:11Z</time>
      </trkpt>
      <trkpt lat="45.09546" lon="5.6089">
        <ele>1615</ele>
        <time>2014-02-09T07:52:17Z</time>
      </trkpt>
      <trkpt lat="45.09545" lon="5.6089">
        <ele>1615</ele>
        <time>2014-02-09T07:52:18Z</time>
      </trkpt>
      <trkpt lat="45.09542" lon="5.60891">
        <ele>1615.599975586</ele>
        <time>2014-02-09T07:52:22Z</time>
      </trkpt>
      <trkpt lat="45.09541" lon="5.60892">
        <ele>1615.800048828</ele>
        <time>2014-02-09T07:52:23Z</time>
      </trkpt>
      <trkpt lat="45.09537" lon="5.60893">
        <ele>1616.400024414</ele>
        <time>2014-02-09T07:52:27Z</time>
      </trkpt>
      <trkpt lat="45.09529" lon="5.60897">
        <ele>1618</ele>
        <time>2014-02-09T07:52:35Z</time>
      </trkpt>
      <trkpt lat="45.0952" lon="5.60898">
        <ele>1619.199951172</ele>
        <time>2014-02-09T07:52:41Z</time>
      </trkpt>
      <trkpt lat="45.09509" lon="5.60897">
        <ele>1620.400024414</ele>
        <time>2014-02-09T07:52:48Z</time>
      </trkpt>
      <trkpt lat="45.09503" lon="5.60895">
        <ele>1620.800048828</ele>
        <time>2014-02-09T07:52:54Z</time>
      </trkpt>
      <trkpt lat="45.09497" lon="5.60895">
        <ele>1621.199951172</ele>
        <time>2014-02-09T07:53:00Z</time>
      </trkpt>
      <trkpt lat="45.09486" lon="5.60893">
        <ele>1621.400024414</ele>
        <time>2014-02-09T07:53:09Z</time>
      </trkpt>
      <trkpt lat="45.09479" lon="5.60892">
        <ele>1621.400024414</ele>
        <time>2014-02-09T07:53:15Z</time>
      </trkpt>
      <trkpt lat="45.09478" lon="5.60892">
        <ele>1621.599975586</ele>
        <time>2014-02-09T07:53:17Z</time>
      </trkpt>
      <trkpt lat="45.09475" lon="5.60891">
        <ele>1621.400024414</ele>
        <time>2014-02-09T07:53:20Z</time>
      </trkpt>
      <trkpt lat="45.09474" lon="5.60891">
        <ele>1621.400024414</ele>
        <time>2014-02-09T07:53:21Z</time>
      </trkpt>
      <trkpt lat="45.09469" lon="5.60888">
        <ele>1621.199951172</ele>
        <time>2014-02-09T07:53:26Z</time>
      </trkpt>
      <trkpt lat="45.09458" lon="5.60884">
        <ele>1621.199951172</ele>
        <time>2014-02-09T07:53:33Z</time>
      </trkpt>
      <trkpt lat="45.09451" lon="5.60882">
        <ele>1621.199951172</ele>
        <time>2014-02-09T07:53:39Z</time>
      </trkpt>
      <trkpt lat="45.0944" lon="5.60882">
        <ele>1621.599975586</ele>
        <time>2014-02-09T07:53:47Z</time>
      </trkpt>
      <trkpt lat="45.09433" lon="5.60885">
        <ele>1622.400024414</ele>
        <time>2014-02-09T07:53:52Z</time>
      </trkpt>
      <trkpt lat="45.09428" lon="5.60886">
        <ele>1622.800048828</ele>
        <time>2014-02-09T07:53:57Z</time>
      </trkpt>
      <trkpt lat="45.09421" lon="5.60887">
        <ele>1623.199951172</ele>
        <time>2014-02-09T07:54:03Z</time>
      </trkpt>
      <trkpt lat="45.09413" lon="5.60886">
        <ele>1623.800048828</ele>
        <time>2014-02-09T07:54:09Z</time>
      </trkpt>
      <trkpt lat="45.09406" lon="5.60884">
        <ele>1624.599975586</ele>
        <time>2014-02-09T07:54:14Z</time>
      </trkpt>
      <trkpt lat="45.09405" lon="5.60884">
        <ele>1624.599975586</ele>
        <time>2014-02-09T07:54:15Z</time>
      </trkpt>
      <trkpt lat="45.09398" lon="5.6088">
        <ele>1625.199951172</ele>
        <time>2014-02-09T07:54:21Z</time>
      </trkpt>
      <trkpt lat="45.09395" lon="5.60878">
        <ele>1625.400024414</ele>
        <time>2014-02-09T07:54:24Z</time>
      </trkpt>
      <trkpt lat="45.09394" lon="5.60877">
        <ele>1625.400024414</ele>
        <time>2014-02-09T07:54:25Z</time>
      </trkpt>
      <trkpt lat="45.09385" lon="5.60872">
        <ele>1626</ele>
        <time>2014-02-09T07:54:31Z</time>
      </trkpt>
      <trkpt lat="45.09379" lon="5.60871">
        <ele>1626.800048828</ele>
        <time>2014-02-09T07:54:37Z</time>
      </trkpt>
      <trkpt lat="45.09369" lon="5.60869">
        <ele>1627.800048828</ele>
        <time>2014-02-09T07:54:44Z</time>
      </trkpt>
      <trkpt lat="45.09357" lon="5.60869">
        <ele>1629.199951172</ele>
        <time>2014-02-09T07:54:49Z</time>
      </trkpt>
      <trkpt lat="45.09355" lon="5.60868">
        <ele>1629.599975586</ele>
        <time>2014-02-09T07:54:51Z</time>
      </trkpt>
      <trkpt lat="45.09351" lon="5.60875">
        <ele>1631</ele>
        <time>2014-02-09T07:54:54Z</time>
      </trkpt>
      <trkpt lat="45.09347" lon="5.6088">
        <ele>1632.400024414</ele>
        <time>2014-02-09T07:54:58Z</time>
      </trkpt>
      <trkpt lat="45.09345" lon="5.60882">
        <ele>1633</ele>
        <time>2014-02-09T07:55:00Z</time>
      </trkpt>
      <trkpt lat="45.09343" lon="5.60886">
        <ele>1633.800048828</ele>
        <time>2014-02-09T07:55:02Z</time>
      </trkpt>
      <trkpt lat="45.09337" lon="5.60896">
        <ele>1636.199951172</ele>
        <time>2014-02-09T07:55:08Z</time>
      </trkpt>
      <trkpt lat="45.09336" lon="5.60898">
        <ele>1636.599975586</ele>
        <time>2014-02-09T07:55:10Z</time>
      </trkpt>
      <trkpt lat="45.09335" lon="5.60899">
        <ele>1637</ele>
        <time>2014-02-09T07:55:12Z</time>
      </trkpt>
      <trkpt lat="45.09332" lon="5.60901">
        <ele>1637.599975586</ele>
        <time>2014-02-09T07:55:18Z</time>
      </trkpt>
      <trkpt lat="45.09332" lon="5.60902">
        <ele>1637.800048828</ele>
        <time>2014-02-09T07:55:19Z</time>
      </trkpt>
      <trkpt lat="45.09332" lon="5.60902">
        <ele>1638</ele>
        <time>2014-02-09T07:55:27Z</time>
      </trkpt>
      <trkpt lat="45.0933" lon="5.60908">
        <ele>1639</ele>
        <time>2014-02-09T07:55:33Z</time>
      </trkpt>
      <trkpt lat="45.09329" lon="5.60909">
        <ele>1639</ele>
        <time>2014-02-09T07:55:34Z</time>
      </trkpt>
      <trkpt lat="45.09327" lon="5.60912">
        <ele>1639.800048828</ele>
        <time>2014-02-09T07:55:36Z</time>
      </trkpt>
      <trkpt lat="45.09325" lon="5.60914">
        <ele>1640.199951172</ele>
        <time>2014-02-09T07:55:37Z</time>
      </trkpt>
      <trkpt lat="45.09324" lon="5.60917">
        <ele>1640.800048828</ele>
        <time>2014-02-09T07:55:38Z</time>
      </trkpt>
      <trkpt lat="45.09323" lon="5.60918">
        <ele>1640.800048828</ele>
        <time>2014-02-09T07:55:39Z</time>
      </trkpt>
      <trkpt lat="45.09318" lon="5.60926">
        <ele>1641.599975586</ele>
        <time>2014-02-09T07:55:44Z</time>
      </trkpt>
      <trkpt lat="45.09311" lon="5.60934">
        <ele>1642.800048828</ele>
        <time>2014-02-09T07:55:48Z</time>
      </trkpt>
      <trkpt lat="45.09306" lon="5.60939">
        <ele>1643.400024414</ele>
        <time>2014-02-09T07:55:53Z</time>
      </trkpt>
      <trkpt lat="45.09303" lon="5.60941">
        <ele>1643.800048828</ele>
        <time>2014-02-09T07:55:56Z</time>
      </trkpt>
      <trkpt lat="45.09302" lon="5.60942">
        <ele>1644</ele>
        <time>2014-02-09T07:55:58Z</time>
      </trkpt>
      <trkpt lat="45.09298" lon="5.60946">
        <ele>1644.800048828</ele>
        <time>2014-02-09T07:56:03Z</time>
      </trkpt>
      <trkpt lat="45.09296" lon="5.60948">
        <ele>1645</ele>
        <time>2014-02-09T07:56:06Z</time>
      </trkpt>
      <trkpt lat="45.09294" lon="5.60948">
        <ele>1645.199951172</ele>
        <time>2014-02-09T07:56:08Z</time>
      </trkpt>
      <trkpt lat="45.0929" lon="5.60952">
        <ele>1645.800048828</ele>
        <time>2014-02-09T07:56:13Z</time>
      </trkpt>
      <trkpt lat="45.09287" lon="5.60954">
        <ele>1646.400024414</ele>
        <time>2014-02-09T07:56:17Z</time>
      </trkpt>
      <trkpt lat="45.09286" lon="5.60955">
        <ele>1646.599975586</ele>
        <time>2014-02-09T07:56:19Z</time>
      </trkpt>
      <trkpt lat="45.09283" lon="5.60957">
        <ele>1647</ele>
        <time>2014-02-09T07:56:22Z</time>
      </trkpt>
      <trkpt lat="45.09282" lon="5.60957">
        <ele>1647.199951172</ele>
        <time>2014-02-09T07:56:24Z</time>
      </trkpt>
      <trkpt lat="45.09281" lon="5.60958">
        <ele>1647.199951172</ele>
        <time>2014-02-09T07:56:26Z</time>
      </trkpt>
      <trkpt lat="45.09279" lon="5.60959">
        <ele>1647.599975586</ele>
        <time>2014-02-09T07:56:28Z</time>
      </trkpt>
      <trkpt lat="45.09275" lon="5.60961">
        <ele>1648.199951172</ele>
        <time>2014-02-09T07:56:33Z</time>
      </trkpt>
      <trkpt lat="45.09271" lon="5.60967">
        <ele>1649.199951172</ele>
        <time>2014-02-09T07:56:40Z</time>
      </trkpt>
      <trkpt lat="45.09266" lon="5.6097">
        <ele>1650</ele>
        <time>2014-02-09T07:56:46Z</time>
      </trkpt>
      <trkpt lat="45.09262" lon="5.60972">
        <ele>1650.599975586</ele>
        <time>2014-02-09T07:56:50Z</time>
      </trkpt>
      <trkpt lat="45.0926" lon="5.60974">
        <ele>1651</ele>
        <time>2014-02-09T07:56:53Z</time>
      </trkpt>
      <trkpt lat="45.0925" lon="5.60979">
        <ele>1652.599975586</ele>
        <time>2014-02-09T07:57:01Z</time>
      </trkpt>
      <trkpt lat="45.09243" lon="5.60984">
        <ele>1654</ele>
        <time>2014-02-09T07:57:09Z</time>
      </trkpt>
      <trkpt lat="45.0924" lon="5.60987">
        <ele>1654.599975586</ele>
        <time>2014-02-09T07:57:13Z</time>
      </trkpt>
      <trkpt lat="45.09239" lon="5.60989">
        <ele>1655</ele>
        <time>2014-02-09T07:57:15Z</time>
      </trkpt>
      <trkpt lat="45.09238" lon="5.60989">
        <ele>1655.199951172</ele>
        <time>2014-02-09T07:57:17Z</time>
      </trkpt>
      <trkpt lat="45.09236" lon="5.6099">
        <ele>1655.400024414</ele>
        <time>2014-02-09T07:57:20Z</time>
      </trkpt>
      <trkpt lat="45.09231" lon="5.60992">
        <ele>1656.199951172</ele>
        <time>2014-02-09T07:57:26Z</time>
      </trkpt>
      <trkpt lat="45.09226" lon="5.60996">
        <ele>1657.400024414</ele>
        <time>2014-02-09T07:57:32Z</time>
      </trkpt>
      <trkpt lat="45.09223" lon="5.61">
        <ele>1658.199951172</ele>
        <time>2014-02-09T07:57:38Z</time>
      </trkpt>
      <trkpt lat="45.09222" lon="5.61002">
        <ele>1658.800048828</ele>
        <time>2014-02-09T07:57:42Z</time>
      </trkpt>
      <trkpt lat="45.09221" lon="5.61004">
        <ele>1659.400024414</ele>
        <time>2014-02-09T07:57:46Z</time>
      </trkpt>
      <trkpt lat="45.0922" lon="5.61006">
        <ele>1660.400024414</ele>
        <time>2014-02-09T07:57:50Z</time>
      </trkpt>
      <trkpt lat="45.09218" lon="5.6101">
        <ele>1661.400024414</ele>
        <time>2014-02-09T07:57:55Z</time>
      </trkpt>
      <trkpt lat="45.09216" lon="5.6101">
        <ele>1661.599975586</ele>
        <time>2014-02-09T07:58:00Z</time>
      </trkpt>
      <trkpt lat="45.09213" lon="5.6101">
        <ele>1662</ele>
        <time>2014-02-09T07:58:05Z</time>
      </trkpt>
      <trkpt lat="45.0921" lon="5.6101">
        <ele>1662.400024414</ele>
        <time>2014-02-09T07:58:10Z</time>
      </trkpt>
      <trkpt lat="45.09207" lon="5.6101">
        <ele>1663</ele>
        <time>2014-02-09T07:58:15Z</time>
      </trkpt>
      <trkpt lat="45.09202" lon="5.61011">
        <ele>1663.800048828</ele>
        <time>2014-02-09T07:58:21Z</time>
      </trkpt>
      <trkpt lat="45.09199" lon="5.61014">
        <ele>1664.800048828</ele>
        <time>2014-02-09T07:58:26Z</time>
      </trkpt>
      <trkpt lat="45.09197" lon="5.61017">
        <ele>1665.800048828</ele>
        <time>2014-02-09T07:58:31Z</time>
      </trkpt>
      <trkpt lat="45.09195" lon="5.61018">
        <ele>1666.400024414</ele>
        <time>2014-02-09T07:58:35Z</time>
      </trkpt>
      <trkpt lat="45.09193" lon="5.61021">
        <ele>1667.199951172</ele>
        <time>2014-02-09T07:58:40Z</time>
      </trkpt>
      <trkpt lat="45.0919" lon="5.61023">
        <ele>1668</ele>
        <time>2014-02-09T07:58:45Z</time>
      </trkpt>
      <trkpt lat="45.09187" lon="5.61025">
        <ele>1669</ele>
        <time>2014-02-09T07:58:51Z</time>
      </trkpt>
      <trkpt lat="45.09185" lon="5.61028">
        <ele>1670</ele>
        <time>2014-02-09T07:58:56Z</time>
      </trkpt>
      <trkpt lat="45.09185" lon="5.61031">
        <ele>1670.800048828</ele>
        <time>2014-02-09T07:59:02Z</time>
      </trkpt>
      <trkpt lat="45.09186" lon="5.61036">
        <ele>1671.800048828</ele>
        <time>2014-02-09T07:59:07Z</time>
      </trkpt>
      <trkpt lat="45.09187" lon="5.61041">
        <ele>1673</ele>
        <time>2014-02-09T07:59:12Z</time>
      </trkpt>
      <trkpt lat="45.09189" lon="5.61045">
        <ele>1674</ele>
        <time>2014-02-09T07:59:18Z</time>
      </trkpt>
      <trkpt lat="45.0919" lon="5.61049">
        <ele>1674.800048828</ele>
        <time>2014-02-09T07:59:22Z</time>
      </trkpt>
      <trkpt lat="45.09188" lon="5.61055">
        <ele>1676.400024414</ele>
        <time>2014-02-09T07:59:28Z</time>
      </trkpt>
      <trkpt lat="45.09186" lon="5.61059">
        <ele>1677.599975586</ele>
        <time>2014-02-09T07:59:33Z</time>
      </trkpt>
      <trkpt lat="45.09184" lon="5.61064">
        <ele>1679.199951172</ele>
        <time>2014-02-09T07:59:39Z</time>
      </trkpt>
      <trkpt lat="45.09182" lon="5.61066">
        <ele>1679.800048828</ele>
        <time>2014-02-09T07:59:43Z</time>
      </trkpt>
      <trkpt lat="45.09178" lon="5.61068">
        <ele>1681</ele>
        <time>2014-02-09T07:59:48Z</time>
      </trkpt>
      <trkpt lat="45.09174" lon="5.61073">
        <ele>1682.599975586</ele>
        <time>2014-02-09T07:59:55Z</time>
      </trkpt>
      <trkpt lat="45.09171" lon="5.6108">
        <ele>1684.800048828</ele>
        <time>2014-02-09T08:00:01Z</time>
      </trkpt>
      <trkpt lat="45.09168" lon="5.61086">
        <ele>1686.400024414</ele>
        <time>2014-02-09T08:00:06Z</time>
      </trkpt>
      <trkpt lat="45.09164" lon="5.61092">
        <ele>1687.800048828</ele>
        <time>2014-02-09T08:00:11Z</time>
      </trkpt>
      <trkpt lat="45.09158" lon="5.61099">
        <ele>1689.599975586</ele>
        <time>2014-02-09T08:00:16Z</time>
      </trkpt>
      <trkpt lat="45.09154" lon="5.61102">
        <ele>1690.400024414</ele>
        <time>2014-02-09T08:00:18Z</time>
      </trkpt>
      <trkpt lat="45.09151" lon="5.61105">
        <ele>1691.199951172</ele>
        <time>2014-02-09T08:00:22Z</time>
      </trkpt>
      <trkpt lat="45.0915" lon="5.61106">
        <ele>1691.400024414</ele>
        <time>2014-02-09T08:00:23Z</time>
      </trkpt>
      <trkpt lat="45.09146" lon="5.6111">
        <ele>1692.599975586</ele>
        <time>2014-02-09T08:00:29Z</time>
      </trkpt>
      <trkpt lat="45.09141" lon="5.61115">
        <ele>1693.800048828</ele>
        <time>2014-02-09T08:00:35Z</time>
      </trkpt>
      <trkpt lat="45.09137" lon="5.61118">
        <ele>1694.400024414</ele>
        <time>2014-02-09T08:00:41Z</time>
      </trkpt>
      <trkpt lat="45.09133" lon="5.61119">
        <ele>1695</ele>
        <time>2014-02-09T08:00:48Z</time>
      </trkpt>
      <trkpt lat="45.09131" lon="5.61122">
        <ele>1695.599975586</ele>
        <time>2014-02-09T08:00:53Z</time>
      </trkpt>
      <trkpt lat="45.09132" lon="5.61126">
        <ele>1696.599975586</ele>
        <time>2014-02-09T08:00:59Z</time>
      </trkpt>
      <trkpt lat="45.09135" lon="5.61131">
        <ele>1697.400024414</ele>
        <time>2014-02-09T08:01:06Z</time>
      </trkpt>
      <trkpt lat="45.09136" lon="5.61135">
        <ele>1698</ele>
        <time>2014-02-09T08:01:11Z</time>
      </trkpt>
      <trkpt lat="45.09137" lon="5.61139">
        <ele>1698.599975586</ele>
        <time>2014-02-09T08:01:16Z</time>
      </trkpt>
      <trkpt lat="45.09137" lon="5.61142">
        <ele>1699.400024414</ele>
        <time>2014-02-09T08:01:20Z</time>
      </trkpt>
      <trkpt lat="45.09133" lon="5.61146">
        <ele>1700.400024414</ele>
        <time>2014-02-09T08:01:27Z</time>
      </trkpt>
      <trkpt lat="45.09132" lon="5.61148">
        <ele>1700.800048828</ele>
        <time>2014-02-09T08:01:31Z</time>
      </trkpt>
      <trkpt lat="45.09129" lon="5.6115">
        <ele>1701.599975586</ele>
        <time>2014-02-09T08:01:35Z</time>
      </trkpt>
      <trkpt lat="45.09124" lon="5.61155">
        <ele>1702.800048828</ele>
        <time>2014-02-09T08:01:42Z</time>
      </trkpt>
      <trkpt lat="45.09118" lon="5.61158">
        <ele>1703.800048828</ele>
        <time>2014-02-09T08:01:49Z</time>
      </trkpt>
      <trkpt lat="45.09117" lon="5.61158">
        <ele>1703.800048828</ele>
        <time>2014-02-09T08:01:51Z</time>
      </trkpt>
      <trkpt lat="45.09114" lon="5.61158">
        <ele>1704</ele>
        <time>2014-02-09T08:01:54Z</time>
      </trkpt>
      <trkpt lat="45.09114" lon="5.61158">
        <ele>1704</ele>
        <time>2014-02-09T08:01:55Z</time>
      </trkpt>
      <trkpt lat="45.09109" lon="5.61159">
        <ele>1704.599975586</ele>
        <time>2014-02-09T08:02:00Z</time>
      </trkpt>
      <trkpt lat="45.09104" lon="5.6116">
        <ele>1705</ele>
        <time>2014-02-09T08:02:05Z</time>
      </trkpt>
      <trkpt lat="45.091" lon="5.61161">
        <ele>1705.599975586</ele>
        <time>2014-02-09T08:02:10Z</time>
      </trkpt>
      <trkpt lat="45.09095" lon="5.61162">
        <ele>1706.199951172</ele>
        <time>2014-02-09T08:02:16Z</time>
      </trkpt>
      <trkpt lat="45.09094" lon="5.61162">
        <ele>1706.400024414</ele>
        <time>2014-02-09T08:02:17Z</time>
      </trkpt>
      <trkpt lat="45.09091" lon="5.61163">
        <ele>1706.800048828</ele>
        <time>2014-02-09T08:02:22Z</time>
      </trkpt>
      <trkpt lat="45.09088" lon="5.61164">
        <ele>1707</ele>
        <time>2014-02-09T08:02:25Z</time>
      </trkpt>
      <trkpt lat="45.09083" lon="5.61165">
        <ele>1707.599975586</ele>
        <time>2014-02-09T08:02:32Z</time>
      </trkpt>
      <trkpt lat="45.09078" lon="5.61166">
        <ele>1708.199951172</ele>
        <time>2014-02-09T08:02:38Z</time>
      </trkpt>
      <trkpt lat="45.09073" lon="5.61167">
        <ele>1708.800048828</ele>
        <time>2014-02-09T08:02:44Z</time>
      </trkpt>
      <trkpt lat="45.09068" lon="5.6117">
        <ele>1709.800048828</ele>
        <time>2014-02-09T08:02:50Z</time>
      </trkpt>
      <trkpt lat="45.09065" lon="5.61171">
        <ele>1710.400024414</ele>
        <time>2014-02-09T08:02:54Z</time>
      </trkpt>
      <trkpt lat="45.09065" lon="5.61172">
        <ele>1710.800048828</ele>
        <time>2014-02-09T08:02:55Z</time>
      </trkpt>
      <trkpt lat="45.09063" lon="5.61175">
        <ele>1711.800048828</ele>
        <time>2014-02-09T08:02:58Z</time>
      </trkpt>
      <trkpt lat="45.09061" lon="5.61177">
        <ele>1712</ele>
        <time>2014-02-09T08:03:00Z</time>
      </trkpt>
      <trkpt lat="45.09061" lon="5.61178">
        <ele>1712.599975586</ele>
        <time>2014-02-09T08:03:01Z</time>
      </trkpt>
      <trkpt lat="45.09059" lon="5.61182">
        <ele>1713.599975586</ele>
        <time>2014-02-09T08:03:05Z</time>
      </trkpt>
      <trkpt lat="45.09058" lon="5.61183">
        <ele>1714</ele>
        <time>2014-02-09T08:03:06Z</time>
      </trkpt>
      <trkpt lat="45.09054" lon="5.61191">
        <ele>1716.199951172</ele>
        <time>2014-02-09T08:03:13Z</time>
      </trkpt>
      <trkpt lat="45.0905" lon="5.61198">
        <ele>1718.400024414</ele>
        <time>2014-02-09T08:03:20Z</time>
      </trkpt>
      <trkpt lat="45.09049" lon="5.61205">
        <ele>1720</ele>
        <time>2014-02-09T08:03:26Z</time>
      </trkpt>
      <trkpt lat="45.0905" lon="5.6121">
        <ele>1721.400024414</ele>
        <time>2014-02-09T08:03:32Z</time>
      </trkpt>
      <trkpt lat="45.0905" lon="5.61215">
        <ele>1722.599975586</ele>
        <time>2014-02-09T08:03:37Z</time>
      </trkpt>
      <trkpt lat="45.0905" lon="5.61219">
        <ele>1723.800048828</ele>
        <time>2014-02-09T08:03:42Z</time>
      </trkpt>
      <trkpt lat="45.0905" lon="5.61224">
        <ele>1724.800048828</ele>
        <time>2014-02-09T08:03:47Z</time>
      </trkpt>
      <trkpt lat="45.0905" lon="5.61229">
        <ele>1726.199951172</ele>
        <time>2014-02-09T08:03:53Z</time>
      </trkpt>
      <trkpt lat="45.09047" lon="5.61234">
        <ele>1727.599975586</ele>
        <time>2014-02-09T08:04:00Z</time>
      </trkpt>
      <trkpt lat="45.09042" lon="5.61238">
        <ele>1729</ele>
        <time>2014-02-09T08:04:07Z</time>
      </trkpt>
      <trkpt lat="45.09037" lon="5.61242">
        <ele>1730.199951172</ele>
        <time>2014-02-09T08:04:14Z</time>
      </trkpt>
      <trkpt lat="45.09033" lon="5.61245">
        <ele>1731.199951172</ele>
        <time>2014-02-09T08:04:20Z</time>
      </trkpt>
      <trkpt lat="45.09029" lon="5.61248">
        <ele>1732.400024414</ele>
        <time>2014-02-09T08:04:26Z</time>
      </trkpt>
      <trkpt lat="45.09025" lon="5.61252">
        <ele>1733.400024414</ele>
        <time>2014-02-09T08:04:33Z</time>
      </trkpt>
      <trkpt lat="45.09022" lon="5.61257">
        <ele>1734.199951172</ele>
        <time>2014-02-09T08:04:39Z</time>
      </trkpt>
      <trkpt lat="45.09019" lon="5.61261">
        <ele>1735</ele>
        <time>2014-02-09T08:04:45Z</time>
      </trkpt>
      <trkpt lat="45.09017" lon="5.61266">
        <ele>1735.599975586</ele>
        <time>2014-02-09T08:04:51Z</time>
      </trkpt>
      <trkpt lat="45.09014" lon="5.61267">
        <ele>1736</ele>
        <time>2014-02-09T08:04:55Z</time>
      </trkpt>
      <trkpt lat="45.09012" lon="5.61267">
        <ele>1736.199951172</ele>
        <time>2014-02-09T08:04:59Z</time>
      </trkpt>
      <trkpt lat="45.09007" lon="5.61266">
        <ele>1736.400024414</ele>
        <time>2014-02-09T08:05:06Z</time>
      </trkpt>
      <trkpt lat="45.09002" lon="5.61264">
        <ele>1736.400024414</ele>
        <time>2014-02-09T08:05:12Z</time>
      </trkpt>
      <trkpt lat="45.08997" lon="5.61262">
        <ele>1737.400024414</ele>
        <time>2014-02-09T08:05:20Z</time>
      </trkpt>
      <trkpt lat="45.08992" lon="5.61262">
        <ele>1738.599975586</ele>
        <time>2014-02-09T08:05:28Z</time>
      </trkpt>
      <trkpt lat="45.08987" lon="5.61262">
        <ele>1740</ele>
        <time>2014-02-09T08:05:35Z</time>
      </trkpt>
      <trkpt lat="45.08985" lon="5.61263">
        <ele>1740.800048828</ele>
        <time>2014-02-09T08:05:40Z</time>
      </trkpt>
      <trkpt lat="45.08982" lon="5.61265">
        <ele>1742.199951172</ele>
        <time>2014-02-09T08:05:47Z</time>
      </trkpt>
      <trkpt lat="45.08978" lon="5.61267">
        <ele>1743.599975586</ele>
        <time>2014-02-09T08:05:54Z</time>
      </trkpt>
      <trkpt lat="45.08974" lon="5.61269">
        <ele>1745</ele>
        <time>2014-02-09T08:06:01Z</time>
      </trkpt>
      <trkpt lat="45.0897" lon="5.61271">
        <ele>1746.599975586</ele>
        <time>2014-02-09T08:06:09Z</time>
      </trkpt>
      <trkpt lat="45.08969" lon="5.61272">
        <ele>1747</ele>
        <time>2014-02-09T08:06:11Z</time>
      </trkpt>
      <trkpt lat="45.08968" lon="5.61272">
        <ele>1747.599975586</ele>
        <time>2014-02-09T08:06:13Z</time>
      </trkpt>
      <trkpt lat="45.08965" lon="5.61274">
        <ele>1748.599975586</ele>
        <time>2014-02-09T08:06:19Z</time>
      </trkpt>
      <trkpt lat="45.08964" lon="5.61277">
        <ele>1749.599975586</ele>
        <time>2014-02-09T08:06:23Z</time>
      </trkpt>
      <trkpt lat="45.08963" lon="5.61281">
        <ele>1750.599975586</ele>
        <time>2014-02-09T08:06:27Z</time>
      </trkpt>
      <trkpt lat="45.08961" lon="5.61285">
        <ele>1752</ele>
        <time>2014-02-09T08:06:32Z</time>
      </trkpt>
      <trkpt lat="45.0896" lon="5.6129">
        <ele>1753.400024414</ele>
        <time>2014-02-09T08:06:38Z</time>
      </trkpt>
      <trkpt lat="45.08959" lon="5.61294">
        <ele>1754.400024414</ele>
        <time>2014-02-09T08:06:43Z</time>
      </trkpt>
      <trkpt lat="45.08959" lon="5.61298">
        <ele>1755.400024414</ele>
        <time>2014-02-09T08:06:47Z</time>
      </trkpt>
      <trkpt lat="45.08958" lon="5.61301">
        <ele>1756</ele>
        <time>2014-02-09T08:06:51Z</time>
      </trkpt>
      <trkpt lat="45.08957" lon="5.61306">
        <ele>1757.599975586</ele>
        <time>2014-02-09T08:06:58Z</time>
      </trkpt>
      <trkpt lat="45.08956" lon="5.61309">
        <ele>1758.400024414</ele>
        <time>2014-02-09T08:07:02Z</time>
      </trkpt>
      <trkpt lat="45.08956" lon="5.61312">
        <ele>1759.199951172</ele>
        <time>2014-02-09T08:07:06Z</time>
      </trkpt>
      <trkpt lat="45.08955" lon="5.61314">
        <ele>1759.800048828</ele>
        <time>2014-02-09T08:07:10Z</time>
      </trkpt>
      <trkpt lat="45.08953" lon="5.61317">
        <ele>1761.199951172</ele>
        <time>2014-02-09T08:07:16Z</time>
      </trkpt>
      <trkpt lat="45.08951" lon="5.61315">
        <ele>1761.599975586</ele>
        <time>2014-02-09T08:07:21Z</time>
      </trkpt>
      <trkpt lat="45.08948" lon="5.61313">
        <ele>1762.400024414</ele>
        <time>2014-02-09T08:07:26Z</time>
      </trkpt>
      <trkpt lat="45.08947" lon="5.61311">
        <ele>1762.599975586</ele>
        <time>2014-02-09T08:07:30Z</time>
      </trkpt>
      <trkpt lat="45.08945" lon="5.61309">
        <ele>1762.599975586</ele>
        <time>2014-02-09T08:07:36Z</time>
      </trkpt>
      <trkpt lat="45.08944" lon="5.61313">
        <ele>1764</ele>
        <time>2014-02-09T08:07:41Z</time>
      </trkpt>
      <trkpt lat="45.08945" lon="5.61316">
        <ele>1764.599975586</ele>
        <time>2014-02-09T08:07:46Z</time>
      </trkpt>
      <trkpt lat="45.08944" lon="5.6132">
        <ele>1765.400024414</ele>
        <time>2014-02-09T08:07:50Z</time>
      </trkpt>
      <trkpt lat="45.08943" lon="5.61326">
        <ele>1767.199951172</ele>
        <time>2014-02-09T08:07:57Z</time>
      </trkpt>
      <trkpt lat="45.08942" lon="5.61332">
        <ele>1768.800048828</ele>
        <time>2014-02-09T08:08:04Z</time>
      </trkpt>
      <trkpt lat="45.08942" lon="5.61335">
        <ele>1769.599975586</ele>
        <time>2014-02-09T08:08:08Z</time>
      </trkpt>
      <trkpt lat="45.08942" lon="5.61339">
        <ele>1770.400024414</ele>
        <time>2014-02-09T08:08:13Z</time>
      </trkpt>
      <trkpt lat="45.08939" lon="5.61342">
        <ele>1772</ele>
        <time>2014-02-09T08:08:17Z</time>
      </trkpt>
      <trkpt lat="45.08935" lon="5.61341">
        <ele>1773.599975586</ele>
        <time>2014-02-09T08:08:24Z</time>
      </trkpt>
      <trkpt lat="45.08931" lon="5.61341">
        <ele>1775.400024414</ele>
        <time>2014-02-09T08:08:30Z</time>
      </trkpt>
      <trkpt lat="45.08928" lon="5.61342">
        <ele>1776.800048828</ele>
        <time>2014-02-09T08:08:35Z</time>
      </trkpt>
      <trkpt lat="45.08924" lon="5.61344">
        <ele>1778.800048828</ele>
        <time>2014-02-09T08:08:42Z</time>
      </trkpt>
      <trkpt lat="45.08919" lon="5.61348">
        <ele>1781.599975586</ele>
        <time>2014-02-09T08:08:50Z</time>
      </trkpt>
      <trkpt lat="45.08916" lon="5.61353">
        <ele>1783.599975586</ele>
        <time>2014-02-09T08:08:56Z</time>
      </trkpt>
      <trkpt lat="45.08914" lon="5.61357">
        <ele>1784.800048828</ele>
        <time>2014-02-09T08:09:01Z</time>
      </trkpt>
      <trkpt lat="45.08913" lon="5.61361">
        <ele>1785.599975586</ele>
        <time>2014-02-09T08:09:06Z</time>
      </trkpt>
      <trkpt lat="45.08912" lon="5.61366">
        <ele>1786.800048828</ele>
        <time>2014-02-09T08:09:12Z</time>
      </trkpt>
      <trkpt lat="45.08911" lon="5.61371">
        <ele>1787.800048828</ele>
        <time>2014-02-09T08:09:18Z</time>
      </trkpt>
      <trkpt lat="45.0891" lon="5.61374">
        <ele>1788.599975586</ele>
        <time>2014-02-09T08:09:22Z</time>
      </trkpt>
      <trkpt lat="45.08909" lon="5.61381">
        <ele>1790</ele>
        <time>2014-02-09T08:09:30Z</time>
      </trkpt>
      <trkpt lat="45.08907" lon="5.61387">
        <ele>1791.800048828</ele>
        <time>2014-02-09T08:09:37Z</time>
      </trkpt>
      <trkpt lat="45.08905" lon="5.61393">
        <ele>1793.400024414</ele>
        <time>2014-02-09T08:09:43Z</time>
      </trkpt>
      <trkpt lat="45.08904" lon="5.614">
        <ele>1794.800048828</ele>
        <time>2014-02-09T08:09:50Z</time>
      </trkpt>
      <trkpt lat="45.08902" lon="5.61405">
        <ele>1796.199951172</ele>
        <time>2014-02-09T08:09:56Z</time>
      </trkpt>
      <trkpt lat="45.08901" lon="5.61408">
        <ele>1797.199951172</ele>
        <time>2014-02-09T08:10:00Z</time>
      </trkpt>
      <trkpt lat="45.08899" lon="5.61414">
        <ele>1798.599975586</ele>
        <time>2014-02-09T08:10:06Z</time>
      </trkpt>
      <trkpt lat="45.08897" lon="5.61419">
        <ele>1800</ele>
        <time>2014-02-09T08:10:11Z</time>
      </trkpt>
      <trkpt lat="45.08897" lon="5.61426">
        <ele>1802</ele>
        <time>2014-02-09T08:10:16Z</time>
      </trkpt>
      <trkpt lat="45.08898" lon="5.61435">
        <ele>1803.800048828</ele>
        <time>2014-02-09T08:10:21Z</time>
      </trkpt>
      <trkpt lat="45.08899" lon="5.61443">
        <ele>1805.199951172</ele>
        <time>2014-02-09T08:10:27Z</time>
      </trkpt>
      <trkpt lat="45.08901" lon="5.61448">
        <ele>1806.199951172</ele>
        <time>2014-02-09T08:10:32Z</time>
      </trkpt>
      <trkpt lat="45.08901" lon="5.61451">
        <ele>1806.800048828</ele>
        <time>2014-02-09T08:10:36Z</time>
      </trkpt>
      <trkpt lat="45.08902" lon="5.61457">
        <ele>1808</ele>
        <time>2014-02-09T08:10:41Z</time>
      </trkpt>
      <trkpt lat="45.08901" lon="5.61463">
        <ele>1809.599975586</ele>
        <time>2014-02-09T08:10:47Z</time>
      </trkpt>
      <trkpt lat="45.08901" lon="5.61468">
        <ele>1810.800048828</ele>
        <time>2014-02-09T08:10:52Z</time>
      </trkpt>
      <trkpt lat="45.08901" lon="5.61474">
        <ele>1812.400024414</ele>
        <time>2014-02-09T08:10:58Z</time>
      </trkpt>
      <trkpt lat="45.08901" lon="5.6148">
        <ele>1813.599975586</ele>
        <time>2014-02-09T08:11:02Z</time>
      </trkpt>
      <trkpt lat="45.08901" lon="5.61486">
        <ele>1815</ele>
        <time>2014-02-09T08:11:07Z</time>
      </trkpt>
      <trkpt lat="45.08901" lon="5.61491">
        <ele>1816.199951172</ele>
        <time>2014-02-09T08:11:12Z</time>
      </trkpt>
      <trkpt lat="45.08901" lon="5.61497">
        <ele>1817.400024414</ele>
        <time>2014-02-09T08:11:18Z</time>
      </trkpt>
      <trkpt lat="45.08902" lon="5.61502">
        <ele>1818.599975586</ele>
        <time>2014-02-09T08:11:23Z</time>
      </trkpt>
      <trkpt lat="45.08902" lon="5.61507">
        <ele>1819.400024414</ele>
        <time>2014-02-09T08:11:28Z</time>
      </trkpt>
      <trkpt lat="45.08903" lon="5.61512">
        <ele>1820.199951172</ele>
        <time>2014-02-09T08:11:34Z</time>
      </trkpt>
      <trkpt lat="45.08903" lon="5.61518">
        <ele>1821.400024414</ele>
        <time>2014-02-09T08:11:39Z</time>
      </trkpt>
      <trkpt lat="45.08904" lon="5.61525">
        <ele>1822.599975586</ele>
        <time>2014-02-09T08:11:45Z</time>
      </trkpt>
      <trkpt lat="45.08907" lon="5.61534">
        <ele>1824</ele>
        <time>2014-02-09T08:11:52Z</time>
      </trkpt>
      <trkpt lat="45.0891" lon="5.61542">
        <ele>1824.599975586</ele>
        <time>2014-02-09T08:11:58Z</time>
      </trkpt>
      <trkpt lat="45.08913" lon="5.61549">
        <ele>1825</ele>
        <time>2014-02-09T08:12:04Z</time>
      </trkpt>
      <trkpt lat="45.08914" lon="5.61549">
        <ele>1824.800048828</ele>
        <time>2014-02-09T08:12:05Z</time>
      </trkpt>
      <trkpt lat="45.08916" lon="5.61554">
        <ele>1825</ele>
        <time>2014-02-09T08:12:09Z</time>
      </trkpt>
      <trkpt lat="45.0892" lon="5.61559">
        <ele>1825.400024414</ele>
        <time>2014-02-09T08:12:14Z</time>
      </trkpt>
      <trkpt lat="45.08922" lon="5.61564">
        <ele>1825.800048828</ele>
        <time>2014-02-09T08:12:19Z</time>
      </trkpt>
      <trkpt lat="45.08923" lon="5.61565">
        <ele>1825.800048828</ele>
        <time>2014-02-09T08:12:21Z</time>
      </trkpt>
      <trkpt lat="45.08924" lon="5.61567">
        <ele>1826</ele>
        <time>2014-02-09T08:12:24Z</time>
      </trkpt>
      <trkpt lat="45.08926" lon="5.61571">
        <ele>1826.599975586</ele>
        <time>2014-02-09T08:12:28Z</time>
      </trkpt>
      <trkpt lat="45.08929" lon="5.61575">
        <ele>1826.800048828</ele>
        <time>2014-02-09T08:12:34Z</time>
      </trkpt>
      <trkpt lat="45.0893" lon="5.61579">
        <ele>1827.400024414</ele>
        <time>2014-02-09T08:12:39Z</time>
      </trkpt>
      <trkpt lat="45.08931" lon="5.61583">
        <ele>1828.199951172</ele>
        <time>2014-02-09T08:12:45Z</time>
      </trkpt>
      <trkpt lat="45.08932" lon="5.61589">
        <ele>1829.400024414</ele>
        <time>2014-02-09T08:12:49Z</time>
      </trkpt>
      <trkpt lat="45.08933" lon="5.61596">
        <ele>1830.800048828</ele>
        <time>2014-02-09T08:12:55Z</time>
      </trkpt>
      <trkpt lat="45.08935" lon="5.61601">
        <ele>1831.800048828</ele>
        <time>2014-02-09T08:13:00Z</time>
      </trkpt>
      <trkpt lat="45.08936" lon="5.61606">
        <ele>1832.800048828</ele>
        <time>2014-02-09T08:13:06Z</time>
      </trkpt>
      <trkpt lat="45.08937" lon="5.61612">
        <ele>1834</ele>
        <time>2014-02-09T08:13:11Z</time>
      </trkpt>
      <trkpt lat="45.08939" lon="5.61619">
        <ele>1835.400024414</ele>
        <time>2014-02-09T08:13:17Z</time>
      </trkpt>
      <trkpt lat="45.08939" lon="5.61623">
        <ele>1836</ele>
        <time>2014-02-09T08:13:21Z</time>
      </trkpt>
      <trkpt lat="45.0894" lon="5.61629">
        <ele>1837.400024414</ele>
        <time>2014-02-09T08:13:27Z</time>
      </trkpt>
      <trkpt lat="45.08941" lon="5.61634">
        <ele>1838.400024414</ele>
        <time>2014-02-09T08:13:32Z</time>
      </trkpt>
      <trkpt lat="45.08941" lon="5.61641">
        <ele>1839.800048828</ele>
        <time>2014-02-09T08:13:38Z</time>
      </trkpt>
      <trkpt lat="45.08942" lon="5.61646">
        <ele>1841</ele>
        <time>2014-02-09T08:13:44Z</time>
      </trkpt>
      <trkpt lat="45.08942" lon="5.61653">
        <ele>1842.599975586</ele>
        <time>2014-02-09T08:13:50Z</time>
      </trkpt>
      <trkpt lat="45.08944" lon="5.6166">
        <ele>1844</ele>
        <time>2014-02-09T08:13:56Z</time>
      </trkpt>
      <trkpt lat="45.08945" lon="5.61666">
        <ele>1845</ele>
        <time>2014-02-09T08:14:02Z</time>
      </trkpt>
      <trkpt lat="45.08946" lon="5.61674">
        <ele>1847.199951172</ele>
        <time>2014-02-09T08:14:09Z</time>
      </trkpt>
      <trkpt lat="45.08947" lon="5.61679">
        <ele>1848.599975586</ele>
        <time>2014-02-09T08:14:14Z</time>
      </trkpt>
      <trkpt lat="45.08948" lon="5.61682">
        <ele>1849.599975586</ele>
        <time>2014-02-09T08:14:18Z</time>
      </trkpt>
      <trkpt lat="45.08949" lon="5.61686">
        <ele>1850.800048828</ele>
        <time>2014-02-09T08:14:23Z</time>
      </trkpt>
      <trkpt lat="45.0895" lon="5.61693">
        <ele>1852.800048828</ele>
        <time>2014-02-09T08:14:30Z</time>
      </trkpt>
      <trkpt lat="45.0895" lon="5.61698">
        <ele>1854.400024414</ele>
        <time>2014-02-09T08:14:35Z</time>
      </trkpt>
      <trkpt lat="45.08948" lon="5.61702">
        <ele>1856.199951172</ele>
        <time>2014-02-09T08:14:40Z</time>
      </trkpt>
      <trkpt lat="45.08946" lon="5.61707">
        <ele>1858.199951172</ele>
        <time>2014-02-09T08:14:45Z</time>
      </trkpt>
      <trkpt lat="45.08945" lon="5.6171">
        <ele>1859.599975586</ele>
        <time>2014-02-09T08:14:50Z</time>
      </trkpt>
      <trkpt lat="45.08943" lon="5.61714">
        <ele>1861.599975586</ele>
        <time>2014-02-09T08:14:56Z</time>
      </trkpt>
      <trkpt lat="45.08941" lon="5.61716">
        <ele>1862.400024414</ele>
        <time>2014-02-09T08:15:00Z</time>
      </trkpt>
      <trkpt lat="45.08938" lon="5.6172">
        <ele>1864.599975586</ele>
        <time>2014-02-09T08:15:08Z</time>
      </trkpt>
      <trkpt lat="45.08935" lon="5.61723">
        <ele>1866</ele>
        <time>2014-02-09T08:15:13Z</time>
      </trkpt>
      <trkpt lat="45.08933" lon="5.61725">
        <ele>1867.400024414</ele>
        <time>2014-02-09T08:15:18Z</time>
      </trkpt>
      <trkpt lat="45.08931" lon="5.61727">
        <ele>1868.599975586</ele>
        <time>2014-02-09T08:15:24Z</time>
      </trkpt>
      <trkpt lat="45.08932" lon="5.61731">
        <ele>1869.599975586</ele>
        <time>2014-02-09T08:15:28Z</time>
      </trkpt>
      <trkpt lat="45.08933" lon="5.61737">
        <ele>1871.199951172</ele>
        <time>2014-02-09T08:15:34Z</time>
      </trkpt>
      <trkpt lat="45.08934" lon="5.61741">
        <ele>1872.199951172</ele>
        <time>2014-02-09T08:15:40Z</time>
      </trkpt>
      <trkpt lat="45.08936" lon="5.61745">
        <ele>1873</ele>
        <time>2014-02-09T08:15:44Z</time>
      </trkpt>
      <trkpt lat="45.08938" lon="5.6175">
        <ele>1874.400024414</ele>
        <time>2014-02-09T08:15:50Z</time>
      </trkpt>
      <trkpt lat="45.08941" lon="5.61755">
        <ele>1875.599975586</ele>
        <time>2014-02-09T08:15:57Z</time>
      </trkpt>
      <trkpt lat="45.08943" lon="5.61759">
        <ele>1876.400024414</ele>
        <time>2014-02-09T08:16:02Z</time>
      </trkpt>
      <trkpt lat="45.08943" lon="5.61762">
        <ele>1877.400024414</ele>
        <time>2014-02-09T08:16:08Z</time>
      </trkpt>
      <trkpt lat="45.0894" lon="5.61765">
        <ele>1879</ele>
        <time>2014-02-09T08:16:13Z</time>
      </trkpt>
      <trkpt lat="45.08936" lon="5.61767">
        <ele>1880.800048828</ele>
        <time>2014-02-09T08:16:20Z</time>
      </trkpt>
      <trkpt lat="45.08934" lon="5.61769">
        <ele>1881.599975586</ele>
        <time>2014-02-09T08:16:24Z</time>
      </trkpt>
      <trkpt lat="45.08932" lon="5.6177">
        <ele>1882.599975586</ele>
        <time>2014-02-09T08:16:28Z</time>
      </trkpt>
      <trkpt lat="45.0893" lon="5.61772">
        <ele>1883.599975586</ele>
        <time>2014-02-09T08:16:32Z</time>
      </trkpt>
      <trkpt lat="45.08928" lon="5.61775">
        <ele>1885</ele>
        <time>2014-02-09T08:16:37Z</time>
      </trkpt>
      <trkpt lat="45.08926" lon="5.61777">
        <ele>1886</ele>
        <time>2014-02-09T08:16:42Z</time>
      </trkpt>
      <trkpt lat="45.08923" lon="5.61779">
        <ele>1887.599975586</ele>
        <time>2014-02-09T08:16:47Z</time>
      </trkpt>
      <trkpt lat="45.0892" lon="5.61783">
        <ele>1889.199951172</ele>
        <time>2014-02-09T08:16:54Z</time>
      </trkpt>
      <trkpt lat="45.08919" lon="5.61785">
        <ele>1890.199951172</ele>
        <time>2014-02-09T08:16:58Z</time>
      </trkpt>
      <trkpt lat="45.08916" lon="5.61788">
        <ele>1891.599975586</ele>
        <time>2014-02-09T08:17:04Z</time>
      </trkpt>
      <trkpt lat="45.08915" lon="5.61789">
        <ele>1892.599975586</ele>
        <time>2014-02-09T08:17:08Z</time>
      </trkpt>
      <trkpt lat="45.08914" lon="5.61792">
        <ele>1893.599975586</ele>
        <time>2014-02-09T08:17:12Z</time>
      </trkpt>
      <trkpt lat="45.08914" lon="5.61796">
        <ele>1894.599975586</ele>
        <time>2014-02-09T08:17:17Z</time>
      </trkpt>
      <trkpt lat="45.08916" lon="5.618">
        <ele>1896</ele>
        <time>2014-02-09T08:17:22Z</time>
      </trkpt>
      <trkpt lat="45.08916" lon="5.61805">
        <ele>1897.599975586</ele>
        <time>2014-02-09T08:17:28Z</time>
      </trkpt>
      <trkpt lat="45.08918" lon="5.61811">
        <ele>1899.199951172</ele>
        <time>2014-02-09T08:17:35Z</time>
      </trkpt>
      <trkpt lat="45.08919" lon="5.61816">
        <ele>1900.599975586</ele>
        <time>2014-02-09T08:17:40Z</time>
      </trkpt>
      <trkpt lat="45.0892" lon="5.61821">
        <ele>1902.199951172</ele>
        <time>2014-02-09T08:17:46Z</time>
      </trkpt>
      <trkpt lat="45.08922" lon="5.61826">
        <ele>1903.599975586</ele>
        <time>2014-02-09T08:17:51Z</time>
      </trkpt>
      <trkpt lat="45.08923" lon="5.61831">
        <ele>1904.800048828</ele>
        <time>2014-02-09T08:17:56Z</time>
      </trkpt>
      <trkpt lat="45.08925" lon="5.61836">
        <ele>1906</ele>
        <time>2014-02-09T08:18:01Z</time>
      </trkpt>
      <trkpt lat="45.08928" lon="5.61843">
        <ele>1907</ele>
        <time>2014-02-09T08:18:08Z</time>
      </trkpt>
      <trkpt lat="45.0893" lon="5.61847">
        <ele>1907.400024414</ele>
        <time>2014-02-09T08:18:13Z</time>
      </trkpt>
      <trkpt lat="45.08932" lon="5.61852">
        <ele>1908.400024414</ele>
        <time>2014-02-09T08:18:19Z</time>
      </trkpt>
      <trkpt lat="45.08934" lon="5.61858">
        <ele>1909.400024414</ele>
        <time>2014-02-09T08:18:26Z</time>
      </trkpt>
      <trkpt lat="45.08933" lon="5.61865">
        <ele>1911.199951172</ele>
        <time>2014-02-09T08:18:34Z</time>
      </trkpt>
      <trkpt lat="45.08932" lon="5.6187">
        <ele>1912.599975586</ele>
        <time>2014-02-09T08:18:40Z</time>
      </trkpt>
      <trkpt lat="45.08931" lon="5.61875">
        <ele>1913.599975586</ele>
        <time>2014-02-09T08:18:45Z</time>
      </trkpt>
      <trkpt lat="45.08931" lon="5.6188">
        <ele>1915</ele>
        <time>2014-02-09T08:18:50Z</time>
      </trkpt>
      <trkpt lat="45.0893" lon="5.61885">
        <ele>1916</ele>
        <time>2014-02-09T08:18:56Z</time>
      </trkpt>
      <trkpt lat="45.08929" lon="5.6189">
        <ele>1917.199951172</ele>
        <time>2014-02-09T08:19:01Z</time>
      </trkpt>
      <trkpt lat="45.08928" lon="5.61897">
        <ele>1918.800048828</ele>
        <time>2014-02-09T08:19:08Z</time>
      </trkpt>
      <trkpt lat="45.08928" lon="5.61904">
        <ele>1920.400024414</ele>
        <time>2014-02-09T08:19:15Z</time>
      </trkpt>
      <trkpt lat="45.08928" lon="5.61907">
        <ele>1921</ele>
        <time>2014-02-09T08:19:19Z</time>
      </trkpt>
      <trkpt lat="45.0893" lon="5.61913">
        <ele>1922.400024414</ele>
        <time>2014-02-09T08:19:28Z</time>
      </trkpt>
      <trkpt lat="45.08932" lon="5.61916">
        <ele>1923</ele>
        <time>2014-02-09T08:19:32Z</time>
      </trkpt>
      <trkpt lat="45.08934" lon="5.61916">
        <ele>1923.199951172</ele>
        <time>2014-02-09T08:19:36Z</time>
      </trkpt>
      <trkpt lat="45.08936" lon="5.61915">
        <ele>1922.800048828</ele>
        <time>2014-02-09T08:19:41Z</time>
      </trkpt>
      <trkpt lat="45.08938" lon="5.61913">
        <ele>1922.400024414</ele>
        <time>2014-02-09T08:19:45Z</time>
      </trkpt>
      <trkpt lat="45.0894" lon="5.61913">
        <ele>1922.199951172</ele>
        <time>2014-02-09T08:19:49Z</time>
      </trkpt>
      <trkpt lat="45.08942" lon="5.61912">
        <ele>1922.199951172</ele>
        <time>2014-02-09T08:19:53Z</time>
      </trkpt>
      <trkpt lat="45.08945" lon="5.61913">
        <ele>1922.400024414</ele>
        <time>2014-02-09T08:19:57Z</time>
      </trkpt>
      <trkpt lat="45.08946" lon="5.61913">
        <ele>1922.400024414</ele>
        <time>2014-02-09T08:20:00Z</time>
      </trkpt>
      <trkpt lat="45.08948" lon="5.61915">
        <ele>1923</ele>
        <time>2014-02-09T08:20:04Z</time>
      </trkpt>
      <trkpt lat="45.08952" lon="5.61918">
        <ele>1923</ele>
        <time>2014-02-09T08:20:11Z</time>
      </trkpt>
      <trkpt lat="45.08954" lon="5.61921">
        <ele>1922.199951172</ele>
        <time>2014-02-09T08:20:15Z</time>
      </trkpt>
      <trkpt lat="45.08957" lon="5.61923">
        <ele>1921.800048828</ele>
        <time>2014-02-09T08:20:20Z</time>
      </trkpt>
      <trkpt lat="45.0896" lon="5.61927">
        <ele>1921.199951172</ele>
        <time>2014-02-09T08:20:27Z</time>
      </trkpt>
      <trkpt lat="45.08962" lon="5.6193">
        <ele>1921</ele>
        <time>2014-02-09T08:20:31Z</time>
      </trkpt>
      <trkpt lat="45.08964" lon="5.61934">
        <ele>1920.599975586</ele>
        <time>2014-02-09T08:20:35Z</time>
      </trkpt>
      <trkpt lat="45.08966" lon="5.61938">
        <ele>1920.400024414</ele>
        <time>2014-02-09T08:20:40Z</time>
      </trkpt>
      <trkpt lat="45.08968" lon="5.61944">
        <ele>1920.199951172</ele>
        <time>2014-02-09T08:20:47Z</time>
      </trkpt>
      <trkpt lat="45.08969" lon="5.61948">
        <ele>1920.400024414</ele>
        <time>2014-02-09T08:20:52Z</time>
      </trkpt>
      <trkpt lat="45.08971" lon="5.6195">
        <ele>1921</ele>
        <time>2014-02-09T08:20:56Z</time>
      </trkpt>
      <trkpt lat="45.08974" lon="5.61953">
        <ele>1921.800048828</ele>
        <time>2014-02-09T08:21:00Z</time>
      </trkpt>
      <trkpt lat="45.08977" lon="5.61955">
        <ele>1923.199951172</ele>
        <time>2014-02-09T08:21:06Z</time>
      </trkpt>
      <trkpt lat="45.0898" lon="5.61958">
        <ele>1924.599975586</ele>
        <time>2014-02-09T08:21:11Z</time>
      </trkpt>
      <trkpt lat="45.08982" lon="5.61961">
        <ele>1925.800048828</ele>
        <time>2014-02-09T08:21:16Z</time>
      </trkpt>
      <trkpt lat="45.08985" lon="5.61964">
        <ele>1927.599975586</ele>
        <time>2014-02-09T08:21:21Z</time>
      </trkpt>
      <trkpt lat="45.08988" lon="5.61966">
        <ele>1929.800048828</ele>
        <time>2014-02-09T08:21:26Z</time>
      </trkpt>
      <trkpt lat="45.08993" lon="5.61968">
        <ele>1932.800048828</ele>
        <time>2014-02-09T08:21:32Z</time>
      </trkpt>
      <trkpt lat="45.08994" lon="5.61969">
        <ele>1934.199951172</ele>
        <time>2014-02-09T08:21:37Z</time>
      </trkpt>
      <trkpt lat="45.08997" lon="5.61971">
        <ele>1936.400024414</ele>
        <time>2014-02-09T08:21:42Z</time>
      </trkpt>
      <trkpt lat="45.09" lon="5.61974">
        <ele>1939</ele>
        <time>2014-02-09T08:21:47Z</time>
      </trkpt>
      <trkpt lat="45.09003" lon="5.61977">
        <ele>1939.199951172</ele>
        <time>2014-02-09T08:21:53Z</time>
      </trkpt>
      <trkpt lat="45.09007" lon="5.61981">
        <ele>1939</ele>
        <time>2014-02-09T08:22:00Z</time>
      </trkpt>
      <trkpt lat="45.09009" lon="5.61983">
        <ele>1939</ele>
        <time>2014-02-09T08:22:04Z</time>
      </trkpt>
      <trkpt lat="45.0901" lon="5.61985">
        <ele>1939.199951172</ele>
        <time>2014-02-09T08:22:08Z</time>
      </trkpt>
      <trkpt lat="45.09013" lon="5.61989">
        <ele>1939.800048828</ele>
        <time>2014-02-09T08:22:12Z</time>
      </trkpt>
      <trkpt lat="45.09015" lon="5.61993">
        <ele>1940.400024414</ele>
        <time>2014-02-09T08:22:17Z</time>
      </trkpt>
      <trkpt lat="45.09018" lon="5.61998">
        <ele>1941</ele>
        <time>2014-02-09T08:22:23Z</time>
      </trkpt>
      <trkpt lat="45.09018" lon="5.62002">
        <ele>1941</ele>
        <time>2014-02-09T08:22:28Z</time>
      </trkpt>
      <trkpt lat="45.09017" lon="5.62005">
        <ele>1940.800048828</ele>
        <time>2014-02-09T08:22:32Z</time>
      </trkpt>
      <trkpt lat="45.09014" lon="5.62006">
        <ele>1941.199951172</ele>
        <time>2014-02-09T08:22:38Z</time>
      </trkpt>
      <trkpt lat="45.09015" lon="5.62008">
        <ele>1940.599975586</ele>
        <time>2014-02-09T08:22:45Z</time>
      </trkpt>
      <trkpt lat="45.09015" lon="5.62008">
        <ele>1940.400024414</ele>
        <time>2014-02-09T08:22:47Z</time>
      </trkpt>
      <trkpt lat="45.09015" lon="5.62009">
        <ele>1940.400024414</ele>
        <time>2014-02-09T08:22:48Z</time>
      </trkpt>
      <trkpt lat="45.09015" lon="5.62008">
        <ele>1940.400024414</ele>
        <time>2014-02-09T08:22:49Z</time>
      </trkpt>
      <trkpt lat="45.09015" lon="5.62009">
        <ele>1940.400024414</ele>
        <time>2014-02-09T08:22:50Z</time>
      </trkpt>
      <trkpt lat="45.09015" lon="5.62009">
        <ele>1940.400024414</ele>
        <time>2014-02-09T08:22:56Z</time>
      </trkpt>
      <trkpt lat="45.09015" lon="5.62009">
        <ele>1940.199951172</ele>
        <time>2014-02-09T08:22:57Z</time>
      </trkpt>
      <trkpt lat="45.09015" lon="5.6201">
        <ele>1940.199951172</ele>
        <time>2014-02-09T08:23:03Z</time>
      </trkpt>
      <trkpt lat="45.09015" lon="5.6201">
        <ele>1940.199951172</ele>
        <time>2014-02-09T08:23:10Z</time>
      </trkpt>
      <trkpt lat="45.09015" lon="5.6201">
        <ele>1940.199951172</ele>
        <time>2014-02-09T08:23:14Z</time>
      </trkpt>
      <trkpt lat="45.09015" lon="5.6201">
        <ele>1940.199951172</ele>
        <time>2014-02-09T08:23:16Z</time>
      </trkpt>
      <trkpt lat="45.09017" lon="5.62011">
        <ele>1939.599975586</ele>
        <time>2014-02-09T08:23:25Z</time>
      </trkpt>
      <trkpt lat="45.09016" lon="5.62012">
        <ele>1939.599975586</ele>
        <time>2014-02-09T08:23:32Z</time>
      </trkpt>
      <trkpt lat="45.09016" lon="5.62012">
        <ele>1939.599975586</ele>
        <time>2014-02-09T08:23:33Z</time>
      </trkpt>
      <trkpt lat="45.09016" lon="5.62011">
        <ele>1939.599975586</ele>
        <time>2014-02-09T08:23:34Z</time>
      </trkpt>
      <trkpt lat="45.09016" lon="5.62013">
        <ele>1939.400024414</ele>
        <time>2014-02-09T08:23:42Z</time>
      </trkpt>
      <trkpt lat="45.09016" lon="5.62015">
        <ele>1939</ele>
        <time>2014-02-09T08:23:55Z</time>
      </trkpt>
      <trkpt lat="45.09015" lon="5.62016">
        <ele>1938.800048828</ele>
        <time>2014-02-09T08:24:09Z</time>
      </trkpt>
      <trkpt lat="45.09015" lon="5.62017">
        <ele>1938.800048828</ele>
        <time>2014-02-09T08:24:10Z</time>
      </trkpt>
      <trkpt lat="45.09015" lon="5.62017">
        <ele>1938.800048828</ele>
        <time>2014-02-09T08:24:12Z</time>
      </trkpt>
      <trkpt lat="45.09015" lon="5.62018">
        <ele>1938.599975586</ele>
        <time>2014-02-09T08:24:24Z</time>
      </trkpt>
      <trkpt lat="45.09015" lon="5.62018">
        <ele>1938.599975586</ele>
        <time>2014-02-09T08:24:26Z</time>
      </trkpt>
      <trkpt lat="45.09015" lon="5.62018">
        <ele>1938.599975586</ele>
        <time>2014-02-09T08:24:29Z</time>
      </trkpt>
      <trkpt lat="45.09016" lon="5.62016">
        <ele>1938.800048828</ele>
        <time>2014-02-09T08:24:37Z</time>
      </trkpt>
      <trkpt lat="45.09015" lon="5.62016">
        <ele>1938.800048828</ele>
        <time>2014-02-09T08:24:41Z</time>
      </trkpt>
      <trkpt lat="45.09015" lon="5.62016">
        <ele>1939</ele>
        <time>2014-02-09T08:24:43Z</time>
      </trkpt>
      <trkpt lat="45.09015" lon="5.62014">
        <ele>1939.199951172</ele>
        <time>2014-02-09T08:24:49Z</time>
      </trkpt>
      <trkpt lat="45.09016" lon="5.62014">
        <ele>1939</ele>
        <time>2014-02-09T08:24:54Z</time>
      </trkpt>
      <trkpt lat="45.09016" lon="5.62015">
        <ele>1938.800048828</ele>
        <time>2014-02-09T08:25:01Z</time>
      </trkpt>
      <trkpt lat="45.09016" lon="5.62015">
        <ele>1939</ele>
        <time>2014-02-09T08:25:05Z</time>
      </trkpt>
      <trkpt lat="45.09016" lon="5.62015">
        <ele>1939</ele>
        <time>2014-02-09T08:25:09Z</time>
      </trkpt>
      <trkpt lat="45.09015" lon="5.62013">
        <ele>1939.400024414</ele>
        <time>2014-02-09T08:25:25Z</time>
      </trkpt>
      <trkpt lat="45.09015" lon="5.62013">
        <ele>1939.599975586</ele>
        <time>2014-02-09T08:25:29Z</time>
      </trkpt>
      <trkpt lat="45.09016" lon="5.62013">
        <ele>1939.199951172</ele>
        <time>2014-02-09T08:25:34Z</time>
      </trkpt>
      <trkpt lat="45.09016" lon="5.62012">
        <ele>1939.599975586</ele>
        <time>2014-02-09T08:25:53Z</time>
      </trkpt>
      <trkpt lat="45.09016" lon="5.62012">
        <ele>1939.599975586</ele>
        <time>2014-02-09T08:25:57Z</time>
      </trkpt>
      <trkpt lat="45.09016" lon="5.62012">
        <ele>1939.599975586</ele>
        <time>2014-02-09T08:25:59Z</time>
      </trkpt>
      <trkpt lat="45.09016" lon="5.62012">
        <ele>1939.400024414</ele>
        <time>2014-02-09T08:26:06Z</time>
      </trkpt>
      <trkpt lat="45.09016" lon="5.62014">
        <ele>1939.199951172</ele>
        <time>2014-02-09T08:26:14Z</time>
      </trkpt>
      <trkpt lat="45.09016" lon="5.62013">
        <ele>1939.199951172</ele>
        <time>2014-02-09T08:26:20Z</time>
      </trkpt>
      <trkpt lat="45.09016" lon="5.62014">
        <ele>1939.199951172</ele>
        <time>2014-02-09T08:26:22Z</time>
      </trkpt>
      <trkpt lat="45.09016" lon="5.62013">
        <ele>1939.199951172</ele>
        <time>2014-02-09T08:26:23Z</time>
      </trkpt>
      <trkpt lat="45.09016" lon="5.62014">
        <ele>1939.199951172</ele>
        <time>2014-02-09T08:26:28Z</time>
      </trkpt>
      <trkpt lat="45.09016" lon="5.62014">
        <ele>1939</ele>
        <time>2014-02-09T08:26:34Z</time>
      </trkpt>
      <trkpt lat="45.09016" lon="5.62015">
        <ele>1939</ele>
        <time>2014-02-09T08:26:39Z</time>
      </trkpt>
      <trkpt lat="45.09016" lon="5.62015">
        <ele>1938.800048828</ele>
        <time>2014-02-09T08:26:53Z</time>
      </trkpt>
      <trkpt lat="45.09017" lon="5.62015">
        <ele>1938.800048828</ele>
        <time>2014-02-09T08:26:56Z</time>
      </trkpt>
      <trkpt lat="45.09017" lon="5.62015">
        <ele>1938.800048828</ele>
        <time>2014-02-09T08:26:58Z</time>
      </trkpt>
      <trkpt lat="45.09017" lon="5.62015">
        <ele>1938.800048828</ele>
        <time>2014-02-09T08:27:01Z</time>
      </trkpt>
      <trkpt lat="45.09017" lon="5.62014">
        <ele>1938.800048828</ele>
        <time>2014-02-09T08:27:04Z</time>
      </trkpt>
      <trkpt lat="45.09017" lon="5.62014">
        <ele>1938.800048828</ele>
        <time>2014-02-09T08:27:07Z</time>
      </trkpt>
      <trkpt lat="45.09016" lon="5.62014">
        <ele>1939</ele>
        <time>2014-02-09T08:27:19Z</time>
      </trkpt>
      <trkpt lat="45.09016" lon="5.62014">
        <ele>1939</ele>
        <time>2014-02-09T08:27:22Z</time>
      </trkpt>
      <trkpt lat="45.09015" lon="5.62013">
        <ele>1939.400024414</ele>
        <time>2014-02-09T08:27:57Z</time>
      </trkpt>
      <trkpt lat="45.09015" lon="5.62013">
        <ele>1939.400024414</ele>
        <time>2014-02-09T08:28:05Z</time>
      </trkpt>
      <trkpt lat="45.09014" lon="5.62012">
        <ele>1939.800048828</ele>
        <time>2014-02-09T08:28:22Z</time>
      </trkpt>
      <trkpt lat="45.09014" lon="5.62012">
        <ele>1939.800048828</ele>
        <time>2014-02-09T08:28:24Z</time>
      </trkpt>
      <trkpt lat="45.09014" lon="5.62012">
        <ele>1939.800048828</ele>
        <time>2014-02-09T08:28:26Z</time>
      </trkpt>
      <trkpt lat="45.09015" lon="5.62012">
        <ele>1939.800048828</ele>
        <time>2014-02-09T08:28:31Z</time>
      </trkpt>
      <trkpt lat="45.09015" lon="5.62012">
        <ele>1939.800048828</ele>
        <time>2014-02-09T08:28:33Z</time>
      </trkpt>
      <trkpt lat="45.09014" lon="5.62012">
        <ele>1939.800048828</ele>
        <time>2014-02-09T08:28:53Z</time>
      </trkpt>
      <trkpt lat="45.09015" lon="5.62013">
        <ele>1939.599975586</ele>
        <time>2014-02-09T08:29:04Z</time>
      </trkpt>
      <trkpt lat="45.09015" lon="5.62013">
        <ele>1939.599975586</ele>
        <time>2014-02-09T08:29:06Z</time>
      </trkpt>
      <trkpt lat="45.09014" lon="5.62013">
        <ele>1939.599975586</ele>
        <time>2014-02-09T08:29:08Z</time>
      </trkpt>
      <trkpt lat="45.09014" lon="5.62013">
        <ele>1939.800048828</ele>
        <time>2014-02-09T08:29:10Z</time>
      </trkpt>
      <trkpt lat="45.09015" lon="5.62012">
        <ele>1939.800048828</ele>
        <time>2014-02-09T08:29:12Z</time>
      </trkpt>
      <trkpt lat="45.09015" lon="5.62013">
        <ele>1939.599975586</ele>
        <time>2014-02-09T08:29:13Z</time>
      </trkpt>
      <trkpt lat="45.09014" lon="5.62013">
        <ele>1939.599975586</ele>
        <time>2014-02-09T08:29:16Z</time>
      </trkpt>
      <trkpt lat="45.09014" lon="5.62013">
        <ele>1939.599975586</ele>
        <time>2014-02-09T08:29:27Z</time>
      </trkpt>
      <trkpt lat="45.09015" lon="5.62014">
        <ele>1939.400024414</ele>
        <time>2014-02-09T08:29:32Z</time>
      </trkpt>
      <trkpt lat="45.09015" lon="5.62014">
        <ele>1939.199951172</ele>
        <time>2014-02-09T08:29:33Z</time>
      </trkpt>
      <trkpt lat="45.09015" lon="5.62014">
        <ele>1939.400024414</ele>
        <time>2014-02-09T08:29:34Z</time>
      </trkpt>
      <trkpt lat="45.09015" lon="5.62014">
        <ele>1939.199951172</ele>
        <time>2014-02-09T08:29:39Z</time>
      </trkpt>
      <trkpt lat="45.09015" lon="5.62014">
        <ele>1939.199951172</ele>
        <time>2014-02-09T08:29:44Z</time>
      </trkpt>
      <trkpt lat="45.09015" lon="5.62014">
        <ele>1939.199951172</ele>
        <time>2014-02-09T08:29:50Z</time>
      </trkpt>
      <trkpt lat="45.09015" lon="5.62013">
        <ele>1939.599975586</ele>
        <time>2014-02-09T08:29:57Z</time>
      </trkpt>
      <trkpt lat="45.09015" lon="5.62012">
        <ele>1939.599975586</ele>
        <time>2014-02-09T08:29:59Z</time>
      </trkpt>
      <trkpt lat="45.09015" lon="5.62011">
        <ele>1940</ele>
        <time>2014-02-09T08:30:03Z</time>
      </trkpt>
      <trkpt lat="45.09016" lon="5.62011">
        <ele>1939.599975586</ele>
        <time>2014-02-09T08:30:05Z</time>
      </trkpt>
      <trkpt lat="45.09017" lon="5.6201">
        <ele>1939.800048828</ele>
        <time>2014-02-09T08:30:08Z</time>
      </trkpt>
      <trkpt lat="45.09017" lon="5.62007">
        <ele>1940.199951172</ele>
        <time>2014-02-09T08:30:10Z</time>
      </trkpt>
      <trkpt lat="45.09014" lon="5.62005">
        <ele>1941.199951172</ele>
        <time>2014-02-09T08:30:12Z</time>
      </trkpt>
      <trkpt lat="45.09012" lon="5.62004">
        <ele>1942</ele>
        <time>2014-02-09T08:30:14Z</time>
      </trkpt>
      <trkpt lat="45.09008" lon="5.61999">
        <ele>1943.800048828</ele>
        <time>2014-02-09T08:30:18Z</time>
      </trkpt>
      <trkpt lat="45.09003" lon="5.61994">
        <ele>1943.599975586</ele>
        <time>2014-02-09T08:30:22Z</time>
      </trkpt>
      <trkpt lat="45.08998" lon="5.61989">
        <ele>1941.800048828</ele>
        <time>2014-02-09T08:30:24Z</time>
      </trkpt>
      <trkpt lat="45.08996" lon="5.61988">
        <ele>1939.599975586</ele>
        <time>2014-02-09T08:30:25Z</time>
      </trkpt>
      <trkpt lat="45.08986" lon="5.61984">
        <ele>1930.599975586</ele>
        <time>2014-02-09T08:30:30Z</time>
      </trkpt>
      <trkpt lat="45.08978" lon="5.61982">
        <ele>1923.400024414</ele>
        <time>2014-02-09T08:30:34Z</time>
      </trkpt>
      <trkpt lat="45.08971" lon="5.61976">
        <ele>1918.400024414</ele>
        <time>2014-02-09T08:30:37Z</time>
      </trkpt>
      <trkpt lat="45.08969" lon="5.61965">
        <ele>1918.199951172</ele>
        <time>2014-02-09T08:30:40Z</time>
      </trkpt>
      <trkpt lat="45.08964" lon="5.61954">
        <ele>1917</ele>
        <time>2014-02-09T08:30:42Z</time>
      </trkpt>
      <trkpt lat="45.08969" lon="5.6195">
        <ele>1919.800048828</ele>
        <time>2014-02-09T08:30:43Z</time>
      </trkpt>
      <trkpt lat="45.08971" lon="5.61948">
        <ele>1920.800048828</ele>
        <time>2014-02-09T08:30:44Z</time>
      </trkpt>
      <trkpt lat="45.08967" lon="5.61942">
        <ele>1920.199951172</ele>
        <time>2014-02-09T08:30:47Z</time>
      </trkpt>
      <trkpt lat="45.08963" lon="5.61932">
        <ele>1920.599975586</ele>
        <time>2014-02-09T08:30:50Z</time>
      </trkpt>
      <trkpt lat="45.08971" lon="5.61928">
        <ele>1922.800048828</ele>
        <time>2014-02-09T08:30:53Z</time>
      </trkpt>
      <trkpt lat="45.08974" lon="5.61924">
        <ele>1923.400024414</ele>
        <time>2014-02-09T08:30:54Z</time>
      </trkpt>
      <trkpt lat="45.08976" lon="5.61921">
        <ele>1923.599975586</ele>
        <time>2014-02-09T08:30:56Z</time>
      </trkpt>
      <trkpt lat="45.08974" lon="5.61917">
        <ele>1923.599975586</ele>
        <time>2014-02-09T08:30:57Z</time>
      </trkpt>
      <trkpt lat="45.08971" lon="5.6191">
        <ele>1921.599975586</ele>
        <time>2014-02-09T08:30:59Z</time>
      </trkpt>
      <trkpt lat="45.0897" lon="5.61897">
        <ele>1917.199951172</ele>
        <time>2014-02-09T08:31:02Z</time>
      </trkpt>
      <trkpt lat="45.08971" lon="5.61891">
        <ele>1915.400024414</ele>
        <time>2014-02-09T08:31:03Z</time>
      </trkpt>
      <trkpt lat="45.08975" lon="5.61886">
        <ele>1913.599975586</ele>
        <time>2014-02-09T08:31:05Z</time>
      </trkpt>
      <trkpt lat="45.08969" lon="5.61879">
        <ele>1911.599975586</ele>
        <time>2014-02-09T08:31:07Z</time>
      </trkpt>
      <trkpt lat="45.08972" lon="5.6187">
        <ele>1908.400024414</ele>
        <time>2014-02-09T08:31:09Z</time>
      </trkpt>
      <trkpt lat="45.08966" lon="5.61864">
        <ele>1907.199951172</ele>
        <time>2014-02-09T08:31:12Z</time>
      </trkpt>
      <trkpt lat="45.08963" lon="5.6186">
        <ele>1906.199951172</ele>
        <time>2014-02-09T08:31:16Z</time>
      </trkpt>
      <trkpt lat="45.08962" lon="5.61858">
        <ele>1905.800048828</ele>
        <time>2014-02-09T08:31:17Z</time>
      </trkpt>
      <trkpt lat="45.08958" lon="5.61857">
        <ele>1905.800048828</ele>
        <time>2014-02-09T08:31:19Z</time>
      </trkpt>
      <trkpt lat="45.08954" lon="5.6185">
        <ele>1904.599975586</ele>
        <time>2014-02-09T08:31:22Z</time>
      </trkpt>
      <trkpt lat="45.08959" lon="5.61839">
        <ele>1900.599975586</ele>
        <time>2014-02-09T08:31:25Z</time>
      </trkpt>
      <trkpt lat="45.08952" lon="5.61838">
        <ele>1901.400024414</ele>
        <time>2014-02-09T08:31:27Z</time>
      </trkpt>
      <trkpt lat="45.0895" lon="5.61839">
        <ele>1902.199951172</ele>
        <time>2014-02-09T08:31:28Z</time>
      </trkpt>
      <trkpt lat="45.08941" lon="5.61845">
        <ele>1905.199951172</ele>
        <time>2014-02-09T08:31:31Z</time>
      </trkpt>
      <trkpt lat="45.08936" lon="5.61847">
        <ele>1906.599975586</ele>
        <time>2014-02-09T08:31:33Z</time>
      </trkpt>
      <trkpt lat="45.08923" lon="5.6184">
        <ele>1907</ele>
        <time>2014-02-09T08:31:37Z</time>
      </trkpt>
      <trkpt lat="45.08923" lon="5.61832">
        <ele>1905.400024414</ele>
        <time>2014-02-09T08:31:39Z</time>
      </trkpt>
      <trkpt lat="45.08922" lon="5.61824">
        <ele>1903</ele>
        <time>2014-02-09T08:31:40Z</time>
      </trkpt>
      <trkpt lat="45.08925" lon="5.61819">
        <ele>1900.599975586</ele>
        <time>2014-02-09T08:31:41Z</time>
      </trkpt>
      <trkpt lat="45.08927" lon="5.61813">
        <ele>1898.199951172</ele>
        <time>2014-02-09T08:31:43Z</time>
      </trkpt>
      <trkpt lat="45.0893" lon="5.61803">
        <ele>1894.199951172</ele>
        <time>2014-02-09T08:31:45Z</time>
      </trkpt>
      <trkpt lat="45.08929" lon="5.61798">
        <ele>1892.800048828</ele>
        <time>2014-02-09T08:31:46Z</time>
      </trkpt>
      <trkpt lat="45.08931" lon="5.61785">
        <ele>1888</ele>
        <time>2014-02-09T08:31:49Z</time>
      </trkpt>
      <trkpt lat="45.08933" lon="5.61783">
        <ele>1886.800048828</ele>
        <time>2014-02-09T08:31:50Z</time>
      </trkpt>
      <trkpt lat="45.08933" lon="5.61779">
        <ele>1885.400024414</ele>
        <time>2014-02-09T08:31:51Z</time>
      </trkpt>
      <trkpt lat="45.08931" lon="5.61775">
        <ele>1884.599975586</ele>
        <time>2014-02-09T08:31:52Z</time>
      </trkpt>
      <trkpt lat="45.08923" lon="5.61762">
        <ele>1881.599975586</ele>
        <time>2014-02-09T08:31:55Z</time>
      </trkpt>
      <trkpt lat="45.0893" lon="5.61759">
        <ele>1879.199951172</ele>
        <time>2014-02-09T08:31:56Z</time>
      </trkpt>
      <trkpt lat="45.08936" lon="5.61759">
        <ele>1878</ele>
        <time>2014-02-09T08:31:57Z</time>
      </trkpt>
      <trkpt lat="45.08935" lon="5.61749">
        <ele>1874.800048828</ele>
        <time>2014-02-09T08:31:59Z</time>
      </trkpt>
      <trkpt lat="45.0893" lon="5.61747">
        <ele>1875.199951172</ele>
        <time>2014-02-09T08:32:00Z</time>
      </trkpt>
      <trkpt lat="45.08931" lon="5.61731">
        <ele>1869.800048828</ele>
        <time>2014-02-09T08:32:03Z</time>
      </trkpt>
      <trkpt lat="45.08942" lon="5.61733">
        <ele>1868</ele>
        <time>2014-02-09T08:32:05Z</time>
      </trkpt>
      <trkpt lat="45.08945" lon="5.61732">
        <ele>1867</ele>
        <time>2014-02-09T08:32:06Z</time>
      </trkpt>
      <trkpt lat="45.08941" lon="5.61726">
        <ele>1865.800048828</ele>
        <time>2014-02-09T08:32:07Z</time>
      </trkpt>
      <trkpt lat="45.08942" lon="5.6172">
        <ele>1863.599975586</ele>
        <time>2014-02-09T08:32:08Z</time>
      </trkpt>
      <trkpt lat="45.08944" lon="5.61703">
        <ele>1857.599975586</ele>
        <time>2014-02-09T08:32:11Z</time>
      </trkpt>
      <trkpt lat="45.08943" lon="5.61696">
        <ele>1855.400024414</ele>
        <time>2014-02-09T08:32:12Z</time>
      </trkpt>
      <trkpt lat="45.08944" lon="5.61682">
        <ele>1850.599975586</ele>
        <time>2014-02-09T08:32:15Z</time>
      </trkpt>
      <trkpt lat="45.08948" lon="5.6167">
        <ele>1845.599975586</ele>
        <time>2014-02-09T08:32:18Z</time>
      </trkpt>
      <trkpt lat="45.08953" lon="5.61664">
        <ele>1842.800048828</ele>
        <time>2014-02-09T08:32:21Z</time>
      </trkpt>
      <trkpt lat="45.08954" lon="5.61666">
        <ele>1842.800048828</ele>
        <time>2014-02-09T08:32:22Z</time>
      </trkpt>
      <trkpt lat="45.08955" lon="5.61667">
        <ele>1843</ele>
        <time>2014-02-09T08:32:24Z</time>
      </trkpt>
      <trkpt lat="45.08955" lon="5.61668">
        <ele>1843.199951172</ele>
        <time>2014-02-09T08:32:25Z</time>
      </trkpt>
      <trkpt lat="45.08957" lon="5.61653">
        <ele>1839.199951172</ele>
        <time>2014-02-09T08:32:33Z</time>
      </trkpt>
      <trkpt lat="45.08956" lon="5.6164">
        <ele>1836.400024414</ele>
        <time>2014-02-09T08:32:35Z</time>
      </trkpt>
      <trkpt lat="45.08957" lon="5.61633">
        <ele>1834.800048828</ele>
        <time>2014-02-09T08:32:36Z</time>
      </trkpt>
      <trkpt lat="45.08961" lon="5.61617">
        <ele>1830.199951172</ele>
        <time>2014-02-09T08:32:39Z</time>
      </trkpt>
      <trkpt lat="45.08964" lon="5.61612">
        <ele>1828.400024414</ele>
        <time>2014-02-09T08:32:40Z</time>
      </trkpt>
      <trkpt lat="45.08972" lon="5.61597">
        <ele>1823.400024414</ele>
        <time>2014-02-09T08:32:43Z</time>
      </trkpt>
      <trkpt lat="45.08975" lon="5.61593">
        <ele>1821.800048828</ele>
        <time>2014-02-09T08:32:44Z</time>
      </trkpt>
      <trkpt lat="45.08975" lon="5.61585">
        <ele>1820.199951172</ele>
        <time>2014-02-09T08:32:45Z</time>
      </trkpt>
      <trkpt lat="45.08982" lon="5.61575">
        <ele>1816</ele>
        <time>2014-02-09T08:32:47Z</time>
      </trkpt>
      <trkpt lat="45.08991" lon="5.61568">
        <ele>1812.199951172</ele>
        <time>2014-02-09T08:32:49Z</time>
      </trkpt>
      <trkpt lat="45.08996" lon="5.61566">
        <ele>1810.599975586</ele>
        <time>2014-02-09T08:32:50Z</time>
      </trkpt>
      <trkpt lat="45.09" lon="5.61562">
        <ele>1808.599975586</ele>
        <time>2014-02-09T08:32:51Z</time>
      </trkpt>
      <trkpt lat="45.09005" lon="5.61558">
        <ele>1805.800048828</ele>
        <time>2014-02-09T08:32:54Z</time>
      </trkpt>
      <trkpt lat="45.09004" lon="5.61559">
        <ele>1806.599975586</ele>
        <time>2014-02-09T08:32:55Z</time>
      </trkpt>
      <trkpt lat="45.09004" lon="5.61561">
        <ele>1807.199951172</ele>
        <time>2014-02-09T08:32:58Z</time>
      </trkpt>
      <trkpt lat="45.09006" lon="5.61563">
        <ele>1807.199951172</ele>
        <time>2014-02-09T08:33:04Z</time>
      </trkpt>
      <trkpt lat="45.09012" lon="5.61567">
        <ele>1806.400024414</ele>
        <time>2014-02-09T08:33:06Z</time>
      </trkpt>
      <trkpt lat="45.09015" lon="5.61566">
        <ele>1805.199951172</ele>
        <time>2014-02-09T08:33:07Z</time>
      </trkpt>
      <trkpt lat="45.09021" lon="5.61557">
        <ele>1800.800048828</ele>
        <time>2014-02-09T08:33:09Z</time>
      </trkpt>
      <trkpt lat="45.0903" lon="5.61554">
        <ele>1796.800048828</ele>
        <time>2014-02-09T08:33:12Z</time>
      </trkpt>
      <trkpt lat="45.09033" lon="5.61554">
        <ele>1796</ele>
        <time>2014-02-09T08:33:13Z</time>
      </trkpt>
      <trkpt lat="45.09047" lon="5.61555">
        <ele>1791.800048828</ele>
        <time>2014-02-09T08:33:18Z</time>
      </trkpt>
      <trkpt lat="45.09058" lon="5.6155">
        <ele>1787.400024414</ele>
        <time>2014-02-09T08:33:21Z</time>
      </trkpt>
      <trkpt lat="45.09061" lon="5.61547">
        <ele>1785.400024414</ele>
        <time>2014-02-09T08:33:22Z</time>
      </trkpt>
      <trkpt lat="45.09068" lon="5.61533">
        <ele>1779.199951172</ele>
        <time>2014-02-09T08:33:26Z</time>
      </trkpt>
      <trkpt lat="45.0907" lon="5.61532">
        <ele>1778.400024414</ele>
        <time>2014-02-09T08:33:27Z</time>
      </trkpt>
      <trkpt lat="45.09066" lon="5.61524">
        <ele>1777.199951172</ele>
        <time>2014-02-09T08:33:29Z</time>
      </trkpt>
      <trkpt lat="45.09057" lon="5.61507">
        <ele>1774.800048828</ele>
        <time>2014-02-09T08:33:34Z</time>
      </trkpt>
      <trkpt lat="45.09056" lon="5.615">
        <ele>1773</ele>
        <time>2014-02-09T08:33:36Z</time>
      </trkpt>
      <trkpt lat="45.0905" lon="5.61481">
        <ele>1770.400024414</ele>
        <time>2014-02-09T08:33:39Z</time>
      </trkpt>
      <trkpt lat="45.09039" lon="5.61462">
        <ele>1768.599975586</ele>
        <time>2014-02-09T08:33:44Z</time>
      </trkpt>
      <trkpt lat="45.09029" lon="5.61447">
        <ele>1767</ele>
        <time>2014-02-09T08:33:49Z</time>
      </trkpt>
      <trkpt lat="45.09027" lon="5.61443">
        <ele>1766.400024414</ele>
        <time>2014-02-09T08:33:50Z</time>
      </trkpt>
      <trkpt lat="45.09023" lon="5.61424">
        <ele>1761.800048828</ele>
        <time>2014-02-09T08:33:54Z</time>
      </trkpt>
      <trkpt lat="45.09014" lon="5.614">
        <ele>1757.599975586</ele>
        <time>2014-02-09T08:33:59Z</time>
      </trkpt>
      <trkpt lat="45.09004" lon="5.61379">
        <ele>1754.400024414</ele>
        <time>2014-02-09T08:34:04Z</time>
      </trkpt>
      <trkpt lat="45.09" lon="5.61368">
        <ele>1752.400024414</ele>
        <time>2014-02-09T08:34:06Z</time>
      </trkpt>
      <trkpt lat="45.08994" lon="5.61339">
        <ele>1748.599975586</ele>
        <time>2014-02-09T08:34:10Z</time>
      </trkpt>
      <trkpt lat="45.08995" lon="5.61332">
        <ele>1747.199951172</ele>
        <time>2014-02-09T08:34:11Z</time>
      </trkpt>
      <trkpt lat="45.08996" lon="5.61305">
        <ele>1743</ele>
        <time>2014-02-09T08:34:14Z</time>
      </trkpt>
      <trkpt lat="45.09" lon="5.6129">
        <ele>1739.800048828</ele>
        <time>2014-02-09T08:34:17Z</time>
      </trkpt>
      <trkpt lat="45.09003" lon="5.61282">
        <ele>1738.599975586</ele>
        <time>2014-02-09T08:34:19Z</time>
      </trkpt>
      <trkpt lat="45.09008" lon="5.61273">
        <ele>1737.199951172</ele>
        <time>2014-02-09T08:34:21Z</time>
      </trkpt>
      <trkpt lat="45.09016" lon="5.6126">
        <ele>1735</ele>
        <time>2014-02-09T08:34:25Z</time>
      </trkpt>
      <trkpt lat="45.09018" lon="5.61255">
        <ele>1734.400024414</ele>
        <time>2014-02-09T08:34:26Z</time>
      </trkpt>
      <trkpt lat="45.09027" lon="5.61243">
        <ele>1731.400024414</ele>
        <time>2014-02-09T08:34:29Z</time>
      </trkpt>
      <trkpt lat="45.09026" lon="5.61246">
        <ele>1732</ele>
        <time>2014-02-09T08:34:32Z</time>
      </trkpt>
      <trkpt lat="45.09026" lon="5.61247">
        <ele>1732.199951172</ele>
        <time>2014-02-09T08:34:43Z</time>
      </trkpt>
      <trkpt lat="45.09027" lon="5.61247">
        <ele>1732.400024414</ele>
        <time>2014-02-09T08:34:47Z</time>
      </trkpt>
      <trkpt lat="45.09027" lon="5.61249">
        <ele>1732.800048828</ele>
        <time>2014-02-09T08:35:02Z</time>
      </trkpt>
      <trkpt lat="45.09027" lon="5.61249">
        <ele>1732.800048828</ele>
        <time>2014-02-09T08:35:03Z</time>
      </trkpt>
      <trkpt lat="45.09027" lon="5.6125">
        <ele>1733</ele>
        <time>2014-02-09T08:35:15Z</time>
      </trkpt>
      <trkpt lat="45.0903" lon="5.61248">
        <ele>1732.400024414</ele>
        <time>2014-02-09T08:35:24Z</time>
      </trkpt>
      <trkpt lat="45.09031" lon="5.61245">
        <ele>1731.599975586</ele>
        <time>2014-02-09T08:35:25Z</time>
      </trkpt>
      <trkpt lat="45.09033" lon="5.61242">
        <ele>1730.599975586</ele>
        <time>2014-02-09T08:35:26Z</time>
      </trkpt>
      <trkpt lat="45.09036" lon="5.61225">
        <ele>1726</ele>
        <time>2014-02-09T08:35:28Z</time>
      </trkpt>
      <trkpt lat="45.0904" lon="5.61193">
        <ele>1717.599975586</ele>
        <time>2014-02-09T08:35:31Z</time>
      </trkpt>
      <trkpt lat="45.09039" lon="5.61182">
        <ele>1715.199951172</ele>
        <time>2014-02-09T08:35:32Z</time>
      </trkpt>
      <trkpt lat="45.09042" lon="5.61164">
        <ele>1710.199951172</ele>
        <time>2014-02-09T08:35:34Z</time>
      </trkpt>
      <trkpt lat="45.09046" lon="5.61149">
        <ele>1706.400024414</ele>
        <time>2014-02-09T08:35:36Z</time>
      </trkpt>
      <trkpt lat="45.09047" lon="5.61133">
        <ele>1702.400024414</ele>
        <time>2014-02-09T08:35:38Z</time>
      </trkpt>
      <trkpt lat="45.09047" lon="5.61123">
        <ele>1700.199951172</ele>
        <time>2014-02-09T08:35:39Z</time>
      </trkpt>
      <trkpt lat="45.09052" lon="5.61094">
        <ele>1693.199951172</ele>
        <time>2014-02-09T08:35:42Z</time>
      </trkpt>
      <trkpt lat="45.09053" lon="5.61086">
        <ele>1691.199951172</ele>
        <time>2014-02-09T08:35:43Z</time>
      </trkpt>
      <trkpt lat="45.09055" lon="5.61073">
        <ele>1688.199951172</ele>
        <time>2014-02-09T08:35:45Z</time>
      </trkpt>
      <trkpt lat="45.09054" lon="5.61067">
        <ele>1686.800048828</ele>
        <time>2014-02-09T08:35:46Z</time>
      </trkpt>
      <trkpt lat="45.09053" lon="5.61062">
        <ele>1685.400024414</ele>
        <time>2014-02-09T08:35:47Z</time>
      </trkpt>
      <trkpt lat="45.09043" lon="5.61052">
        <ele>1682.800048828</ele>
        <time>2014-02-09T08:35:49Z</time>
      </trkpt>
      <trkpt lat="45.09039" lon="5.61046">
        <ele>1681.199951172</ele>
        <time>2014-02-09T08:35:50Z</time>
      </trkpt>
      <trkpt lat="45.09034" lon="5.61039">
        <ele>1679.400024414</ele>
        <time>2014-02-09T08:35:51Z</time>
      </trkpt>
      <trkpt lat="45.09023" lon="5.61025">
        <ele>1675.800048828</ele>
        <time>2014-02-09T08:35:53Z</time>
      </trkpt>
      <trkpt lat="45.09013" lon="5.60999">
        <ele>1669.199951172</ele>
        <time>2014-02-09T08:35:56Z</time>
      </trkpt>
      <trkpt lat="45.09012" lon="5.6099">
        <ele>1667.599975586</ele>
        <time>2014-02-09T08:35:57Z</time>
      </trkpt>
      <trkpt lat="45.09013" lon="5.60972">
        <ele>1664.400024414</ele>
        <time>2014-02-09T08:35:59Z</time>
      </trkpt>
      <trkpt lat="45.09015" lon="5.60963">
        <ele>1662.599975586</ele>
        <time>2014-02-09T08:36:00Z</time>
      </trkpt>
      <trkpt lat="45.09017" lon="5.60953">
        <ele>1660.599975586</ele>
        <time>2014-02-09T08:36:01Z</time>
      </trkpt>
      <trkpt lat="45.09019" lon="5.60942">
        <ele>1658.599975586</ele>
        <time>2014-02-09T08:36:02Z</time>
      </trkpt>
      <trkpt lat="45.09027" lon="5.60915">
        <ele>1653.199951172</ele>
        <time>2014-02-09T08:36:05Z</time>
      </trkpt>
      <trkpt lat="45.0903" lon="5.60907">
        <ele>1652.400024414</ele>
        <time>2014-02-09T08:36:06Z</time>
      </trkpt>
      <trkpt lat="45.09037" lon="5.60891">
        <ele>1650.199951172</ele>
        <time>2014-02-09T08:36:08Z</time>
      </trkpt>
      <trkpt lat="45.09045" lon="5.60878">
        <ele>1647.800048828</ele>
        <time>2014-02-09T08:36:10Z</time>
      </trkpt>
      <trkpt lat="45.09049" lon="5.60872">
        <ele>1646.599975586</ele>
        <time>2014-02-09T08:36:11Z</time>
      </trkpt>
      <trkpt lat="45.09054" lon="5.60863">
        <ele>1644.800048828</ele>
        <time>2014-02-09T08:36:13Z</time>
      </trkpt>
      <trkpt lat="45.09058" lon="5.60859">
        <ele>1643.800048828</ele>
        <time>2014-02-09T08:36:14Z</time>
      </trkpt>
      <trkpt lat="45.09065" lon="5.60841">
        <ele>1640</ele>
        <time>2014-02-09T08:36:17Z</time>
      </trkpt>
      <trkpt lat="45.09071" lon="5.60824">
        <ele>1636.599975586</ele>
        <time>2014-02-09T08:36:20Z</time>
      </trkpt>
      <trkpt lat="45.09074" lon="5.60817">
        <ele>1635.599975586</ele>
        <time>2014-02-09T08:36:21Z</time>
      </trkpt>
      <trkpt lat="45.09079" lon="5.60808">
        <ele>1633.800048828</ele>
        <time>2014-02-09T08:36:22Z</time>
      </trkpt>
      <trkpt lat="45.09089" lon="5.60792">
        <ele>1631.400024414</ele>
        <time>2014-02-09T08:36:24Z</time>
      </trkpt>
      <trkpt lat="45.09102" lon="5.60783">
        <ele>1630.199951172</ele>
        <time>2014-02-09T08:36:27Z</time>
      </trkpt>
      <trkpt lat="45.09105" lon="5.60781">
        <ele>1630</ele>
        <time>2014-02-09T08:36:30Z</time>
      </trkpt>
      <trkpt lat="45.09105" lon="5.60783">
        <ele>1630.199951172</ele>
        <time>2014-02-09T08:36:41Z</time>
      </trkpt>
      <trkpt lat="45.09106" lon="5.60785">
        <ele>1630.400024414</ele>
        <time>2014-02-09T08:36:57Z</time>
      </trkpt>
      <trkpt lat="45.09106" lon="5.60785">
        <ele>1630.400024414</ele>
        <time>2014-02-09T08:37:04Z</time>
      </trkpt>
      <trkpt lat="45.09105" lon="5.60784">
        <ele>1630.199951172</ele>
        <time>2014-02-09T08:37:11Z</time>
      </trkpt>
      <trkpt lat="45.09104" lon="5.60784">
        <ele>1630.199951172</ele>
        <time>2014-02-09T08:37:14Z</time>
      </trkpt>
      <trkpt lat="45.09104" lon="5.60784">
        <ele>1630.199951172</ele>
        <time>2014-02-09T08:37:19Z</time>
      </trkpt>
      <trkpt lat="45.09104" lon="5.60784">
        <ele>1630.199951172</ele>
        <time>2014-02-09T08:37:21Z</time>
      </trkpt>
      <trkpt lat="45.09105" lon="5.60785">
        <ele>1630.400024414</ele>
        <time>2014-02-09T08:37:25Z</time>
      </trkpt>
      <trkpt lat="45.09104" lon="5.60785">
        <ele>1630.400024414</ele>
        <time>2014-02-09T08:37:29Z</time>
      </trkpt>
      <trkpt lat="45.09104" lon="5.60785">
        <ele>1630.400024414</ele>
        <time>2014-02-09T08:37:34Z</time>
      </trkpt>
      <trkpt lat="45.09104" lon="5.60785">
        <ele>1630.400024414</ele>
        <time>2014-02-09T08:37:35Z</time>
      </trkpt>
      <trkpt lat="45.09104" lon="5.60785">
        <ele>1630.400024414</ele>
        <time>2014-02-09T08:37:37Z</time>
      </trkpt>
      <trkpt lat="45.09104" lon="5.60785">
        <ele>1630.400024414</ele>
        <time>2014-02-09T08:37:38Z</time>
      </trkpt>
      <trkpt lat="45.09104" lon="5.60789">
        <ele>1630.800048828</ele>
        <time>2014-02-09T08:37:57Z</time>
      </trkpt>
      <trkpt lat="45.09104" lon="5.60789">
        <ele>1630.800048828</ele>
        <time>2014-02-09T08:38:07Z</time>
      </trkpt>
      <trkpt lat="45.09104" lon="5.60789">
        <ele>1630.800048828</ele>
        <time>2014-02-09T08:38:08Z</time>
      </trkpt>
      <trkpt lat="45.09105" lon="5.60787">
        <ele>1630.599975586</ele>
        <time>2014-02-09T08:38:13Z</time>
      </trkpt>
      <trkpt lat="45.09105" lon="5.60786">
        <ele>1630.400024414</ele>
        <time>2014-02-09T08:38:17Z</time>
      </trkpt>
      <trkpt lat="45.09105" lon="5.60786">
        <ele>1630.400024414</ele>
        <time>2014-02-09T08:38:23Z</time>
      </trkpt>
      <trkpt lat="45.09105" lon="5.60787">
        <ele>1630.599975586</ele>
        <time>2014-02-09T08:38:32Z</time>
      </trkpt>
      <trkpt lat="45.09105" lon="5.60787">
        <ele>1630.599975586</ele>
        <time>2014-02-09T08:38:33Z</time>
      </trkpt>
      <trkpt lat="45.09105" lon="5.60787">
        <ele>1630.599975586</ele>
        <time>2014-02-09T08:38:34Z</time>
      </trkpt>
      <trkpt lat="45.09105" lon="5.60787">
        <ele>1630.599975586</ele>
        <time>2014-02-09T08:38:37Z</time>
      </trkpt>
      <trkpt lat="45.09106" lon="5.60787">
        <ele>1630.599975586</ele>
        <time>2014-02-09T08:38:38Z</time>
      </trkpt>
      <trkpt lat="45.09106" lon="5.60786">
        <ele>1630.400024414</ele>
        <time>2014-02-09T08:38:40Z</time>
      </trkpt>
      <trkpt lat="45.09106" lon="5.60785">
        <ele>1630.400024414</ele>
        <time>2014-02-09T08:38:43Z</time>
      </trkpt>
      <trkpt lat="45.09105" lon="5.60783">
        <ele>1630.199951172</ele>
        <time>2014-02-09T08:38:53Z</time>
      </trkpt>
      <trkpt lat="45.09104" lon="5.60782">
        <ele>1630</ele>
        <time>2014-02-09T08:39:02Z</time>
      </trkpt>
      <trkpt lat="45.09103" lon="5.60781">
        <ele>1630</ele>
        <time>2014-02-09T08:39:09Z</time>
      </trkpt>
      <trkpt lat="45.09103" lon="5.60781">
        <ele>1630</ele>
        <time>2014-02-09T08:39:10Z</time>
      </trkpt>
      <trkpt lat="45.09103" lon="5.60781">
        <ele>1630</ele>
        <time>2014-02-09T08:39:12Z</time>
      </trkpt>
      <trkpt lat="45.09103" lon="5.6078">
        <ele>1630</ele>
        <time>2014-02-09T08:39:21Z</time>
      </trkpt>
      <trkpt lat="45.09103" lon="5.6078">
        <ele>1630</ele>
        <time>2014-02-09T08:39:22Z</time>
      </trkpt>
      <trkpt lat="45.09103" lon="5.6078">
        <ele>1629.800048828</ele>
        <time>2014-02-09T08:39:34Z</time>
      </trkpt>
      <trkpt lat="45.09103" lon="5.6078">
        <ele>1629.800048828</ele>
        <time>2014-02-09T08:39:36Z</time>
      </trkpt>
      <trkpt lat="45.09103" lon="5.60781">
        <ele>1630</ele>
        <time>2014-02-09T08:39:41Z</time>
      </trkpt>
      <trkpt lat="45.09104" lon="5.60782">
        <ele>1630</ele>
        <time>2014-02-09T08:39:51Z</time>
      </trkpt>
      <trkpt lat="45.09104" lon="5.60783">
        <ele>1630.199951172</ele>
        <time>2014-02-09T08:39:54Z</time>
      </trkpt>
      <trkpt lat="45.09105" lon="5.60783">
        <ele>1630.199951172</ele>
        <time>2014-02-09T08:40:01Z</time>
      </trkpt>
      <trkpt lat="45.09105" lon="5.60784">
        <ele>1630.199951172</ele>
        <time>2014-02-09T08:40:03Z</time>
      </trkpt>
      <trkpt lat="45.09105" lon="5.60785">
        <ele>1630.400024414</ele>
        <time>2014-02-09T08:40:09Z</time>
      </trkpt>
      <trkpt lat="45.09105" lon="5.60786">
        <ele>1630.400024414</ele>
        <time>2014-02-09T08:40:16Z</time>
      </trkpt>
      <trkpt lat="45.09105" lon="5.60786">
        <ele>1630.400024414</ele>
        <time>2014-02-09T08:40:19Z</time>
      </trkpt>
      <trkpt lat="45.09105" lon="5.60786">
        <ele>1630.599975586</ele>
        <time>2014-02-09T08:40:33Z</time>
      </trkpt>
      <trkpt lat="45.09105" lon="5.60786">
        <ele>1630.599975586</ele>
        <time>2014-02-09T08:40:41Z</time>
      </trkpt>
      <trkpt lat="45.09105" lon="5.60787">
        <ele>1630.599975586</ele>
        <time>2014-02-09T08:40:43Z</time>
      </trkpt>
      <trkpt lat="45.09105" lon="5.60787">
        <ele>1630.599975586</ele>
        <time>2014-02-09T08:40:46Z</time>
      </trkpt>
      <trkpt lat="45.09105" lon="5.60787">
        <ele>1630.599975586</ele>
        <time>2014-02-09T08:40:48Z</time>
      </trkpt>
      <trkpt lat="45.09105" lon="5.60787">
        <ele>1630.599975586</ele>
        <time>2014-02-09T08:40:51Z</time>
      </trkpt>
      <trkpt lat="45.09106" lon="5.60786">
        <ele>1630.400024414</ele>
        <time>2014-02-09T08:40:56Z</time>
      </trkpt>
      <trkpt lat="45.09106" lon="5.60786">
        <ele>1630.400024414</ele>
        <time>2014-02-09T08:40:57Z</time>
      </trkpt>
      <trkpt lat="45.09106" lon="5.60786">
        <ele>1630.400024414</ele>
        <time>2014-02-09T08:40:58Z</time>
      </trkpt>
      <trkpt lat="45.09106" lon="5.60786">
        <ele>1630.400024414</ele>
        <time>2014-02-09T08:41:05Z</time>
      </trkpt>
      <trkpt lat="45.09106" lon="5.60786">
        <ele>1630.400024414</ele>
        <time>2014-02-09T08:41:07Z</time>
      </trkpt>
      <trkpt lat="45.09106" lon="5.60785">
        <ele>1630.400024414</ele>
        <time>2014-02-09T08:41:13Z</time>
      </trkpt>
      <trkpt lat="45.09105" lon="5.60785">
        <ele>1630.400024414</ele>
        <time>2014-02-09T08:41:16Z</time>
      </trkpt>
      <trkpt lat="45.09105" lon="5.60786">
        <ele>1630.400024414</ele>
        <time>2014-02-09T08:41:21Z</time>
      </trkpt>
      <trkpt lat="45.09105" lon="5.60785">
        <ele>1630.400024414</ele>
        <time>2014-02-09T08:41:27Z</time>
      </trkpt>
      <trkpt lat="45.09105" lon="5.60786">
        <ele>1630.400024414</ele>
        <time>2014-02-09T08:41:32Z</time>
      </trkpt>
      <trkpt lat="45.09106" lon="5.60785">
        <ele>1630.400024414</ele>
        <time>2014-02-09T08:41:38Z</time>
      </trkpt>
      <trkpt lat="45.09106" lon="5.60785">
        <ele>1630.400024414</ele>
        <time>2014-02-09T08:41:42Z</time>
      </trkpt>
      <trkpt lat="45.09105" lon="5.60785">
        <ele>1630.400024414</ele>
        <time>2014-02-09T08:41:45Z</time>
      </trkpt>
      <trkpt lat="45.09106" lon="5.60785">
        <ele>1630.400024414</ele>
        <time>2014-02-09T08:41:46Z</time>
      </trkpt>
      <trkpt lat="45.09106" lon="5.60785">
        <ele>1630.199951172</ele>
        <time>2014-02-09T08:41:47Z</time>
      </trkpt>
      <trkpt lat="45.09106" lon="5.60785">
        <ele>1630.400024414</ele>
        <time>2014-02-09T08:41:55Z</time>
      </trkpt>
      <trkpt lat="45.09105" lon="5.60785">
        <ele>1630.400024414</ele>
        <time>2014-02-09T08:42:11Z</time>
      </trkpt>
      <trkpt lat="45.09105" lon="5.60783">
        <ele>1630.199951172</ele>
        <time>2014-02-09T08:42:18Z</time>
      </trkpt>
      <trkpt lat="45.09105" lon="5.60783">
        <ele>1630.199951172</ele>
        <time>2014-02-09T08:42:19Z</time>
      </trkpt>
      <trkpt lat="45.09104" lon="5.60783">
        <ele>1630.199951172</ele>
        <time>2014-02-09T08:42:23Z</time>
      </trkpt>
      <trkpt lat="45.09104" lon="5.60783">
        <ele>1630.199951172</ele>
        <time>2014-02-09T08:42:29Z</time>
      </trkpt>
      <trkpt lat="45.09105" lon="5.60783">
        <ele>1630.199951172</ele>
        <time>2014-02-09T08:42:30Z</time>
      </trkpt>
      <trkpt lat="45.09105" lon="5.60783">
        <ele>1630.199951172</ele>
        <time>2014-02-09T08:42:31Z</time>
      </trkpt>
      <trkpt lat="45.09105" lon="5.60784">
        <ele>1630.199951172</ele>
        <time>2014-02-09T08:42:33Z</time>
      </trkpt>
      <trkpt lat="45.09105" lon="5.60785">
        <ele>1630.400024414</ele>
        <time>2014-02-09T08:42:35Z</time>
      </trkpt>
      <trkpt lat="45.09105" lon="5.60784">
        <ele>1630.199951172</ele>
        <time>2014-02-09T08:42:40Z</time>
      </trkpt>
      <trkpt lat="45.09105" lon="5.60785">
        <ele>1630.400024414</ele>
        <time>2014-02-09T08:42:45Z</time>
      </trkpt>
      <trkpt lat="45.09105" lon="5.60785">
        <ele>1630.400024414</ele>
        <time>2014-02-09T08:42:50Z</time>
      </trkpt>
      <trkpt lat="45.09105" lon="5.60785">
        <ele>1630.400024414</ele>
        <time>2014-02-09T08:42:53Z</time>
      </trkpt>
      <trkpt lat="45.09105" lon="5.60785">
        <ele>1630.400024414</ele>
        <time>2014-02-09T08:42:56Z</time>
      </trkpt>
      <trkpt lat="45.09104" lon="5.60784">
        <ele>1630.199951172</ele>
        <time>2014-02-09T08:43:03Z</time>
      </trkpt>
      <trkpt lat="45.09104" lon="5.60784">
        <ele>1630.400024414</ele>
        <time>2014-02-09T08:43:10Z</time>
      </trkpt>
      <trkpt lat="45.09104" lon="5.60784">
        <ele>1630.199951172</ele>
        <time>2014-02-09T08:43:14Z</time>
      </trkpt>
      <trkpt lat="45.09104" lon="5.60785">
        <ele>1630.400024414</ele>
        <time>2014-02-09T08:43:26Z</time>
      </trkpt>
      <trkpt lat="45.09104" lon="5.60784">
        <ele>1630.199951172</ele>
        <time>2014-02-09T08:43:44Z</time>
      </trkpt>
      <trkpt lat="45.09104" lon="5.60784">
        <ele>1630.199951172</ele>
        <time>2014-02-09T08:43:56Z</time>
      </trkpt>
      <trkpt lat="45.09104" lon="5.60784">
        <ele>1630.199951172</ele>
        <time>2014-02-09T08:44:05Z</time>
      </trkpt>
      <trkpt lat="45.09104" lon="5.60783">
        <ele>1630.199951172</ele>
        <time>2014-02-09T08:44:09Z</time>
      </trkpt>
      <trkpt lat="45.09104" lon="5.60784">
        <ele>1630.199951172</ele>
        <time>2014-02-09T08:44:15Z</time>
      </trkpt>
      <trkpt lat="45.09104" lon="5.60785">
        <ele>1630.400024414</ele>
        <time>2014-02-09T08:44:26Z</time>
      </trkpt>
      <trkpt lat="45.09104" lon="5.60785">
        <ele>1630.400024414</ele>
        <time>2014-02-09T08:44:28Z</time>
      </trkpt>
      <trkpt lat="45.09105" lon="5.60785">
        <ele>1630.400024414</ele>
        <time>2014-02-09T08:44:32Z</time>
      </trkpt>
      <trkpt lat="45.09105" lon="5.60784">
        <ele>1630.199951172</ele>
        <time>2014-02-09T08:44:37Z</time>
      </trkpt>
      <trkpt lat="45.09105" lon="5.60785">
        <ele>1630.400024414</ele>
        <time>2014-02-09T08:44:41Z</time>
      </trkpt>
      <trkpt lat="45.09106" lon="5.60785">
        <ele>1630.400024414</ele>
        <time>2014-02-09T08:44:52Z</time>
      </trkpt>
      <trkpt lat="45.09106" lon="5.60785">
        <ele>1630.400024414</ele>
        <time>2014-02-09T08:45:00Z</time>
      </trkpt>
      <trkpt lat="45.09106" lon="5.60785">
        <ele>1630.400024414</ele>
        <time>2014-02-09T08:45:06Z</time>
      </trkpt>
      <trkpt lat="45.09103" lon="5.60788">
        <ele>1630.800048828</ele>
        <time>2014-02-09T08:45:33Z</time>
      </trkpt>
      <trkpt lat="45.09102" lon="5.60789">
        <ele>1630.800048828</ele>
        <time>2014-02-09T08:45:34Z</time>
      </trkpt>
      <trkpt lat="45.09102" lon="5.60788">
        <ele>1630.800048828</ele>
        <time>2014-02-09T08:45:37Z</time>
      </trkpt>
      <trkpt lat="45.09102" lon="5.60788">
        <ele>1630.800048828</ele>
        <time>2014-02-09T08:45:46Z</time>
      </trkpt>
      <trkpt lat="45.09098" lon="5.6079">
        <ele>1631</ele>
        <time>2014-02-09T08:45:53Z</time>
      </trkpt>
      <trkpt lat="45.09094" lon="5.60795">
        <ele>1631.599975586</ele>
        <time>2014-02-09T08:45:59Z</time>
      </trkpt>
      <trkpt lat="45.09088" lon="5.60802">
        <ele>1632.400024414</ele>
        <time>2014-02-09T08:46:06Z</time>
      </trkpt>
      <trkpt lat="45.09087" lon="5.60803">
        <ele>1632.400024414</ele>
        <time>2014-02-09T08:46:12Z</time>
      </trkpt>
      <trkpt lat="45.09087" lon="5.60803">
        <ele>1632.400024414</ele>
        <time>2014-02-09T08:46:14Z</time>
      </trkpt>
      <trkpt lat="45.09087" lon="5.60803">
        <ele>1632.400024414</ele>
        <time>2014-02-09T08:46:15Z</time>
      </trkpt>
      <trkpt lat="45.09087" lon="5.60803">
        <ele>1632.400024414</ele>
        <time>2014-02-09T08:46:17Z</time>
      </trkpt>
      <trkpt lat="45.09086" lon="5.60806">
        <ele>1632.800048828</ele>
        <time>2014-02-09T08:46:28Z</time>
      </trkpt>
      <trkpt lat="45.09085" lon="5.60806">
        <ele>1632.800048828</ele>
        <time>2014-02-09T08:46:30Z</time>
      </trkpt>
      <trkpt lat="45.09085" lon="5.60807">
        <ele>1632.800048828</ele>
        <time>2014-02-09T08:46:31Z</time>
      </trkpt>
      <trkpt lat="45.09085" lon="5.60807">
        <ele>1632.800048828</ele>
        <time>2014-02-09T08:46:32Z</time>
      </trkpt>
      <trkpt lat="45.09083" lon="5.60809">
        <ele>1633</ele>
        <time>2014-02-09T08:46:35Z</time>
      </trkpt>
      <trkpt lat="45.0908" lon="5.60814">
        <ele>1634</ele>
        <time>2014-02-09T08:46:42Z</time>
      </trkpt>
      <trkpt lat="45.09078" lon="5.60817">
        <ele>1634.599975586</ele>
        <time>2014-02-09T08:46:47Z</time>
      </trkpt>
      <trkpt lat="45.09077" lon="5.60819">
        <ele>1635</ele>
        <time>2014-02-09T08:46:50Z</time>
      </trkpt>
      <trkpt lat="45.09076" lon="5.60821">
        <ele>1635.400024414</ele>
        <time>2014-02-09T08:46:53Z</time>
      </trkpt>
      <trkpt lat="45.09076" lon="5.60823">
        <ele>1635.800048828</ele>
        <time>2014-02-09T08:46:55Z</time>
      </trkpt>
      <trkpt lat="45.09075" lon="5.60825">
        <ele>1636</ele>
        <time>2014-02-09T08:46:58Z</time>
      </trkpt>
      <trkpt lat="45.09075" lon="5.60828">
        <ele>1636.199951172</ele>
        <time>2014-02-09T08:47:03Z</time>
      </trkpt>
      <trkpt lat="45.09076" lon="5.60829">
        <ele>1636.199951172</ele>
        <time>2014-02-09T08:47:05Z</time>
      </trkpt>
      <trkpt lat="45.09076" lon="5.6083">
        <ele>1636.199951172</ele>
        <time>2014-02-09T08:47:10Z</time>
      </trkpt>
      <trkpt lat="45.09076" lon="5.6083">
        <ele>1636.199951172</ele>
        <time>2014-02-09T08:47:21Z</time>
      </trkpt>
      <trkpt lat="45.09077" lon="5.60833">
        <ele>1636.199951172</ele>
        <time>2014-02-09T08:47:29Z</time>
      </trkpt>
      <trkpt lat="45.09077" lon="5.60836">
        <ele>1636.599975586</ele>
        <time>2014-02-09T08:47:31Z</time>
      </trkpt>
      <trkpt lat="45.09077" lon="5.6084">
        <ele>1637.199951172</ele>
        <time>2014-02-09T08:47:35Z</time>
      </trkpt>
      <trkpt lat="45.09077" lon="5.60841">
        <ele>1637.599975586</ele>
        <time>2014-02-09T08:47:36Z</time>
      </trkpt>
      <trkpt lat="45.09075" lon="5.60845">
        <ele>1638.800048828</ele>
        <time>2014-02-09T08:47:41Z</time>
      </trkpt>
      <trkpt lat="45.09072" lon="5.6085">
        <ele>1640</ele>
        <time>2014-02-09T08:47:47Z</time>
      </trkpt>
      <trkpt lat="45.09068" lon="5.60854">
        <ele>1641.199951172</ele>
        <time>2014-02-09T08:47:54Z</time>
      </trkpt>
      <trkpt lat="45.09066" lon="5.60857">
        <ele>1642</ele>
        <time>2014-02-09T08:47:59Z</time>
      </trkpt>
      <trkpt lat="45.09066" lon="5.60858">
        <ele>1642.199951172</ele>
        <time>2014-02-09T08:48:00Z</time>
      </trkpt>
      <trkpt lat="45.09062" lon="5.60861">
        <ele>1643.199951172</ele>
        <time>2014-02-09T08:48:06Z</time>
      </trkpt>
      <trkpt lat="45.09058" lon="5.60865">
        <ele>1644.599975586</ele>
        <time>2014-02-09T08:48:13Z</time>
      </trkpt>
      <trkpt lat="45.09054" lon="5.60873">
        <ele>1646.199951172</ele>
        <time>2014-02-09T08:48:22Z</time>
      </trkpt>
      <trkpt lat="45.09051" lon="5.6088">
        <ele>1647.400024414</ele>
        <time>2014-02-09T08:48:28Z</time>
      </trkpt>
      <trkpt lat="45.09046" lon="5.60888">
        <ele>1649</ele>
        <time>2014-02-09T08:48:36Z</time>
      </trkpt>
      <trkpt lat="45.09043" lon="5.60893">
        <ele>1649.800048828</ele>
        <time>2014-02-09T08:48:42Z</time>
      </trkpt>
      <trkpt lat="45.0904" lon="5.60898">
        <ele>1650.599975586</ele>
        <time>2014-02-09T08:48:48Z</time>
      </trkpt>
      <trkpt lat="45.09038" lon="5.60902">
        <ele>1651.199951172</ele>
        <time>2014-02-09T08:48:53Z</time>
      </trkpt>
      <trkpt lat="45.09035" lon="5.60906">
        <ele>1651.800048828</ele>
        <time>2014-02-09T08:49:00Z</time>
      </trkpt>
      <trkpt lat="45.09032" lon="5.60912">
        <ele>1652.599975586</ele>
        <time>2014-02-09T08:49:09Z</time>
      </trkpt>
      <trkpt lat="45.09031" lon="5.60916">
        <ele>1653</ele>
        <time>2014-02-09T08:49:14Z</time>
      </trkpt>
      <trkpt lat="45.09031" lon="5.60919">
        <ele>1653.599975586</ele>
        <time>2014-02-09T08:49:18Z</time>
      </trkpt>
      <trkpt lat="45.09029" lon="5.60924">
        <ele>1654.599975586</ele>
        <time>2014-02-09T08:49:25Z</time>
      </trkpt>
      <trkpt lat="45.09028" lon="5.60929">
        <ele>1655.800048828</ele>
        <time>2014-02-09T08:49:30Z</time>
      </trkpt>
      <trkpt lat="45.09026" lon="5.60935">
        <ele>1657</ele>
        <time>2014-02-09T08:49:36Z</time>
      </trkpt>
      <trkpt lat="45.09026" lon="5.6094">
        <ele>1658</ele>
        <time>2014-02-09T08:49:41Z</time>
      </trkpt>
      <trkpt lat="45.09023" lon="5.60945">
        <ele>1659</ele>
        <time>2014-02-09T08:49:47Z</time>
      </trkpt>
      <trkpt lat="45.09024" lon="5.60949">
        <ele>1659.599975586</ele>
        <time>2014-02-09T08:49:51Z</time>
      </trkpt>
      <trkpt lat="45.09022" lon="5.60954">
        <ele>1660.599975586</ele>
        <time>2014-02-09T08:49:56Z</time>
      </trkpt>
      <trkpt lat="45.0902" lon="5.60959">
        <ele>1661.800048828</ele>
        <time>2014-02-09T08:50:02Z</time>
      </trkpt>
      <trkpt lat="45.09019" lon="5.60964">
        <ele>1662.800048828</ele>
        <time>2014-02-09T08:50:08Z</time>
      </trkpt>
      <trkpt lat="45.09017" lon="5.60969">
        <ele>1663.599975586</ele>
        <time>2014-02-09T08:50:14Z</time>
      </trkpt>
      <trkpt lat="45.09017" lon="5.60973">
        <ele>1664.400024414</ele>
        <time>2014-02-09T08:50:19Z</time>
      </trkpt>
      <trkpt lat="45.09017" lon="5.60977">
        <ele>1665.199951172</ele>
        <time>2014-02-09T08:50:25Z</time>
      </trkpt>
      <trkpt lat="45.09018" lon="5.60981">
        <ele>1666</ele>
        <time>2014-02-09T08:50:30Z</time>
      </trkpt>
      <trkpt lat="45.09019" lon="5.60986">
        <ele>1666.800048828</ele>
        <time>2014-02-09T08:50:36Z</time>
      </trkpt>
      <trkpt lat="45.09018" lon="5.6099">
        <ele>1667.599975586</ele>
        <time>2014-02-09T08:50:41Z</time>
      </trkpt>
      <trkpt lat="45.09017" lon="5.60993">
        <ele>1668.199951172</ele>
        <time>2014-02-09T08:50:46Z</time>
      </trkpt>
      <trkpt lat="45.09016" lon="5.60998">
        <ele>1669</ele>
        <time>2014-02-09T08:50:52Z</time>
      </trkpt>
      <trkpt lat="45.09016" lon="5.61005">
        <ele>1670.599975586</ele>
        <time>2014-02-09T08:50:59Z</time>
      </trkpt>
      <trkpt lat="45.09018" lon="5.61011">
        <ele>1672.199951172</ele>
        <time>2014-02-09T08:51:06Z</time>
      </trkpt>
      <trkpt lat="45.09018" lon="5.61015">
        <ele>1673.199951172</ele>
        <time>2014-02-09T08:51:10Z</time>
      </trkpt>
      <trkpt lat="45.09018" lon="5.61021">
        <ele>1674.800048828</ele>
        <time>2014-02-09T08:51:17Z</time>
      </trkpt>
      <trkpt lat="45.09018" lon="5.61026">
        <ele>1675.800048828</ele>
        <time>2014-02-09T08:51:22Z</time>
      </trkpt>
      <trkpt lat="45.09018" lon="5.61031">
        <ele>1677</ele>
        <time>2014-02-09T08:51:27Z</time>
      </trkpt>
      <trkpt lat="45.09018" lon="5.61034">
        <ele>1677.800048828</ele>
        <time>2014-02-09T08:51:31Z</time>
      </trkpt>
      <trkpt lat="45.09019" lon="5.61036">
        <ele>1678.599975586</ele>
        <time>2014-02-09T08:51:35Z</time>
      </trkpt>
      <trkpt lat="45.09021" lon="5.61039">
        <ele>1679.199951172</ele>
        <time>2014-02-09T08:51:39Z</time>
      </trkpt>
      <trkpt lat="45.09023" lon="5.61041">
        <ele>1679.800048828</ele>
        <time>2014-02-09T08:51:45Z</time>
      </trkpt>
      <trkpt lat="45.09027" lon="5.61045">
        <ele>1680.599975586</ele>
        <time>2014-02-09T08:51:52Z</time>
      </trkpt>
      <trkpt lat="45.09028" lon="5.61047">
        <ele>1681.400024414</ele>
        <time>2014-02-09T08:51:56Z</time>
      </trkpt>
      <trkpt lat="45.0903" lon="5.61052">
        <ele>1682.599975586</ele>
        <time>2014-02-09T08:52:03Z</time>
      </trkpt>
      <trkpt lat="45.09034" lon="5.61053">
        <ele>1683</ele>
        <time>2014-02-09T08:52:11Z</time>
      </trkpt>
      <trkpt lat="45.09037" lon="5.61053">
        <ele>1683</ele>
        <time>2014-02-09T08:52:16Z</time>
      </trkpt>
      <trkpt lat="45.0904" lon="5.61053">
        <ele>1683</ele>
        <time>2014-02-09T08:52:22Z</time>
      </trkpt>
      <trkpt lat="45.09041" lon="5.61056">
        <ele>1683.800048828</ele>
        <time>2014-02-09T08:52:26Z</time>
      </trkpt>
      <trkpt lat="45.09041" lon="5.61061">
        <ele>1685</ele>
        <time>2014-02-09T08:52:31Z</time>
      </trkpt>
      <trkpt lat="45.09039" lon="5.61068">
        <ele>1686.599975586</ele>
        <time>2014-02-09T08:52:39Z</time>
      </trkpt>
      <trkpt lat="45.09038" lon="5.61071">
        <ele>1687.599975586</ele>
        <time>2014-02-09T08:52:44Z</time>
      </trkpt>
      <trkpt lat="45.09038" lon="5.61075">
        <ele>1688.599975586</ele>
        <time>2014-02-09T08:52:50Z</time>
      </trkpt>
      <trkpt lat="45.09039" lon="5.61075">
        <ele>1688.400024414</ele>
        <time>2014-02-09T08:53:06Z</time>
      </trkpt>
      <trkpt lat="45.09039" lon="5.61076">
        <ele>1688.599975586</ele>
        <time>2014-02-09T08:53:12Z</time>
      </trkpt>
      <trkpt lat="45.09039" lon="5.61075">
        <ele>1688.199951172</ele>
        <time>2014-02-09T08:53:19Z</time>
      </trkpt>
      <trkpt lat="45.09039" lon="5.61075">
        <ele>1688.400024414</ele>
        <time>2014-02-09T08:53:20Z</time>
      </trkpt>
      <trkpt lat="45.09039" lon="5.61075">
        <ele>1688.400024414</ele>
        <time>2014-02-09T08:53:21Z</time>
      </trkpt>
      <trkpt lat="45.09038" lon="5.61076">
        <ele>1688.800048828</ele>
        <time>2014-02-09T08:53:24Z</time>
      </trkpt>
      <trkpt lat="45.09038" lon="5.61083">
        <ele>1690.400024414</ele>
        <time>2014-02-09T08:53:30Z</time>
      </trkpt>
      <trkpt lat="45.09037" lon="5.61086">
        <ele>1691</ele>
        <time>2014-02-09T08:53:33Z</time>
      </trkpt>
      <trkpt lat="45.09037" lon="5.61086">
        <ele>1691.199951172</ele>
        <time>2014-02-09T08:53:36Z</time>
      </trkpt>
      <trkpt lat="45.09039" lon="5.61088">
        <ele>1691.599975586</ele>
        <time>2014-02-09T08:53:40Z</time>
      </trkpt>
      <trkpt lat="45.09041" lon="5.6109">
        <ele>1692</ele>
        <time>2014-02-09T08:53:44Z</time>
      </trkpt>
      <trkpt lat="45.09043" lon="5.61091">
        <ele>1692.400024414</ele>
        <time>2014-02-09T08:53:48Z</time>
      </trkpt>
      <trkpt lat="45.09043" lon="5.61092">
        <ele>1692.599975586</ele>
        <time>2014-02-09T08:53:49Z</time>
      </trkpt>
      <trkpt lat="45.09046" lon="5.61095">
        <ele>1693.400024414</ele>
        <time>2014-02-09T08:53:56Z</time>
      </trkpt>
      <trkpt lat="45.09049" lon="5.61098">
        <ele>1694.199951172</ele>
        <time>2014-02-09T08:54:02Z</time>
      </trkpt>
      <trkpt lat="45.0905" lon="5.611">
        <ele>1694.599975586</ele>
        <time>2014-02-09T08:54:05Z</time>
      </trkpt>
      <trkpt lat="45.09051" lon="5.61102">
        <ele>1695.199951172</ele>
        <time>2014-02-09T08:54:07Z</time>
      </trkpt>
      <trkpt lat="45.09052" lon="5.61109">
        <ele>1696.800048828</ele>
        <time>2014-02-09T08:54:14Z</time>
      </trkpt>
      <trkpt lat="45.09051" lon="5.61114">
        <ele>1698</ele>
        <time>2014-02-09T08:54:20Z</time>
      </trkpt>
      <trkpt lat="45.09049" lon="5.61121">
        <ele>1699.599975586</ele>
        <time>2014-02-09T08:54:28Z</time>
      </trkpt>
      <trkpt lat="45.09049" lon="5.61126">
        <ele>1700.800048828</ele>
        <time>2014-02-09T08:54:34Z</time>
      </trkpt>
      <trkpt lat="45.09048" lon="5.61131">
        <ele>1702</ele>
        <time>2014-02-09T08:54:39Z</time>
      </trkpt>
      <trkpt lat="45.09048" lon="5.61135">
        <ele>1703</ele>
        <time>2014-02-09T08:54:44Z</time>
      </trkpt>
      <trkpt lat="45.09049" lon="5.6114">
        <ele>1704.199951172</ele>
        <time>2014-02-09T08:54:49Z</time>
      </trkpt>
      <trkpt lat="45.09048" lon="5.61145">
        <ele>1705.199951172</ele>
        <time>2014-02-09T08:54:54Z</time>
      </trkpt>
      <trkpt lat="45.09049" lon="5.61152">
        <ele>1707</ele>
        <time>2014-02-09T08:55:01Z</time>
      </trkpt>
      <trkpt lat="45.09049" lon="5.61159">
        <ele>1708.599975586</ele>
        <time>2014-02-09T08:55:08Z</time>
      </trkpt>
      <trkpt lat="45.09049" lon="5.61166">
        <ele>1710.199951172</ele>
        <time>2014-02-09T08:55:14Z</time>
      </trkpt>
      <trkpt lat="45.09049" lon="5.61173">
        <ele>1712</ele>
        <time>2014-02-09T08:55:21Z</time>
      </trkpt>
      <trkpt lat="45.0905" lon="5.61178">
        <ele>1713.400024414</ele>
        <time>2014-02-09T08:55:27Z</time>
      </trkpt>
      <trkpt lat="45.0905" lon="5.61183">
        <ele>1714.599975586</ele>
        <time>2014-02-09T08:55:32Z</time>
      </trkpt>
      <trkpt lat="45.09048" lon="5.61191">
        <ele>1716.599975586</ele>
        <time>2014-02-09T08:55:39Z</time>
      </trkpt>
      <trkpt lat="45.09046" lon="5.61197">
        <ele>1718.199951172</ele>
        <time>2014-02-09T08:55:45Z</time>
      </trkpt>
      <trkpt lat="45.09045" lon="5.61203">
        <ele>1720</ele>
        <time>2014-02-09T08:55:51Z</time>
      </trkpt>
      <trkpt lat="45.09045" lon="5.6121">
        <ele>1721.800048828</ele>
        <time>2014-02-09T08:55:58Z</time>
      </trkpt>
      <trkpt lat="45.09046" lon="5.61217">
        <ele>1723.400024414</ele>
        <time>2014-02-09T08:56:05Z</time>
      </trkpt>
      <trkpt lat="45.09046" lon="5.61222">
        <ele>1724.599975586</ele>
        <time>2014-02-09T08:56:10Z</time>
      </trkpt>
      <trkpt lat="45.09046" lon="5.61227">
        <ele>1726</ele>
        <time>2014-02-09T08:56:16Z</time>
      </trkpt>
      <trkpt lat="45.09044" lon="5.61231">
        <ele>1727.199951172</ele>
        <time>2014-02-09T08:56:21Z</time>
      </trkpt>
      <trkpt lat="45.0904" lon="5.61235">
        <ele>1728.199951172</ele>
        <time>2014-02-09T08:56:28Z</time>
      </trkpt>
      <trkpt lat="45.09034" lon="5.61239">
        <ele>1729.800048828</ele>
        <time>2014-02-09T08:56:37Z</time>
      </trkpt>
      <trkpt lat="45.09028" lon="5.61244">
        <ele>1731.400024414</ele>
        <time>2014-02-09T08:56:45Z</time>
      </trkpt>
      <trkpt lat="45.09025" lon="5.61246">
        <ele>1732.199951172</ele>
        <time>2014-02-09T08:56:49Z</time>
      </trkpt>
      <trkpt lat="45.09023" lon="5.61248">
        <ele>1732.800048828</ele>
        <time>2014-02-09T08:56:52Z</time>
      </trkpt>
      <trkpt lat="45.09019" lon="5.61252">
        <ele>1734</ele>
        <time>2014-02-09T08:56:58Z</time>
      </trkpt>
      <trkpt lat="45.09016" lon="5.61256">
        <ele>1734.599975586</ele>
        <time>2014-02-09T08:57:04Z</time>
      </trkpt>
      <trkpt lat="45.09014" lon="5.61262">
        <ele>1735.400024414</ele>
        <time>2014-02-09T08:57:10Z</time>
      </trkpt>
      <trkpt lat="45.09011" lon="5.61265">
        <ele>1736</ele>
        <time>2014-02-09T08:57:15Z</time>
      </trkpt>
      <trkpt lat="45.09008" lon="5.61265">
        <ele>1736.199951172</ele>
        <time>2014-02-09T08:57:19Z</time>
      </trkpt>
      <trkpt lat="45.09003" lon="5.61265">
        <ele>1736.599975586</ele>
        <time>2014-02-09T08:57:27Z</time>
      </trkpt>
      <trkpt lat="45.08998" lon="5.61262">
        <ele>1737</ele>
        <time>2014-02-09T08:57:34Z</time>
      </trkpt>
      <trkpt lat="45.08994" lon="5.6126">
        <ele>1738</ele>
        <time>2014-02-09T08:57:41Z</time>
      </trkpt>
      <trkpt lat="45.08989" lon="5.61259">
        <ele>1739.199951172</ele>
        <time>2014-02-09T08:57:48Z</time>
      </trkpt>
      <trkpt lat="45.08985" lon="5.61259">
        <ele>1740.400024414</ele>
        <time>2014-02-09T08:57:54Z</time>
      </trkpt>
      <trkpt lat="45.08981" lon="5.6126">
        <ele>1741.400024414</ele>
        <time>2014-02-09T08:58:00Z</time>
      </trkpt>
      <trkpt lat="45.08978" lon="5.61262">
        <ele>1742.800048828</ele>
        <time>2014-02-09T08:58:06Z</time>
      </trkpt>
      <trkpt lat="45.08976" lon="5.61264">
        <ele>1743.800048828</ele>
        <time>2014-02-09T08:58:10Z</time>
      </trkpt>
      <trkpt lat="45.08972" lon="5.61266">
        <ele>1745.199951172</ele>
        <time>2014-02-09T08:58:17Z</time>
      </trkpt>
      <trkpt lat="45.08969" lon="5.61267">
        <ele>1746.400024414</ele>
        <time>2014-02-09T08:58:22Z</time>
      </trkpt>
      <trkpt lat="45.08965" lon="5.61269">
        <ele>1747.800048828</ele>
        <time>2014-02-09T08:58:29Z</time>
      </trkpt>
      <trkpt lat="45.08962" lon="5.61271">
        <ele>1749</ele>
        <time>2014-02-09T08:58:34Z</time>
      </trkpt>
      <trkpt lat="45.08961" lon="5.61273">
        <ele>1749.800048828</ele>
        <time>2014-02-09T08:58:38Z</time>
      </trkpt>
      <trkpt lat="45.08959" lon="5.61278">
        <ele>1751.400024414</ele>
        <time>2014-02-09T08:58:45Z</time>
      </trkpt>
      <trkpt lat="45.08957" lon="5.61282">
        <ele>1752.599975586</ele>
        <time>2014-02-09T08:58:50Z</time>
      </trkpt>
      <trkpt lat="45.08956" lon="5.61287">
        <ele>1754.199951172</ele>
        <time>2014-02-09T08:58:57Z</time>
      </trkpt>
      <trkpt lat="45.08955" lon="5.61291">
        <ele>1755.199951172</ele>
        <time>2014-02-09T08:59:01Z</time>
      </trkpt>
      <trkpt lat="45.08954" lon="5.61298">
        <ele>1757</ele>
        <time>2014-02-09T08:59:08Z</time>
      </trkpt>
      <trkpt lat="45.08953" lon="5.61303">
        <ele>1758.400024414</ele>
        <time>2014-02-09T08:59:14Z</time>
      </trkpt>
      <trkpt lat="45.08953" lon="5.61307">
        <ele>1759.400024414</ele>
        <time>2014-02-09T08:59:19Z</time>
      </trkpt>
      <trkpt lat="45.08952" lon="5.61313">
        <ele>1761</ele>
        <time>2014-02-09T08:59:24Z</time>
      </trkpt>
      <trkpt lat="45.0895" lon="5.61314">
        <ele>1762</ele>
        <time>2014-02-09T08:59:31Z</time>
      </trkpt>
      <trkpt lat="45.08946" lon="5.6131">
        <ele>1762.400024414</ele>
        <time>2014-02-09T08:59:39Z</time>
      </trkpt>
      <trkpt lat="45.08943" lon="5.61306">
        <ele>1762.599975586</ele>
        <time>2014-02-09T08:59:45Z</time>
      </trkpt>
      <trkpt lat="45.08942" lon="5.61306">
        <ele>1763</ele>
        <time>2014-02-09T08:59:50Z</time>
      </trkpt>
      <trkpt lat="45.08941" lon="5.6131">
        <ele>1764.199951172</ele>
        <time>2014-02-09T08:59:55Z</time>
      </trkpt>
      <trkpt lat="45.0894" lon="5.61315">
        <ele>1765.599975586</ele>
        <time>2014-02-09T09:00:00Z</time>
      </trkpt>
      <trkpt lat="45.0894" lon="5.6132">
        <ele>1767.400024414</ele>
        <time>2014-02-09T09:00:06Z</time>
      </trkpt>
      <trkpt lat="45.08939" lon="5.61327">
        <ele>1769.199951172</ele>
        <time>2014-02-09T09:00:13Z</time>
      </trkpt>
      <trkpt lat="45.08938" lon="5.61331">
        <ele>1770.400024414</ele>
        <time>2014-02-09T09:00:18Z</time>
      </trkpt>
      <trkpt lat="45.08938" lon="5.61335">
        <ele>1771.400024414</ele>
        <time>2014-02-09T09:00:22Z</time>
      </trkpt>
      <trkpt lat="45.08936" lon="5.61339">
        <ele>1772.800048828</ele>
        <time>2014-02-09T09:00:27Z</time>
      </trkpt>
      <trkpt lat="45.08934" lon="5.61339">
        <ele>1774</ele>
        <time>2014-02-09T09:00:31Z</time>
      </trkpt>
      <trkpt lat="45.0893" lon="5.61339">
        <ele>1775.400024414</ele>
        <time>2014-02-09T09:00:37Z</time>
      </trkpt>
      <trkpt lat="45.08925" lon="5.61339">
        <ele>1777.599975586</ele>
        <time>2014-02-09T09:00:45Z</time>
      </trkpt>
      <trkpt lat="45.08922" lon="5.61341">
        <ele>1779</ele>
        <time>2014-02-09T09:00:50Z</time>
      </trkpt>
      <trkpt lat="45.08919" lon="5.61342">
        <ele>1780.800048828</ele>
        <time>2014-02-09T09:00:56Z</time>
      </trkpt>
      <trkpt lat="45.08915" lon="5.61345">
        <ele>1782.400024414</ele>
        <time>2014-02-09T09:01:02Z</time>
      </trkpt>
      <trkpt lat="45.08912" lon="5.61351">
        <ele>1784.199951172</ele>
        <time>2014-02-09T09:01:09Z</time>
      </trkpt>
      <trkpt lat="45.08911" lon="5.61355">
        <ele>1785.199951172</ele>
        <time>2014-02-09T09:01:14Z</time>
      </trkpt>
      <trkpt lat="45.0891" lon="5.6136">
        <ele>1786.400024414</ele>
        <time>2014-02-09T09:01:19Z</time>
      </trkpt>
      <trkpt lat="45.08908" lon="5.61365">
        <ele>1787.800048828</ele>
        <time>2014-02-09T09:01:25Z</time>
      </trkpt>
      <trkpt lat="45.08906" lon="5.61371">
        <ele>1789.199951172</ele>
        <time>2014-02-09T09:01:32Z</time>
      </trkpt>
      <trkpt lat="45.08906" lon="5.61374">
        <ele>1790</ele>
        <time>2014-02-09T09:01:36Z</time>
      </trkpt>
      <trkpt lat="45.08905" lon="5.6138">
        <ele>1791.199951172</ele>
        <time>2014-02-09T09:01:41Z</time>
      </trkpt>
      <trkpt lat="45.08903" lon="5.61386">
        <ele>1792.800048828</ele>
        <time>2014-02-09T09:01:47Z</time>
      </trkpt>
      <trkpt lat="45.08901" lon="5.61394">
        <ele>1794.800048828</ele>
        <time>2014-02-09T09:01:55Z</time>
      </trkpt>
      <trkpt lat="45.089" lon="5.61399">
        <ele>1796</ele>
        <time>2014-02-09T09:02:01Z</time>
      </trkpt>
      <trkpt lat="45.08897" lon="5.61405">
        <ele>1797.599975586</ele>
        <time>2014-02-09T09:02:08Z</time>
      </trkpt>
      <trkpt lat="45.08896" lon="5.61411">
        <ele>1799.199951172</ele>
        <time>2014-02-09T09:02:14Z</time>
      </trkpt>
      <trkpt lat="45.08894" lon="5.61419">
        <ele>1801</ele>
        <time>2014-02-09T09:02:21Z</time>
      </trkpt>
      <trkpt lat="45.08895" lon="5.6143">
        <ele>1803.199951172</ele>
        <time>2014-02-09T09:02:27Z</time>
      </trkpt>
      <trkpt lat="45.08896" lon="5.61437">
        <ele>1804.599975586</ele>
        <time>2014-02-09T09:02:33Z</time>
      </trkpt>
      <trkpt lat="45.08898" lon="5.61443">
        <ele>1805.800048828</ele>
        <time>2014-02-09T09:02:40Z</time>
      </trkpt>
      <trkpt lat="45.08899" lon="5.61449">
        <ele>1807</ele>
        <time>2014-02-09T09:02:46Z</time>
      </trkpt>
      <trkpt lat="45.08899" lon="5.61455">
        <ele>1808.199951172</ele>
        <time>2014-02-09T09:02:51Z</time>
      </trkpt>
      <trkpt lat="45.08899" lon="5.61461">
        <ele>1809.599975586</ele>
        <time>2014-02-09T09:02:57Z</time>
      </trkpt>
      <trkpt lat="45.08899" lon="5.61467">
        <ele>1811.199951172</ele>
        <time>2014-02-09T09:03:03Z</time>
      </trkpt>
      <trkpt lat="45.08899" lon="5.61475">
        <ele>1813.199951172</ele>
        <time>2014-02-09T09:03:10Z</time>
      </trkpt>
      <trkpt lat="45.08899" lon="5.61483">
        <ele>1815</ele>
        <time>2014-02-09T09:03:17Z</time>
      </trkpt>
      <trkpt lat="45.08899" lon="5.61491">
        <ele>1816.800048828</ele>
        <time>2014-02-09T09:03:24Z</time>
      </trkpt>
      <trkpt lat="45.08899" lon="5.61499">
        <ele>1818.599975586</ele>
        <time>2014-02-09T09:03:31Z</time>
      </trkpt>
      <trkpt lat="45.089" lon="5.61506">
        <ele>1819.800048828</ele>
        <time>2014-02-09T09:03:37Z</time>
      </trkpt>
      <trkpt lat="45.08901" lon="5.6151">
        <ele>1820.400024414</ele>
        <time>2014-02-09T09:03:43Z</time>
      </trkpt>
      <trkpt lat="45.08903" lon="5.61516">
        <ele>1821</ele>
        <time>2014-02-09T09:03:49Z</time>
      </trkpt>
      <trkpt lat="45.08905" lon="5.6152">
        <ele>1821.400024414</ele>
        <time>2014-02-09T09:03:54Z</time>
      </trkpt>
      <trkpt lat="45.08905" lon="5.6152">
        <ele>1821.599975586</ele>
        <time>2014-02-09T09:03:55Z</time>
      </trkpt>
      <trkpt lat="45.08905" lon="5.61527">
        <ele>1823</ele>
        <time>2014-02-09T09:04:01Z</time>
      </trkpt>
      <trkpt lat="45.08906" lon="5.61535">
        <ele>1824.199951172</ele>
        <time>2014-02-09T09:04:08Z</time>
      </trkpt>
      <trkpt lat="45.08911" lon="5.61543">
        <ele>1824.599975586</ele>
        <time>2014-02-09T09:04:15Z</time>
      </trkpt>
      <trkpt lat="45.08916" lon="5.61551">
        <ele>1824.599975586</ele>
        <time>2014-02-09T09:04:22Z</time>
      </trkpt>
      <trkpt lat="45.0892" lon="5.61557">
        <ele>1824.800048828</ele>
        <time>2014-02-09T09:04:29Z</time>
      </trkpt>
      <trkpt lat="45.08923" lon="5.61562">
        <ele>1825.199951172</ele>
        <time>2014-02-09T09:04:35Z</time>
      </trkpt>
      <trkpt lat="45.08926" lon="5.61569">
        <ele>1826</ele>
        <time>2014-02-09T09:04:42Z</time>
      </trkpt>
      <trkpt lat="45.08928" lon="5.61572">
        <ele>1826.199951172</ele>
        <time>2014-02-09T09:04:47Z</time>
      </trkpt>
      <trkpt lat="45.08929" lon="5.61574">
        <ele>1826.800048828</ele>
        <time>2014-02-09T09:04:52Z</time>
      </trkpt>
      <trkpt lat="45.08929" lon="5.61579">
        <ele>1827.599975586</ele>
        <time>2014-02-09T09:04:56Z</time>
      </trkpt>
      <trkpt lat="45.08929" lon="5.61582">
        <ele>1828.199951172</ele>
        <time>2014-02-09T09:05:00Z</time>
      </trkpt>
      <trkpt lat="45.0893" lon="5.61588">
        <ele>1829.400024414</ele>
        <time>2014-02-09T09:05:05Z</time>
      </trkpt>
      <trkpt lat="45.08931" lon="5.61589">
        <ele>1829.599975586</ele>
        <time>2014-02-09T09:05:06Z</time>
      </trkpt>
      <trkpt lat="45.08932" lon="5.61593">
        <ele>1830.400024414</ele>
        <time>2014-02-09T09:05:10Z</time>
      </trkpt>
      <trkpt lat="45.08933" lon="5.61598">
        <ele>1831.400024414</ele>
        <time>2014-02-09T09:05:15Z</time>
      </trkpt>
      <trkpt lat="45.08934" lon="5.61604">
        <ele>1832.800048828</ele>
        <time>2014-02-09T09:05:21Z</time>
      </trkpt>
      <trkpt lat="45.08936" lon="5.61615">
        <ele>1835</ele>
        <time>2014-02-09T09:05:30Z</time>
      </trkpt>
      <trkpt lat="45.08936" lon="5.61617">
        <ele>1835.400024414</ele>
        <time>2014-02-09T09:05:32Z</time>
      </trkpt>
      <trkpt lat="45.08936" lon="5.61619">
        <ele>1835.800048828</ele>
        <time>2014-02-09T09:05:34Z</time>
      </trkpt>
      <trkpt lat="45.08937" lon="5.61621">
        <ele>1836.400024414</ele>
        <time>2014-02-09T09:05:36Z</time>
      </trkpt>
      <trkpt lat="45.08937" lon="5.61624">
        <ele>1836.800048828</ele>
        <time>2014-02-09T09:05:38Z</time>
      </trkpt>
      <trkpt lat="45.08938" lon="5.6163">
        <ele>1838.199951172</ele>
        <time>2014-02-09T09:05:44Z</time>
      </trkpt>
      <trkpt lat="45.08938" lon="5.61634">
        <ele>1839.199951172</ele>
        <time>2014-02-09T09:05:49Z</time>
      </trkpt>
      <trkpt lat="45.08938" lon="5.61638">
        <ele>1840</ele>
        <time>2014-02-09T09:05:53Z</time>
      </trkpt>
      <trkpt lat="45.08938" lon="5.61644">
        <ele>1841.400024414</ele>
        <time>2014-02-09T09:06:00Z</time>
      </trkpt>
      <trkpt lat="45.08939" lon="5.61649">
        <ele>1842.400024414</ele>
        <time>2014-02-09T09:06:05Z</time>
      </trkpt>
      <trkpt lat="45.0894" lon="5.61656">
        <ele>1843.599975586</ele>
        <time>2014-02-09T09:06:12Z</time>
      </trkpt>
      <trkpt lat="45.08942" lon="5.6166">
        <ele>1844.400024414</ele>
        <time>2014-02-09T09:06:17Z</time>
      </trkpt>
      <trkpt lat="45.08942" lon="5.61665">
        <ele>1845.400024414</ele>
        <time>2014-02-09T09:06:23Z</time>
      </trkpt>
      <trkpt lat="45.08943" lon="5.6167">
        <ele>1846.599975586</ele>
        <time>2014-02-09T09:06:28Z</time>
      </trkpt>
      <trkpt lat="45.08944" lon="5.61674">
        <ele>1847.800048828</ele>
        <time>2014-02-09T09:06:33Z</time>
      </trkpt>
      <trkpt lat="45.08945" lon="5.61678">
        <ele>1849</ele>
        <time>2014-02-09T09:06:37Z</time>
      </trkpt>
      <trkpt lat="45.08946" lon="5.61683">
        <ele>1850.199951172</ele>
        <time>2014-02-09T09:06:42Z</time>
      </trkpt>
      <trkpt lat="45.08947" lon="5.61688">
        <ele>1851.800048828</ele>
        <time>2014-02-09T09:06:48Z</time>
      </trkpt>
      <trkpt lat="45.08947" lon="5.61693">
        <ele>1853.599975586</ele>
        <time>2014-02-09T09:06:53Z</time>
      </trkpt>
      <trkpt lat="45.08945" lon="5.61697">
        <ele>1855.199951172</ele>
        <time>2014-02-09T09:06:58Z</time>
      </trkpt>
      <trkpt lat="45.08944" lon="5.61702">
        <ele>1857</ele>
        <time>2014-02-09T09:07:03Z</time>
      </trkpt>
      <trkpt lat="45.08943" lon="5.61706">
        <ele>1858.800048828</ele>
        <time>2014-02-09T09:07:08Z</time>
      </trkpt>
      <trkpt lat="45.08941" lon="5.61709">
        <ele>1860.400024414</ele>
        <time>2014-02-09T09:07:14Z</time>
      </trkpt>
      <trkpt lat="45.08939" lon="5.61711">
        <ele>1861.400024414</ele>
        <time>2014-02-09T09:07:18Z</time>
      </trkpt>
      <trkpt lat="45.08936" lon="5.61715">
        <ele>1863.400024414</ele>
        <time>2014-02-09T09:07:25Z</time>
      </trkpt>
      <trkpt lat="45.08933" lon="5.61719">
        <ele>1865.400024414</ele>
        <time>2014-02-09T09:07:32Z</time>
      </trkpt>
      <trkpt lat="45.08931" lon="5.61722">
        <ele>1866.599975586</ele>
        <time>2014-02-09T09:07:37Z</time>
      </trkpt>
      <trkpt lat="45.08929" lon="5.61724">
        <ele>1867.599975586</ele>
        <time>2014-02-09T09:07:42Z</time>
      </trkpt>
      <trkpt lat="45.08929" lon="5.61727">
        <ele>1868.599975586</ele>
        <time>2014-02-09T09:07:46Z</time>
      </trkpt>
      <trkpt lat="45.0893" lon="5.6173">
        <ele>1869.599975586</ele>
        <time>2014-02-09T09:07:50Z</time>
      </trkpt>
      <trkpt lat="45.08931" lon="5.61735">
        <ele>1870.800048828</ele>
        <time>2014-02-09T09:07:56Z</time>
      </trkpt>
      <trkpt lat="45.08932" lon="5.61738">
        <ele>1871.599975586</ele>
        <time>2014-02-09T09:08:00Z</time>
      </trkpt>
      <trkpt lat="45.08934" lon="5.61742">
        <ele>1872.599975586</ele>
        <time>2014-02-09T09:08:05Z</time>
      </trkpt>
      <trkpt lat="45.08936" lon="5.61747">
        <ele>1873.599975586</ele>
        <time>2014-02-09T09:08:12Z</time>
      </trkpt>
      <trkpt lat="45.08938" lon="5.61751">
        <ele>1874.599975586</ele>
        <time>2014-02-09T09:08:16Z</time>
      </trkpt>
      <trkpt lat="45.08941" lon="5.61755">
        <ele>1875.400024414</ele>
        <time>2014-02-09T09:08:21Z</time>
      </trkpt>
      <trkpt lat="45.0894" lon="5.61757">
        <ele>1876.400024414</ele>
        <time>2014-02-09T09:08:26Z</time>
      </trkpt>
      <trkpt lat="45.08937" lon="5.61759">
        <ele>1877.800048828</ele>
        <time>2014-02-09T09:08:31Z</time>
      </trkpt>
      <trkpt lat="45.08933" lon="5.61762">
        <ele>1879.599975586</ele>
        <time>2014-02-09T09:08:38Z</time>
      </trkpt>
      <trkpt lat="45.0893" lon="5.61765">
        <ele>1881.199951172</ele>
        <time>2014-02-09T09:08:45Z</time>
      </trkpt>
      <trkpt lat="45.08928" lon="5.61767">
        <ele>1882.599975586</ele>
        <time>2014-02-09T09:08:50Z</time>
      </trkpt>
      <trkpt lat="45.08924" lon="5.61772">
        <ele>1884.599975586</ele>
        <time>2014-02-09T09:08:58Z</time>
      </trkpt>
      <trkpt lat="45.08923" lon="5.61773">
        <ele>1885.400024414</ele>
        <time>2014-02-09T09:09:02Z</time>
      </trkpt>
      <trkpt lat="45.08924" lon="5.61777">
        <ele>1886.599975586</ele>
        <time>2014-02-09T09:09:07Z</time>
      </trkpt>
      <trkpt lat="45.08925" lon="5.6178">
        <ele>1887.199951172</ele>
        <time>2014-02-09T09:09:12Z</time>
      </trkpt>
      <trkpt lat="45.08927" lon="5.61784">
        <ele>1888.400024414</ele>
        <time>2014-02-09T09:09:17Z</time>
      </trkpt>
      <trkpt lat="45.08928" lon="5.61786">
        <ele>1888.599975586</ele>
        <time>2014-02-09T09:09:21Z</time>
      </trkpt>
      <trkpt lat="45.0893" lon="5.6179">
        <ele>1889.599975586</ele>
        <time>2014-02-09T09:09:27Z</time>
      </trkpt>
      <trkpt lat="45.08932" lon="5.61792">
        <ele>1890</ele>
        <time>2014-02-09T09:09:31Z</time>
      </trkpt>
      <trkpt lat="45.08933" lon="5.61795">
        <ele>1890.599975586</ele>
        <time>2014-02-09T09:09:34Z</time>
      </trkpt>
      <trkpt lat="45.08936" lon="5.61798">
        <ele>1891.400024414</ele>
        <time>2014-02-09T09:09:39Z</time>
      </trkpt>
      <trkpt lat="45.08936" lon="5.61801">
        <ele>1892.199951172</ele>
        <time>2014-02-09T09:09:43Z</time>
      </trkpt>
      <trkpt lat="45.08934" lon="5.61804">
        <ele>1893.599975586</ele>
        <time>2014-02-09T09:09:47Z</time>
      </trkpt>
      <trkpt lat="45.08931" lon="5.61808">
        <ele>1895.400024414</ele>
        <time>2014-02-09T09:09:53Z</time>
      </trkpt>
      <trkpt lat="45.08929" lon="5.61813">
        <ele>1897.599975586</ele>
        <time>2014-02-09T09:09:59Z</time>
      </trkpt>
      <trkpt lat="45.08928" lon="5.61816">
        <ele>1899</ele>
        <time>2014-02-09T09:10:03Z</time>
      </trkpt>
      <trkpt lat="45.08926" lon="5.6182">
        <ele>1900.800048828</ele>
        <time>2014-02-09T09:10:08Z</time>
      </trkpt>
      <trkpt lat="45.08924" lon="5.61824">
        <ele>1902.400024414</ele>
        <time>2014-02-09T09:10:13Z</time>
      </trkpt>
      <trkpt lat="45.08923" lon="5.61827">
        <ele>1903.800048828</ele>
        <time>2014-02-09T09:10:18Z</time>
      </trkpt>
      <trkpt lat="45.08921" lon="5.61831">
        <ele>1905.400024414</ele>
        <time>2014-02-09T09:10:23Z</time>
      </trkpt>
      <trkpt lat="45.0892" lon="5.61837">
        <ele>1907.199951172</ele>
        <time>2014-02-09T09:10:29Z</time>
      </trkpt>
      <trkpt lat="45.08919" lon="5.61844">
        <ele>1908.800048828</ele>
        <time>2014-02-09T09:10:37Z</time>
      </trkpt>
      <trkpt lat="45.08918" lon="5.61849">
        <ele>1909.800048828</ele>
        <time>2014-02-09T09:10:43Z</time>
      </trkpt>
      <trkpt lat="45.08918" lon="5.61852">
        <ele>1910.599975586</ele>
        <time>2014-02-09T09:10:47Z</time>
      </trkpt>
      <trkpt lat="45.08917" lon="5.61855">
        <ele>1911.199951172</ele>
        <time>2014-02-09T09:10:52Z</time>
      </trkpt>
      <trkpt lat="45.08916" lon="5.61859">
        <ele>1911.800048828</ele>
        <time>2014-02-09T09:10:56Z</time>
      </trkpt>
      <trkpt lat="45.08916" lon="5.61863">
        <ele>1912.400024414</ele>
        <time>2014-02-09T09:11:00Z</time>
      </trkpt>
      <trkpt lat="45.08916" lon="5.61868">
        <ele>1913.199951172</ele>
        <time>2014-02-09T09:11:06Z</time>
      </trkpt>
      <trkpt lat="45.08915" lon="5.61872">
        <ele>1913.800048828</ele>
        <time>2014-02-09T09:11:10Z</time>
      </trkpt>
      <trkpt lat="45.08915" lon="5.61879">
        <ele>1914.599975586</ele>
        <time>2014-02-09T09:11:17Z</time>
      </trkpt>
      <trkpt lat="45.08914" lon="5.61883">
        <ele>1914.800048828</ele>
        <time>2014-02-09T09:11:22Z</time>
      </trkpt>
      <trkpt lat="45.08913" lon="5.61889">
        <ele>1915.400024414</ele>
        <time>2014-02-09T09:11:27Z</time>
      </trkpt>
      <trkpt lat="45.08913" lon="5.61894">
        <ele>1916</ele>
        <time>2014-02-09T09:11:33Z</time>
      </trkpt>
      <trkpt lat="45.08913" lon="5.61898">
        <ele>1916.599975586</ele>
        <time>2014-02-09T09:11:38Z</time>
      </trkpt>
      <trkpt lat="45.08912" lon="5.61902">
        <ele>1916.599975586</ele>
        <time>2014-02-09T09:11:42Z</time>
      </trkpt>
      <trkpt lat="45.08912" lon="5.61909">
        <ele>1917.199951172</ele>
        <time>2014-02-09T09:11:48Z</time>
      </trkpt>
      <trkpt lat="45.08912" lon="5.61916">
        <ele>1918</ele>
        <time>2014-02-09T09:11:55Z</time>
      </trkpt>
      <trkpt lat="45.08912" lon="5.61921">
        <ele>1914.599975586</ele>
        <time>2014-02-09T09:12:01Z</time>
      </trkpt>
      <trkpt lat="45.08911" lon="5.61927">
        <ele>1909.599975586</ele>
        <time>2014-02-09T09:12:06Z</time>
      </trkpt>
      <trkpt lat="45.08911" lon="5.61934">
        <ele>1903.400024414</ele>
        <time>2014-02-09T09:12:13Z</time>
      </trkpt>
      <trkpt lat="45.08911" lon="5.61942">
        <ele>1897.800048828</ele>
        <time>2014-02-09T09:12:19Z</time>
      </trkpt>
      <trkpt lat="45.0891" lon="5.61948">
        <ele>1892</ele>
        <time>2014-02-09T09:12:25Z</time>
      </trkpt>
      <trkpt lat="45.08909" lon="5.61956">
        <ele>1885.199951172</ele>
        <time>2014-02-09T09:12:33Z</time>
      </trkpt>
      <trkpt lat="45.08909" lon="5.61956">
        <ele>1885.199951172</ele>
        <time>2014-02-09T09:12:39Z</time>
      </trkpt>
      <trkpt lat="45.08909" lon="5.61956">
        <ele>1885.199951172</ele>
        <time>2014-02-09T09:12:41Z</time>
      </trkpt>
      <trkpt lat="45.08909" lon="5.61956">
        <ele>1885.199951172</ele>
        <time>2014-02-09T09:12:45Z</time>
      </trkpt>
      <trkpt lat="45.08909" lon="5.61956">
        <ele>1884.800048828</ele>
        <time>2014-02-09T09:12:49Z</time>
      </trkpt>
      <trkpt lat="45.08909" lon="5.61956">
        <ele>1884.800048828</ele>
        <time>2014-02-09T09:12:55Z</time>
      </trkpt>
      <trkpt lat="45.08909" lon="5.61956">
        <ele>1885.400024414</ele>
        <time>2014-02-09T09:12:57Z</time>
      </trkpt>
      <trkpt lat="45.0891" lon="5.61957">
        <ele>1885.400024414</ele>
        <time>2014-02-09T09:13:07Z</time>
      </trkpt>
      <trkpt lat="45.08911" lon="5.61957">
        <ele>1886</ele>
        <time>2014-02-09T09:13:10Z</time>
      </trkpt>
      <trkpt lat="45.0891" lon="5.61957">
        <ele>1886</ele>
        <time>2014-02-09T09:13:11Z</time>
      </trkpt>
      <trkpt lat="45.08911" lon="5.61957">
        <ele>1886.400024414</ele>
        <time>2014-02-09T09:13:12Z</time>
      </trkpt>
      <trkpt lat="45.08911" lon="5.61957">
        <ele>1886</ele>
        <time>2014-02-09T09:13:15Z</time>
      </trkpt>
      <trkpt lat="45.0891" lon="5.61957">
        <ele>1885.800048828</ele>
        <time>2014-02-09T09:13:17Z</time>
      </trkpt>
      <trkpt lat="45.0891" lon="5.61957">
        <ele>1885.199951172</ele>
        <time>2014-02-09T09:13:21Z</time>
      </trkpt>
      <trkpt lat="45.0891" lon="5.61957">
        <ele>1885.199951172</ele>
        <time>2014-02-09T09:13:22Z</time>
      </trkpt>
      <trkpt lat="45.0891" lon="5.61957">
        <ele>1885.800048828</ele>
        <time>2014-02-09T09:13:23Z</time>
      </trkpt>
      <trkpt lat="45.0891" lon="5.61957">
        <ele>1885.199951172</ele>
        <time>2014-02-09T09:13:24Z</time>
      </trkpt>
      <trkpt lat="45.08909" lon="5.61958">
        <ele>1883.800048828</ele>
        <time>2014-02-09T09:13:31Z</time>
      </trkpt>
      <trkpt lat="45.08909" lon="5.61957">
        <ele>1884.800048828</ele>
        <time>2014-02-09T09:13:33Z</time>
      </trkpt>
      <trkpt lat="45.0891" lon="5.61958">
        <ele>1884.400024414</ele>
        <time>2014-02-09T09:13:36Z</time>
      </trkpt>
      <trkpt lat="45.0891" lon="5.61957">
        <ele>1884.800048828</ele>
        <time>2014-02-09T09:13:38Z</time>
      </trkpt>
      <trkpt lat="45.0891" lon="5.61958">
        <ele>1885.199951172</ele>
        <time>2014-02-09T09:13:44Z</time>
      </trkpt>
      <trkpt lat="45.0891" lon="5.61957">
        <ele>1885.199951172</ele>
        <time>2014-02-09T09:13:46Z</time>
      </trkpt>
      <trkpt lat="45.0891" lon="5.61957">
        <ele>1885.599975586</ele>
        <time>2014-02-09T09:14:06Z</time>
      </trkpt>
      <trkpt lat="45.0891" lon="5.61957">
        <ele>1886</ele>
        <time>2014-02-09T09:14:11Z</time>
      </trkpt>
      <trkpt lat="45.0891" lon="5.61956">
        <ele>1885.800048828</ele>
        <time>2014-02-09T09:14:13Z</time>
      </trkpt>
      <trkpt lat="45.0891" lon="5.61956">
        <ele>1886.599975586</ele>
        <time>2014-02-09T09:14:28Z</time>
      </trkpt>
      <trkpt lat="45.0891" lon="5.61956">
        <ele>1886.400024414</ele>
        <time>2014-02-09T09:14:29Z</time>
      </trkpt>
      <trkpt lat="45.08911" lon="5.61956">
        <ele>1887</ele>
        <time>2014-02-09T09:14:31Z</time>
      </trkpt>
      <trkpt lat="45.0891" lon="5.61956">
        <ele>1886</ele>
        <time>2014-02-09T09:14:40Z</time>
      </trkpt>
      <trkpt lat="45.0891" lon="5.61956">
        <ele>1886.599975586</ele>
        <time>2014-02-09T09:14:45Z</time>
      </trkpt>
      <trkpt lat="45.0891" lon="5.61956">
        <ele>1886.400024414</ele>
        <time>2014-02-09T09:14:47Z</time>
      </trkpt>
      <trkpt lat="45.08911" lon="5.61956">
        <ele>1888</ele>
        <time>2014-02-09T09:15:01Z</time>
      </trkpt>
      <trkpt lat="45.08911" lon="5.61957">
        <ele>1887.199951172</ele>
        <time>2014-02-09T09:15:10Z</time>
      </trkpt>
      <trkpt lat="45.08911" lon="5.61956">
        <ele>1887.599975586</ele>
        <time>2014-02-09T09:15:11Z</time>
      </trkpt>
      <trkpt lat="45.08911" lon="5.61956">
        <ele>1887.800048828</ele>
        <time>2014-02-09T09:15:14Z</time>
      </trkpt>
      <trkpt lat="45.08911" lon="5.61956">
        <ele>1887.800048828</ele>
        <time>2014-02-09T09:15:17Z</time>
      </trkpt>
      <trkpt lat="45.08911" lon="5.61958">
        <ele>1885.199951172</ele>
        <time>2014-02-09T09:15:29Z</time>
      </trkpt>
      <trkpt lat="45.0891" lon="5.61958">
        <ele>1885</ele>
        <time>2014-02-09T09:15:30Z</time>
      </trkpt>
      <trkpt lat="45.0891" lon="5.61958">
        <ele>1885.199951172</ele>
        <time>2014-02-09T09:15:36Z</time>
      </trkpt>
      <trkpt lat="45.0891" lon="5.61956">
        <ele>1885.800048828</ele>
        <time>2014-02-09T09:15:39Z</time>
      </trkpt>
      <trkpt lat="45.08911" lon="5.61952">
        <ele>1890</ele>
        <time>2014-02-09T09:15:42Z</time>
      </trkpt>
      <trkpt lat="45.08912" lon="5.61947">
        <ele>1895.199951172</ele>
        <time>2014-02-09T09:15:47Z</time>
      </trkpt>
      <trkpt lat="45.08912" lon="5.61944">
        <ele>1897.400024414</ele>
        <time>2014-02-09T09:15:48Z</time>
      </trkpt>
      <trkpt lat="45.08915" lon="5.61923">
        <ele>1916.400024414</ele>
        <time>2014-02-09T09:15:54Z</time>
      </trkpt>
      <trkpt lat="45.08915" lon="5.61896">
        <ele>1918</ele>
        <time>2014-02-09T09:15:58Z</time>
      </trkpt>
      <trkpt lat="45.08918" lon="5.61873">
        <ele>1914.400024414</ele>
        <time>2014-02-09T09:16:01Z</time>
      </trkpt>
      <trkpt lat="45.08926" lon="5.61839">
        <ele>1906.400024414</ele>
        <time>2014-02-09T09:16:05Z</time>
      </trkpt>
      <trkpt lat="45.08928" lon="5.61832">
        <ele>1904.400024414</ele>
        <time>2014-02-09T09:16:06Z</time>
      </trkpt>
      <trkpt lat="45.08934" lon="5.61809">
        <ele>1895.199951172</ele>
        <time>2014-02-09T09:16:09Z</time>
      </trkpt>
      <trkpt lat="45.08938" lon="5.61801">
        <ele>1892</ele>
        <time>2014-02-09T09:16:10Z</time>
      </trkpt>
      <trkpt lat="45.08948" lon="5.61783">
        <ele>1883.599975586</ele>
        <time>2014-02-09T09:16:13Z</time>
      </trkpt>
      <trkpt lat="45.08956" lon="5.61763">
        <ele>1875</ele>
        <time>2014-02-09T09:16:16Z</time>
      </trkpt>
      <trkpt lat="45.08965" lon="5.61746">
        <ele>1867.199951172</ele>
        <time>2014-02-09T09:16:19Z</time>
      </trkpt>
      <trkpt lat="45.08969" lon="5.61738">
        <ele>1863.800048828</ele>
        <time>2014-02-09T09:16:20Z</time>
      </trkpt>
      <trkpt lat="45.08974" lon="5.61738">
        <ele>1862.400024414</ele>
        <time>2014-02-09T09:16:21Z</time>
      </trkpt>
      <trkpt lat="45.08978" lon="5.6174">
        <ele>1862.199951172</ele>
        <time>2014-02-09T09:16:22Z</time>
      </trkpt>
      <trkpt lat="45.08991" lon="5.61747">
        <ele>1861.800048828</ele>
        <time>2014-02-09T09:16:27Z</time>
      </trkpt>
      <trkpt lat="45.08991" lon="5.61747">
        <ele>1861.800048828</ele>
        <time>2014-02-09T09:16:28Z</time>
      </trkpt>
      <trkpt lat="45.08991" lon="5.61742">
        <ele>1860</ele>
        <time>2014-02-09T09:16:30Z</time>
      </trkpt>
      <trkpt lat="45.0899" lon="5.61737">
        <ele>1858.599975586</ele>
        <time>2014-02-09T09:16:31Z</time>
      </trkpt>
      <trkpt lat="45.08986" lon="5.61719">
        <ele>1853.400024414</ele>
        <time>2014-02-09T09:16:34Z</time>
      </trkpt>
      <trkpt lat="45.08984" lon="5.61715">
        <ele>1852.400024414</ele>
        <time>2014-02-09T09:16:35Z</time>
      </trkpt>
      <trkpt lat="45.08979" lon="5.61695">
        <ele>1847</ele>
        <time>2014-02-09T09:16:39Z</time>
      </trkpt>
      <trkpt lat="45.08979" lon="5.61688">
        <ele>1844.400024414</ele>
        <time>2014-02-09T09:16:40Z</time>
      </trkpt>
      <trkpt lat="45.0899" lon="5.61695">
        <ele>1844</ele>
        <time>2014-02-09T09:16:42Z</time>
      </trkpt>
      <trkpt lat="45.09005" lon="5.61694">
        <ele>1840.199951172</ele>
        <time>2014-02-09T09:16:45Z</time>
      </trkpt>
      <trkpt lat="45.09014" lon="5.61696">
        <ele>1838.599975586</ele>
        <time>2014-02-09T09:16:46Z</time>
      </trkpt>
      <trkpt lat="45.09021" lon="5.61684">
        <ele>1832.199951172</ele>
        <time>2014-02-09T09:16:49Z</time>
      </trkpt>
      <trkpt lat="45.09009" lon="5.61662">
        <ele>1828.800048828</ele>
        <time>2014-02-09T09:16:51Z</time>
      </trkpt>
      <trkpt lat="45.09007" lon="5.61641">
        <ele>1824.800048828</ele>
        <time>2014-02-09T09:16:53Z</time>
      </trkpt>
      <trkpt lat="45.09008" lon="5.6163">
        <ele>1822.400024414</ele>
        <time>2014-02-09T09:16:54Z</time>
      </trkpt>
      <trkpt lat="45.0901" lon="5.61599">
        <ele>1815.199951172</ele>
        <time>2014-02-09T09:16:58Z</time>
      </trkpt>
      <trkpt lat="45.09009" lon="5.61581">
        <ele>1811.400024414</ele>
        <time>2014-02-09T09:17:00Z</time>
      </trkpt>
      <trkpt lat="45.09008" lon="5.61573">
        <ele>1809.199951172</ele>
        <time>2014-02-09T09:17:01Z</time>
      </trkpt>
      <trkpt lat="45.09006" lon="5.61562">
        <ele>1806.800048828</ele>
        <time>2014-02-09T09:17:03Z</time>
      </trkpt>
      <trkpt lat="45.09004" lon="5.61552">
        <ele>1804.400024414</ele>
        <time>2014-02-09T09:17:05Z</time>
      </trkpt>
      <trkpt lat="45.09003" lon="5.61549">
        <ele>1803.599975586</ele>
        <time>2014-02-09T09:17:07Z</time>
      </trkpt>
      <trkpt lat="45.09004" lon="5.61549">
        <ele>1803.800048828</ele>
        <time>2014-02-09T09:17:09Z</time>
      </trkpt>
      <trkpt lat="45.09004" lon="5.61551">
        <ele>1804</ele>
        <time>2014-02-09T09:17:15Z</time>
      </trkpt>
      <trkpt lat="45.09004" lon="5.61551">
        <ele>1804</ele>
        <time>2014-02-09T09:17:18Z</time>
      </trkpt>
      <trkpt lat="45.09005" lon="5.61552">
        <ele>1804.199951172</ele>
        <time>2014-02-09T09:17:24Z</time>
      </trkpt>
      <trkpt lat="45.09005" lon="5.61553">
        <ele>1804.199951172</ele>
        <time>2014-02-09T09:17:25Z</time>
      </trkpt>
      <trkpt lat="45.09005" lon="5.61553">
        <ele>1804.199951172</ele>
        <time>2014-02-09T09:17:26Z</time>
      </trkpt>
      <trkpt lat="45.09005" lon="5.61553">
        <ele>1804.199951172</ele>
        <time>2014-02-09T09:17:27Z</time>
      </trkpt>
      <trkpt lat="45.09005" lon="5.61553">
        <ele>1804.199951172</ele>
        <time>2014-02-09T09:17:28Z</time>
      </trkpt>
      <trkpt lat="45.09005" lon="5.61553">
        <ele>1804.400024414</ele>
        <time>2014-02-09T09:17:29Z</time>
      </trkpt>
      <trkpt lat="45.09005" lon="5.61553">
        <ele>1804.400024414</ele>
        <time>2014-02-09T09:17:30Z</time>
      </trkpt>
      <trkpt lat="45.09005" lon="5.61553">
        <ele>1804.400024414</ele>
        <time>2014-02-09T09:17:33Z</time>
      </trkpt>
      <trkpt lat="45.09005" lon="5.61554">
        <ele>1804.599975586</ele>
        <time>2014-02-09T09:17:35Z</time>
      </trkpt>
      <trkpt lat="45.09005" lon="5.61554">
        <ele>1804.599975586</ele>
        <time>2014-02-09T09:17:36Z</time>
      </trkpt>
      <trkpt lat="45.09005" lon="5.61554">
        <ele>1804.599975586</ele>
        <time>2014-02-09T09:17:37Z</time>
      </trkpt>
      <trkpt lat="45.09005" lon="5.61554">
        <ele>1804.599975586</ele>
        <time>2014-02-09T09:17:38Z</time>
      </trkpt>
      <trkpt lat="45.09005" lon="5.61554">
        <ele>1804.599975586</ele>
        <time>2014-02-09T09:17:39Z</time>
      </trkpt>
      <trkpt lat="45.09005" lon="5.61554">
        <ele>1804.599975586</ele>
        <time>2014-02-09T09:17:40Z</time>
      </trkpt>
      <trkpt lat="45.09005" lon="5.61554">
        <ele>1804.400024414</ele>
        <time>2014-02-09T09:17:41Z</time>
      </trkpt>
      <trkpt lat="45.09005" lon="5.61554">
        <ele>1804.599975586</ele>
        <time>2014-02-09T09:17:42Z</time>
      </trkpt>
      <trkpt lat="45.09005" lon="5.61554">
        <ele>1804.400024414</ele>
        <time>2014-02-09T09:17:43Z</time>
      </trkpt>
      <trkpt lat="45.09005" lon="5.61554">
        <ele>1804.599975586</ele>
        <time>2014-02-09T09:17:44Z</time>
      </trkpt>
      <trkpt lat="45.09005" lon="5.61554">
        <ele>1804.400024414</ele>
        <time>2014-02-09T09:17:45Z</time>
      </trkpt>
      <trkpt lat="45.09005" lon="5.61554">
        <ele>1804.599975586</ele>
        <time>2014-02-09T09:17:47Z</time>
      </trkpt>
      <trkpt lat="45.09005" lon="5.61554">
        <ele>1804.599975586</ele>
        <time>2014-02-09T09:17:49Z</time>
      </trkpt>
      <trkpt lat="45.09006" lon="5.61554">
        <ele>1804.599975586</ele>
        <time>2014-02-09T09:17:51Z</time>
      </trkpt>
      <trkpt lat="45.09006" lon="5.61554">
        <ele>1804.599975586</ele>
        <time>2014-02-09T09:17:53Z</time>
      </trkpt>
      <trkpt lat="45.09006" lon="5.61555">
        <ele>1804.599975586</ele>
        <time>2014-02-09T09:17:57Z</time>
      </trkpt>
      <trkpt lat="45.09006" lon="5.61555">
        <ele>1804.599975586</ele>
        <time>2014-02-09T09:18:00Z</time>
      </trkpt>
      <trkpt lat="45.09006" lon="5.61554">
        <ele>1804.599975586</ele>
        <time>2014-02-09T09:18:01Z</time>
      </trkpt>
      <trkpt lat="45.09006" lon="5.61555">
        <ele>1804.599975586</ele>
        <time>2014-02-09T09:18:09Z</time>
      </trkpt>
      <trkpt lat="45.09006" lon="5.61554">
        <ele>1804.599975586</ele>
        <time>2014-02-09T09:18:22Z</time>
      </trkpt>
      <trkpt lat="45.09006" lon="5.61554">
        <ele>1804.599975586</ele>
        <time>2014-02-09T09:18:23Z</time>
      </trkpt>
      <trkpt lat="45.09005" lon="5.61555">
        <ele>1805</ele>
        <time>2014-02-09T09:18:27Z</time>
      </trkpt>
      <trkpt lat="45.09005" lon="5.61556">
        <ele>1805.199951172</ele>
        <time>2014-02-09T09:18:32Z</time>
      </trkpt>
      <trkpt lat="45.09005" lon="5.61556">
        <ele>1805.199951172</ele>
        <time>2014-02-09T09:18:33Z</time>
      </trkpt>
      <trkpt lat="45.09005" lon="5.61556">
        <ele>1805.199951172</ele>
        <time>2014-02-09T09:18:34Z</time>
      </trkpt>
      <trkpt lat="45.09006" lon="5.61557">
        <ele>1805.199951172</ele>
        <time>2014-02-09T09:18:37Z</time>
      </trkpt>
      <trkpt lat="45.09006" lon="5.61557">
        <ele>1805.400024414</ele>
        <time>2014-02-09T09:18:40Z</time>
      </trkpt>
      <trkpt lat="45.09006" lon="5.61558">
        <ele>1805.400024414</ele>
        <time>2014-02-09T09:18:44Z</time>
      </trkpt>
      <trkpt lat="45.09006" lon="5.61558">
        <ele>1805.400024414</ele>
        <time>2014-02-09T09:18:47Z</time>
      </trkpt>
      <trkpt lat="45.09006" lon="5.61557">
        <ele>1805.199951172</ele>
        <time>2014-02-09T09:18:50Z</time>
      </trkpt>
      <trkpt lat="45.09006" lon="5.61557">
        <ele>1805.199951172</ele>
        <time>2014-02-09T09:18:53Z</time>
      </trkpt>
      <trkpt lat="45.09006" lon="5.61556">
        <ele>1805</ele>
        <time>2014-02-09T09:19:00Z</time>
      </trkpt>
      <trkpt lat="45.09007" lon="5.61556">
        <ele>1805</ele>
        <time>2014-02-09T09:19:03Z</time>
      </trkpt>
      <trkpt lat="45.09007" lon="5.61556">
        <ele>1804.599975586</ele>
        <time>2014-02-09T09:19:11Z</time>
      </trkpt>
      <trkpt lat="45.09013" lon="5.61557">
        <ele>1803.199951172</ele>
        <time>2014-02-09T09:19:14Z</time>
      </trkpt>
      <trkpt lat="45.09028" lon="5.61553">
        <ele>1797.199951172</ele>
        <time>2014-02-09T09:19:17Z</time>
      </trkpt>
      <trkpt lat="45.09049" lon="5.61546">
        <ele>1788.800048828</ele>
        <time>2014-02-09T09:19:20Z</time>
      </trkpt>
      <trkpt lat="45.09056" lon="5.61546">
        <ele>1786.400024414</ele>
        <time>2014-02-09T09:19:21Z</time>
      </trkpt>
      <trkpt lat="45.09068" lon="5.61521">
        <ele>1775.400024414</ele>
        <time>2014-02-09T09:19:24Z</time>
      </trkpt>
      <trkpt lat="45.09056" lon="5.615">
        <ele>1773.199951172</ele>
        <time>2014-02-09T09:19:26Z</time>
      </trkpt>
      <trkpt lat="45.09052" lon="5.61479">
        <ele>1769.599975586</ele>
        <time>2014-02-09T09:19:28Z</time>
      </trkpt>
      <trkpt lat="45.09048" lon="5.61469">
        <ele>1768.400024414</ele>
        <time>2014-02-09T09:19:29Z</time>
      </trkpt>
      <trkpt lat="45.09043" lon="5.61461">
        <ele>1767.400024414</ele>
        <time>2014-02-09T09:19:30Z</time>
      </trkpt>
      <trkpt lat="45.09035" lon="5.61451">
        <ele>1766.800048828</ele>
        <time>2014-02-09T09:19:32Z</time>
      </trkpt>
      <trkpt lat="45.09031" lon="5.61446">
        <ele>1766.400024414</ele>
        <time>2014-02-09T09:19:33Z</time>
      </trkpt>
      <trkpt lat="45.09022" lon="5.61432">
        <ele>1764</ele>
        <time>2014-02-09T09:19:35Z</time>
      </trkpt>
      <trkpt lat="45.09021" lon="5.61416">
        <ele>1759.800048828</ele>
        <time>2014-02-09T09:19:37Z</time>
      </trkpt>
      <trkpt lat="45.09017" lon="5.61403">
        <ele>1757.800048828</ele>
        <time>2014-02-09T09:19:39Z</time>
      </trkpt>
      <trkpt lat="45.0901" lon="5.61391">
        <ele>1756.400024414</ele>
        <time>2014-02-09T09:19:41Z</time>
      </trkpt>
      <trkpt lat="45.08998" lon="5.61362">
        <ele>1751.800048828</ele>
        <time>2014-02-09T09:19:45Z</time>
      </trkpt>
      <trkpt lat="45.08996" lon="5.61351">
        <ele>1750.599975586</ele>
        <time>2014-02-09T09:19:46Z</time>
      </trkpt>
      <trkpt lat="45.08992" lon="5.61329">
        <ele>1747.599975586</ele>
        <time>2014-02-09T09:19:48Z</time>
      </trkpt>
      <trkpt lat="45.08994" lon="5.61304">
        <ele>1743.800048828</ele>
        <time>2014-02-09T09:19:50Z</time>
      </trkpt>
      <trkpt lat="45.09" lon="5.61278">
        <ele>1738.599975586</ele>
        <time>2014-02-09T09:19:53Z</time>
      </trkpt>
      <trkpt lat="45.09002" lon="5.6127">
        <ele>1737.199951172</ele>
        <time>2014-02-09T09:19:54Z</time>
      </trkpt>
      <trkpt lat="45.0901" lon="5.61253">
        <ele>1734.599975586</ele>
        <time>2014-02-09T09:19:57Z</time>
      </trkpt>
      <trkpt lat="45.0902" lon="5.61231">
        <ele>1728.800048828</ele>
        <time>2014-02-09T09:20:00Z</time>
      </trkpt>
      <trkpt lat="45.09025" lon="5.61223">
        <ele>1726.400024414</ele>
        <time>2014-02-09T09:20:01Z</time>
      </trkpt>
      <trkpt lat="45.09038" lon="5.61194">
        <ele>1718</ele>
        <time>2014-02-09T09:20:04Z</time>
      </trkpt>
      <trkpt lat="45.09045" lon="5.61158">
        <ele>1708.800048828</ele>
        <time>2014-02-09T09:20:07Z</time>
      </trkpt>
      <trkpt lat="45.09051" lon="5.61124">
        <ele>1700.199951172</ele>
        <time>2014-02-09T09:20:10Z</time>
      </trkpt>
      <trkpt lat="45.09054" lon="5.61095">
        <ele>1693.400024414</ele>
        <time>2014-02-09T09:20:12Z</time>
      </trkpt>
      <trkpt lat="45.09058" lon="5.61064">
        <ele>1686</ele>
        <time>2014-02-09T09:20:15Z</time>
      </trkpt>
      <trkpt lat="45.09062" lon="5.61052">
        <ele>1683.199951172</ele>
        <time>2014-02-09T09:20:16Z</time>
      </trkpt>
      <trkpt lat="45.09061" lon="5.6104">
        <ele>1680.199951172</ele>
        <time>2014-02-09T09:20:18Z</time>
      </trkpt>
      <trkpt lat="45.09059" lon="5.61019">
        <ele>1675</ele>
        <time>2014-02-09T09:20:21Z</time>
      </trkpt>
      <trkpt lat="45.09054" lon="5.61014">
        <ele>1673.800048828</ele>
        <time>2014-02-09T09:20:22Z</time>
      </trkpt>
      <trkpt lat="45.09046" lon="5.60998">
        <ele>1669.800048828</ele>
        <time>2014-02-09T09:20:25Z</time>
      </trkpt>
      <trkpt lat="45.09039" lon="5.6097">
        <ele>1663.800048828</ele>
        <time>2014-02-09T09:20:29Z</time>
      </trkpt>
      <trkpt lat="45.09037" lon="5.60955">
        <ele>1660.599975586</ele>
        <time>2014-02-09T09:20:32Z</time>
      </trkpt>
      <trkpt lat="45.09039" lon="5.60959">
        <ele>1661.400024414</ele>
        <time>2014-02-09T09:20:33Z</time>
      </trkpt>
      <trkpt lat="45.0904" lon="5.60958">
        <ele>1661.199951172</ele>
        <time>2014-02-09T09:20:35Z</time>
      </trkpt>
      <trkpt lat="45.09039" lon="5.60945">
        <ele>1658.599975586</ele>
        <time>2014-02-09T09:20:38Z</time>
      </trkpt>
      <trkpt lat="45.09039" lon="5.60935">
        <ele>1656.400024414</ele>
        <time>2014-02-09T09:20:39Z</time>
      </trkpt>
      <trkpt lat="45.09043" lon="5.6091">
        <ele>1651.599975586</ele>
        <time>2014-02-09T09:20:41Z</time>
      </trkpt>
      <trkpt lat="45.09043" lon="5.60897">
        <ele>1650.199951172</ele>
        <time>2014-02-09T09:20:42Z</time>
      </trkpt>
      <trkpt lat="45.09048" lon="5.6087">
        <ele>1646.400024414</ele>
        <time>2014-02-09T09:20:44Z</time>
      </trkpt>
      <trkpt lat="45.09052" lon="5.60859">
        <ele>1644.800048828</ele>
        <time>2014-02-09T09:20:45Z</time>
      </trkpt>
      <trkpt lat="45.09063" lon="5.60847">
        <ele>1641.199951172</ele>
        <time>2014-02-09T09:20:47Z</time>
      </trkpt>
      <trkpt lat="45.09075" lon="5.60818">
        <ele>1635.400024414</ele>
        <time>2014-02-09T09:20:50Z</time>
      </trkpt>
      <trkpt lat="45.0908" lon="5.60808">
        <ele>1633.599975586</ele>
        <time>2014-02-09T09:20:51Z</time>
      </trkpt>
      <trkpt lat="45.09092" lon="5.60786">
        <ele>1630.800048828</ele>
        <time>2014-02-09T09:20:53Z</time>
      </trkpt>
      <trkpt lat="45.09099" lon="5.60779">
        <ele>1629.800048828</ele>
        <time>2014-02-09T09:20:54Z</time>
      </trkpt>
      <trkpt lat="45.09109" lon="5.60777">
        <ele>1629.400024414</ele>
        <time>2014-02-09T09:20:56Z</time>
      </trkpt>
      <trkpt lat="45.09111" lon="5.60771">
        <ele>1628.599975586</ele>
        <time>2014-02-09T09:20:59Z</time>
      </trkpt>
      <trkpt lat="45.09109" lon="5.60768">
        <ele>1628.199951172</ele>
        <time>2014-02-09T09:21:03Z</time>
      </trkpt>
      <trkpt lat="45.09109" lon="5.60766">
        <ele>1628</ele>
        <time>2014-02-09T09:21:04Z</time>
      </trkpt>
      <trkpt lat="45.09109" lon="5.60763">
        <ele>1627.599975586</ele>
        <time>2014-02-09T09:21:07Z</time>
      </trkpt>
      <trkpt lat="45.09108" lon="5.60761">
        <ele>1627.400024414</ele>
        <time>2014-02-09T09:21:10Z</time>
      </trkpt>
      <trkpt lat="45.09109" lon="5.60755">
        <ele>1626.800048828</ele>
        <time>2014-02-09T09:21:16Z</time>
      </trkpt>
      <trkpt lat="45.09111" lon="5.60745">
        <ele>1623.800048828</ele>
        <time>2014-02-09T09:21:22Z</time>
      </trkpt>
      <trkpt lat="45.09117" lon="5.60731">
        <ele>1617</ele>
        <time>2014-02-09T09:21:24Z</time>
      </trkpt>
      <trkpt lat="45.09122" lon="5.60729">
        <ele>1615.400024414</ele>
        <time>2014-02-09T09:21:25Z</time>
      </trkpt>
      <trkpt lat="45.09126" lon="5.60729">
        <ele>1615</ele>
        <time>2014-02-09T09:21:26Z</time>
      </trkpt>
      <trkpt lat="45.0913" lon="5.60729">
        <ele>1614.400024414</ele>
        <time>2014-02-09T09:21:27Z</time>
      </trkpt>
      <trkpt lat="45.09133" lon="5.6073">
        <ele>1614.599975586</ele>
        <time>2014-02-09T09:21:28Z</time>
      </trkpt>
      <trkpt lat="45.09135" lon="5.6073">
        <ele>1614.599975586</ele>
        <time>2014-02-09T09:21:29Z</time>
      </trkpt>
      <trkpt lat="45.09143" lon="5.60731">
        <ele>1614.199951172</ele>
        <time>2014-02-09T09:21:33Z</time>
      </trkpt>
      <trkpt lat="45.0916" lon="5.60732">
        <ele>1612.400024414</ele>
        <time>2014-02-09T09:21:37Z</time>
      </trkpt>
      <trkpt lat="45.09182" lon="5.60728">
        <ele>1606.400024414</ele>
        <time>2014-02-09T09:21:41Z</time>
      </trkpt>
      <trkpt lat="45.09195" lon="5.60728">
        <ele>1603.599975586</ele>
        <time>2014-02-09T09:21:43Z</time>
      </trkpt>
      <trkpt lat="45.0921" lon="5.60729">
        <ele>1601.400024414</ele>
        <time>2014-02-09T09:21:45Z</time>
      </trkpt>
      <trkpt lat="45.09218" lon="5.60727">
        <ele>1598.599975586</ele>
        <time>2014-02-09T09:21:46Z</time>
      </trkpt>
      <trkpt lat="45.09227" lon="5.60725">
        <ele>1595.800048828</ele>
        <time>2014-02-09T09:21:47Z</time>
      </trkpt>
      <trkpt lat="45.09234" lon="5.60725">
        <ele>1594.199951172</ele>
        <time>2014-02-09T09:21:48Z</time>
      </trkpt>
      <trkpt lat="45.09249" lon="5.60726">
        <ele>1592.199951172</ele>
        <time>2014-02-09T09:21:50Z</time>
      </trkpt>
      <trkpt lat="45.09255" lon="5.60726">
        <ele>1590.400024414</ele>
        <time>2014-02-09T09:21:51Z</time>
      </trkpt>
      <trkpt lat="45.09277" lon="5.60725">
        <ele>1585.400024414</ele>
        <time>2014-02-09T09:21:55Z</time>
      </trkpt>
      <trkpt lat="45.09281" lon="5.60723">
        <ele>1583.400024414</ele>
        <time>2014-02-09T09:21:56Z</time>
      </trkpt>
      <trkpt lat="45.09285" lon="5.60723">
        <ele>1582.599975586</ele>
        <time>2014-02-09T09:21:59Z</time>
      </trkpt>
      <trkpt lat="45.09298" lon="5.60723">
        <ele>1579.599975586</ele>
        <time>2014-02-09T09:22:04Z</time>
      </trkpt>
      <trkpt lat="45.09319" lon="5.60731">
        <ele>1579</ele>
        <time>2014-02-09T09:22:09Z</time>
      </trkpt>
      <trkpt lat="45.09337" lon="5.60721">
        <ele>1570.400024414</ele>
        <time>2014-02-09T09:22:13Z</time>
      </trkpt>
      <trkpt lat="45.09347" lon="5.60713">
        <ele>1566.400024414</ele>
        <time>2014-02-09T09:22:15Z</time>
      </trkpt>
      <trkpt lat="45.09363" lon="5.60695">
        <ele>1557</ele>
        <time>2014-02-09T09:22:18Z</time>
      </trkpt>
      <trkpt lat="45.0937" lon="5.60691">
        <ele>1554.800048828</ele>
        <time>2014-02-09T09:22:19Z</time>
      </trkpt>
      <trkpt lat="45.09384" lon="5.60682">
        <ele>1549.800048828</ele>
        <time>2014-02-09T09:22:21Z</time>
      </trkpt>
      <trkpt lat="45.0939" lon="5.60681">
        <ele>1549.199951172</ele>
        <time>2014-02-09T09:22:22Z</time>
      </trkpt>
      <trkpt lat="45.09398" lon="5.60676">
        <ele>1546</ele>
        <time>2014-02-09T09:22:24Z</time>
      </trkpt>
      <trkpt lat="45.09409" lon="5.60657">
        <ele>1538</ele>
        <time>2014-02-09T09:22:27Z</time>
      </trkpt>
      <trkpt lat="45.0941" lon="5.60654">
        <ele>1537</ele>
        <time>2014-02-09T09:22:28Z</time>
      </trkpt>
      <trkpt lat="45.09406" lon="5.60658">
        <ele>1538.199951172</ele>
        <time>2014-02-09T09:22:30Z</time>
      </trkpt>
      <trkpt lat="45.09405" lon="5.60659">
        <ele>1538.800048828</ele>
        <time>2014-02-09T09:22:31Z</time>
      </trkpt>
      <trkpt lat="45.09405" lon="5.60654">
        <ele>1537</ele>
        <time>2014-02-09T09:22:33Z</time>
      </trkpt>
      <trkpt lat="45.09407" lon="5.60649">
        <ele>1535.400024414</ele>
        <time>2014-02-09T09:22:34Z</time>
      </trkpt>
      <trkpt lat="45.09413" lon="5.60621">
        <ele>1525.400024414</ele>
        <time>2014-02-09T09:22:37Z</time>
      </trkpt>
      <trkpt lat="45.09425" lon="5.60595">
        <ele>1515.400024414</ele>
        <time>2014-02-09T09:22:41Z</time>
      </trkpt>
      <trkpt lat="45.09429" lon="5.60595">
        <ele>1514.800048828</ele>
        <time>2014-02-09T09:22:42Z</time>
      </trkpt>
      <trkpt lat="45.09424" lon="5.60588">
        <ele>1513</ele>
        <time>2014-02-09T09:22:44Z</time>
      </trkpt>
      <trkpt lat="45.09422" lon="5.60586">
        <ele>1512.400024414</ele>
        <time>2014-02-09T09:22:45Z</time>
      </trkpt>
      <trkpt lat="45.0942" lon="5.60583">
        <ele>1511.599975586</ele>
        <time>2014-02-09T09:22:48Z</time>
      </trkpt>
      <trkpt lat="45.09415" lon="5.60572">
        <ele>1509.199951172</ele>
        <time>2014-02-09T09:22:52Z</time>
      </trkpt>
      <trkpt lat="45.09411" lon="5.60561">
        <ele>1507</ele>
        <time>2014-02-09T09:22:56Z</time>
      </trkpt>
      <trkpt lat="45.09411" lon="5.60557">
        <ele>1506</ele>
        <time>2014-02-09T09:22:57Z</time>
      </trkpt>
      <trkpt lat="45.09413" lon="5.60553">
        <ele>1505</ele>
        <time>2014-02-09T09:23:00Z</time>
      </trkpt>
      <trkpt lat="45.09417" lon="5.60552">
        <ele>1504.599975586</ele>
        <time>2014-02-09T09:23:02Z</time>
      </trkpt>
      <trkpt lat="45.09421" lon="5.60554">
        <ele>1504.400024414</ele>
        <time>2014-02-09T09:23:05Z</time>
      </trkpt>
      <trkpt lat="45.09433" lon="5.60555">
        <ele>1503.599975586</ele>
        <time>2014-02-09T09:23:09Z</time>
      </trkpt>
      <trkpt lat="45.09441" lon="5.60555">
        <ele>1502.800048828</ele>
        <time>2014-02-09T09:23:13Z</time>
      </trkpt>
      <trkpt lat="45.09444" lon="5.60553">
        <ele>1502</ele>
        <time>2014-02-09T09:23:15Z</time>
      </trkpt>
      <trkpt lat="45.09445" lon="5.6055">
        <ele>1501</ele>
        <time>2014-02-09T09:23:17Z</time>
      </trkpt>
      <trkpt lat="45.09448" lon="5.60537">
        <ele>1497.599975586</ele>
        <time>2014-02-09T09:23:20Z</time>
      </trkpt>
      <trkpt lat="45.09448" lon="5.60506">
        <ele>1490</ele>
        <time>2014-02-09T09:23:24Z</time>
      </trkpt>
      <trkpt lat="45.09457" lon="5.6049">
        <ele>1485.199951172</ele>
        <time>2014-02-09T09:23:27Z</time>
      </trkpt>
      <trkpt lat="45.09461" lon="5.60469">
        <ele>1479.599975586</ele>
        <time>2014-02-09T09:23:31Z</time>
      </trkpt>
      <trkpt lat="45.09448" lon="5.6045">
        <ele>1476.800048828</ele>
        <time>2014-02-09T09:23:34Z</time>
      </trkpt>
      <trkpt lat="45.09442" lon="5.60428">
        <ele>1472.199951172</ele>
        <time>2014-02-09T09:23:37Z</time>
      </trkpt>
      <trkpt lat="45.0944" lon="5.60419">
        <ele>1470.400024414</ele>
        <time>2014-02-09T09:23:38Z</time>
      </trkpt>
      <trkpt lat="45.09447" lon="5.60414">
        <ele>1468.400024414</ele>
        <time>2014-02-09T09:23:39Z</time>
      </trkpt>
      <trkpt lat="45.09454" lon="5.60412">
        <ele>1467.199951172</ele>
        <time>2014-02-09T09:23:40Z</time>
      </trkpt>
      <trkpt lat="45.09473" lon="5.60419">
        <ele>1466.199951172</ele>
        <time>2014-02-09T09:23:42Z</time>
      </trkpt>
      <trkpt lat="45.09492" lon="5.60426">
        <ele>1465.400024414</ele>
        <time>2014-02-09T09:23:45Z</time>
      </trkpt>
      <trkpt lat="45.09499" lon="5.60429">
        <ele>1465.199951172</ele>
        <time>2014-02-09T09:23:46Z</time>
      </trkpt>
      <trkpt lat="45.09505" lon="5.60428">
        <ele>1463.800048828</ele>
        <time>2014-02-09T09:23:47Z</time>
      </trkpt>
      <trkpt lat="45.09511" lon="5.60425">
        <ele>1461.800048828</ele>
        <time>2014-02-09T09:23:50Z</time>
      </trkpt>
      <trkpt lat="45.0951" lon="5.60425">
        <ele>1462</ele>
        <time>2014-02-09T09:23:51Z</time>
      </trkpt>
      <trkpt lat="45.09519" lon="5.60424">
        <ele>1459.800048828</ele>
        <time>2014-02-09T09:23:55Z</time>
      </trkpt>
      <trkpt lat="45.09526" lon="5.60427">
        <ele>1459.199951172</ele>
        <time>2014-02-09T09:23:59Z</time>
      </trkpt>
      <trkpt lat="45.09532" lon="5.60429">
        <ele>1458.400024414</ele>
        <time>2014-02-09T09:24:01Z</time>
      </trkpt>
      <trkpt lat="45.09537" lon="5.60429">
        <ele>1457.199951172</ele>
        <time>2014-02-09T09:24:03Z</time>
      </trkpt>
      <trkpt lat="45.09548" lon="5.60427">
        <ele>1454.199951172</ele>
        <time>2014-02-09T09:24:06Z</time>
      </trkpt>
      <trkpt lat="45.09557" lon="5.60429">
        <ele>1453</ele>
        <time>2014-02-09T09:24:09Z</time>
      </trkpt>
      <trkpt lat="45.09562" lon="5.60427">
        <ele>1451.599975586</ele>
        <time>2014-02-09T09:24:10Z</time>
      </trkpt>
      <trkpt lat="45.09577" lon="5.60426">
        <ele>1448.199951172</ele>
        <time>2014-02-09T09:24:14Z</time>
      </trkpt>
      <trkpt lat="45.0958" lon="5.60412">
        <ele>1443.800048828</ele>
        <time>2014-02-09T09:24:17Z</time>
      </trkpt>
      <trkpt lat="45.09576" lon="5.60396">
        <ele>1441.800048828</ele>
        <time>2014-02-09T09:24:20Z</time>
      </trkpt>
      <trkpt lat="45.09575" lon="5.60394">
        <ele>1441.599975586</ele>
        <time>2014-02-09T09:24:21Z</time>
      </trkpt>
      <trkpt lat="45.09574" lon="5.60393">
        <ele>1441.599975586</ele>
        <time>2014-02-09T09:24:23Z</time>
      </trkpt>
      <trkpt lat="45.09575" lon="5.60392">
        <ele>1441.199951172</ele>
        <time>2014-02-09T09:24:28Z</time>
      </trkpt>
      <trkpt lat="45.09578" lon="5.60387">
        <ele>1439.800048828</ele>
        <time>2014-02-09T09:24:30Z</time>
      </trkpt>
      <trkpt lat="45.09583" lon="5.6038">
        <ele>1437.400024414</ele>
        <time>2014-02-09T09:24:32Z</time>
      </trkpt>
      <trkpt lat="45.09592" lon="5.60369">
        <ele>1434.400024414</ele>
        <time>2014-02-09T09:24:34Z</time>
      </trkpt>
      <trkpt lat="45.09604" lon="5.60363">
        <ele>1432.400024414</ele>
        <time>2014-02-09T09:24:36Z</time>
      </trkpt>
      <trkpt lat="45.09618" lon="5.60356">
        <ele>1429.800048828</ele>
        <time>2014-02-09T09:24:38Z</time>
      </trkpt>
      <trkpt lat="45.09632" lon="5.60346">
        <ele>1427.199951172</ele>
        <time>2014-02-09T09:24:40Z</time>
      </trkpt>
      <trkpt lat="45.09653" lon="5.60331">
        <ele>1424.199951172</ele>
        <time>2014-02-09T09:24:43Z</time>
      </trkpt>
      <trkpt lat="45.09677" lon="5.6032">
        <ele>1423.199951172</ele>
        <time>2014-02-09T09:24:46Z</time>
      </trkpt>
      <trkpt lat="45.09693" lon="5.60312">
        <ele>1422.400024414</ele>
        <time>2014-02-09T09:24:48Z</time>
      </trkpt>
      <trkpt lat="45.09719" lon="5.60306">
        <ele>1420.800048828</ele>
        <time>2014-02-09T09:24:51Z</time>
      </trkpt>
      <trkpt lat="45.09727" lon="5.60307">
        <ele>1420</ele>
        <time>2014-02-09T09:24:52Z</time>
      </trkpt>
      <trkpt lat="45.09751" lon="5.60307">
        <ele>1417.599975586</ele>
        <time>2014-02-09T09:24:55Z</time>
      </trkpt>
      <trkpt lat="45.09769" lon="5.60305">
        <ele>1413.400024414</ele>
        <time>2014-02-09T09:24:57Z</time>
      </trkpt>
      <trkpt lat="45.09788" lon="5.60303">
        <ele>1408.800048828</ele>
        <time>2014-02-09T09:24:59Z</time>
      </trkpt>
      <trkpt lat="45.09807" lon="5.60302">
        <ele>1404.199951172</ele>
        <time>2014-02-09T09:25:01Z</time>
      </trkpt>
      <trkpt lat="45.09826" lon="5.60301">
        <ele>1399.400024414</ele>
        <time>2014-02-09T09:25:03Z</time>
      </trkpt>
      <trkpt lat="45.09836" lon="5.60301">
        <ele>1397.199951172</ele>
        <time>2014-02-09T09:25:04Z</time>
      </trkpt>
      <trkpt lat="45.09854" lon="5.60305">
        <ele>1394.199951172</ele>
        <time>2014-02-09T09:25:06Z</time>
      </trkpt>
      <trkpt lat="45.09862" lon="5.60306">
        <ele>1392.800048828</ele>
        <time>2014-02-09T09:25:07Z</time>
      </trkpt>
      <trkpt lat="45.09871" lon="5.60306">
        <ele>1391.800048828</ele>
        <time>2014-02-09T09:25:08Z</time>
      </trkpt>
      <trkpt lat="45.09879" lon="5.60305">
        <ele>1390.599975586</ele>
        <time>2014-02-09T09:25:09Z</time>
      </trkpt>
      <trkpt lat="45.09903" lon="5.60302">
        <ele>1387.599975586</ele>
        <time>2014-02-09T09:25:12Z</time>
      </trkpt>
      <trkpt lat="45.09911" lon="5.60302">
        <ele>1386.599975586</ele>
        <time>2014-02-09T09:25:13Z</time>
      </trkpt>
      <trkpt lat="45.09926" lon="5.60301">
        <ele>1384.599975586</ele>
        <time>2014-02-09T09:25:15Z</time>
      </trkpt>
      <trkpt lat="45.09948" lon="5.60298">
        <ele>1382.599975586</ele>
        <time>2014-02-09T09:25:18Z</time>
      </trkpt>
      <trkpt lat="45.09955" lon="5.60297">
        <ele>1382</ele>
        <time>2014-02-09T09:25:19Z</time>
      </trkpt>
      <trkpt lat="45.09975" lon="5.60297">
        <ele>1380</ele>
        <time>2014-02-09T09:25:22Z</time>
      </trkpt>
      <trkpt lat="45.09982" lon="5.60297">
        <ele>1379.199951172</ele>
        <time>2014-02-09T09:25:23Z</time>
      </trkpt>
      <trkpt lat="45.10004" lon="5.603">
        <ele>1376.199951172</ele>
        <time>2014-02-09T09:25:26Z</time>
      </trkpt>
      <trkpt lat="45.10011" lon="5.603">
        <ele>1374.800048828</ele>
        <time>2014-02-09T09:25:27Z</time>
      </trkpt>
      <trkpt lat="45.10018" lon="5.60301">
        <ele>1373.400024414</ele>
        <time>2014-02-09T09:25:28Z</time>
      </trkpt>
      <trkpt lat="45.10039" lon="5.60298">
        <ele>1369.599975586</ele>
        <time>2014-02-09T09:25:31Z</time>
      </trkpt>
      <trkpt lat="45.10062" lon="5.603">
        <ele>1365.199951172</ele>
        <time>2014-02-09T09:25:34Z</time>
      </trkpt>
      <trkpt lat="45.10069" lon="5.60301">
        <ele>1363.599975586</ele>
        <time>2014-02-09T09:25:35Z</time>
      </trkpt>
      <trkpt lat="45.10076" lon="5.60301">
        <ele>1362.400024414</ele>
        <time>2014-02-09T09:25:36Z</time>
      </trkpt>
      <trkpt lat="45.10097" lon="5.60305">
        <ele>1360</ele>
        <time>2014-02-09T09:25:39Z</time>
      </trkpt>
      <trkpt lat="45.10111" lon="5.60307">
        <ele>1359.400024414</ele>
        <time>2014-02-09T09:25:41Z</time>
      </trkpt>
      <trkpt lat="45.10133" lon="5.603">
        <ele>1360</ele>
        <time>2014-02-09T09:25:44Z</time>
      </trkpt>
      <trkpt lat="45.10153" lon="5.60297">
        <ele>1360</ele>
        <time>2014-02-09T09:25:47Z</time>
      </trkpt>
      <trkpt lat="45.1016" lon="5.60296">
        <ele>1360.199951172</ele>
        <time>2014-02-09T09:25:48Z</time>
      </trkpt>
      <trkpt lat="45.10167" lon="5.60295">
        <ele>1360.199951172</ele>
        <time>2014-02-09T09:25:49Z</time>
      </trkpt>
      <trkpt lat="45.10191" lon="5.60296">
        <ele>1359.199951172</ele>
        <time>2014-02-09T09:25:52Z</time>
      </trkpt>
      <trkpt lat="45.1021" lon="5.603">
        <ele>1357.400024414</ele>
        <time>2014-02-09T09:25:54Z</time>
      </trkpt>
      <trkpt lat="45.10221" lon="5.60303">
        <ele>1356.400024414</ele>
        <time>2014-02-09T09:25:55Z</time>
      </trkpt>
      <trkpt lat="45.10242" lon="5.6031">
        <ele>1354</ele>
        <time>2014-02-09T09:25:57Z</time>
      </trkpt>
      <trkpt lat="45.10261" lon="5.60318">
        <ele>1350.800048828</ele>
        <time>2014-02-09T09:25:59Z</time>
      </trkpt>
      <trkpt lat="45.1028" lon="5.60322">
        <ele>1347</ele>
        <time>2014-02-09T09:26:01Z</time>
      </trkpt>
      <trkpt lat="45.10298" lon="5.60322">
        <ele>1344.599975586</ele>
        <time>2014-02-09T09:26:03Z</time>
      </trkpt>
      <trkpt lat="45.10305" lon="5.60323">
        <ele>1343.400024414</ele>
        <time>2014-02-09T09:26:04Z</time>
      </trkpt>
      <trkpt lat="45.10325" lon="5.6032">
        <ele>1341.599975586</ele>
        <time>2014-02-09T09:26:07Z</time>
      </trkpt>
      <trkpt lat="45.10331" lon="5.60319">
        <ele>1340.800048828</ele>
        <time>2014-02-09T09:26:08Z</time>
      </trkpt>
      <trkpt lat="45.10336" lon="5.6032">
        <ele>1339.800048828</ele>
        <time>2014-02-09T09:26:09Z</time>
      </trkpt>
      <trkpt lat="45.10354" lon="5.60326">
        <ele>1336</ele>
        <time>2014-02-09T09:26:12Z</time>
      </trkpt>
      <trkpt lat="45.10377" lon="5.60334">
        <ele>1330.199951172</ele>
        <time>2014-02-09T09:26:16Z</time>
      </trkpt>
      <trkpt lat="45.1039" lon="5.60335">
        <ele>1328.400024414</ele>
        <time>2014-02-09T09:26:18Z</time>
      </trkpt>
      <trkpt lat="45.10411" lon="5.60342">
        <ele>1325.599975586</ele>
        <time>2014-02-09T09:26:22Z</time>
      </trkpt>
      <trkpt lat="45.10415" lon="5.60345">
        <ele>1324.800048828</ele>
        <time>2014-02-09T09:26:23Z</time>
      </trkpt>
      <trkpt lat="45.10421" lon="5.60344">
        <ele>1324.199951172</ele>
        <time>2014-02-09T09:26:24Z</time>
      </trkpt>
      <trkpt lat="45.10433" lon="5.60343">
        <ele>1323.400024414</ele>
        <time>2014-02-09T09:26:27Z</time>
      </trkpt>
      <trkpt lat="45.10437" lon="5.60342">
        <ele>1323.199951172</ele>
        <time>2014-02-09T09:26:28Z</time>
      </trkpt>
      <trkpt lat="45.1045" lon="5.6034">
        <ele>1322.199951172</ele>
        <time>2014-02-09T09:26:31Z</time>
      </trkpt>
      <trkpt lat="45.10455" lon="5.6034">
        <ele>1322</ele>
        <time>2014-02-09T09:26:32Z</time>
      </trkpt>
      <trkpt lat="45.10474" lon="5.60339">
        <ele>1320.400024414</ele>
        <time>2014-02-09T09:26:36Z</time>
      </trkpt>
      <trkpt lat="45.10485" lon="5.60341">
        <ele>1319.400024414</ele>
        <time>2014-02-09T09:26:38Z</time>
      </trkpt>
      <trkpt lat="45.10499" lon="5.60345">
        <ele>1318.199951172</ele>
        <time>2014-02-09T09:26:40Z</time>
      </trkpt>
      <trkpt lat="45.10505" lon="5.60347">
        <ele>1317.599975586</ele>
        <time>2014-02-09T09:26:41Z</time>
      </trkpt>
      <trkpt lat="45.10528" lon="5.60353">
        <ele>1315.199951172</ele>
        <time>2014-02-09T09:26:44Z</time>
      </trkpt>
      <trkpt lat="45.10542" lon="5.60356">
        <ele>1313.800048828</ele>
        <time>2014-02-09T09:26:46Z</time>
      </trkpt>
      <trkpt lat="45.10562" lon="5.60359">
        <ele>1311.800048828</ele>
        <time>2014-02-09T09:26:49Z</time>
      </trkpt>
      <trkpt lat="45.10584" lon="5.60361">
        <ele>1309.599975586</ele>
        <time>2014-02-09T09:26:52Z</time>
      </trkpt>
      <trkpt lat="45.10607" lon="5.60362">
        <ele>1308.199951172</ele>
        <time>2014-02-09T09:26:55Z</time>
      </trkpt>
      <trkpt lat="45.10623" lon="5.60359">
        <ele>1307.599975586</ele>
        <time>2014-02-09T09:26:57Z</time>
      </trkpt>
      <trkpt lat="45.10636" lon="5.60356">
        <ele>1307.400024414</ele>
        <time>2014-02-09T09:26:59Z</time>
      </trkpt>
      <trkpt lat="45.10656" lon="5.60353">
        <ele>1306.800048828</ele>
        <time>2014-02-09T09:27:02Z</time>
      </trkpt>
      <trkpt lat="45.10671" lon="5.60351">
        <ele>1306</ele>
        <time>2014-02-09T09:27:04Z</time>
      </trkpt>
      <trkpt lat="45.10684" lon="5.60352">
        <ele>1304.199951172</ele>
        <time>2014-02-09T09:27:06Z</time>
      </trkpt>
      <trkpt lat="45.10696" lon="5.60351">
        <ele>1302.800048828</ele>
        <time>2014-02-09T09:27:08Z</time>
      </trkpt>
      <trkpt lat="45.10707" lon="5.60349">
        <ele>1301.400024414</ele>
        <time>2014-02-09T09:27:10Z</time>
      </trkpt>
      <trkpt lat="45.10713" lon="5.60351">
        <ele>1300.400024414</ele>
        <time>2014-02-09T09:27:13Z</time>
      </trkpt>
      <trkpt lat="45.1071" lon="5.60359">
        <ele>1299.800048828</ele>
        <time>2014-02-09T09:27:24Z</time>
      </trkpt>
      <trkpt lat="45.10709" lon="5.60356">
        <ele>1300.199951172</ele>
        <time>2014-02-09T09:27:41Z</time>
      </trkpt>
      <trkpt lat="45.10709" lon="5.60367">
        <ele>1298.800048828</ele>
        <time>2014-02-09T09:27:46Z</time>
      </trkpt>
      <trkpt lat="45.10709" lon="5.60372">
        <ele>1298.199951172</ele>
        <time>2014-02-09T09:27:49Z</time>
      </trkpt>
      <trkpt lat="45.1071" lon="5.60375">
        <ele>1297.599975586</ele>
        <time>2014-02-09T09:27:53Z</time>
      </trkpt>
      <trkpt lat="45.1071" lon="5.60382">
        <ele>1296.800048828</ele>
        <time>2014-02-09T09:27:59Z</time>
      </trkpt>
      <trkpt lat="45.1071" lon="5.60386">
        <ele>1296.199951172</ele>
        <time>2014-02-09T09:28:05Z</time>
      </trkpt>
      <trkpt lat="45.10709" lon="5.60384">
        <ele>1296.599975586</ele>
        <time>2014-02-09T09:28:14Z</time>
      </trkpt>
      <trkpt lat="45.10708" lon="5.60384">
        <ele>1296.400024414</ele>
        <time>2014-02-09T09:28:28Z</time>
      </trkpt>
      <trkpt lat="45.10709" lon="5.60381">
        <ele>1296.800048828</ele>
        <time>2014-02-09T09:28:34Z</time>
      </trkpt>
      <trkpt lat="45.10712" lon="5.60381">
        <ele>1296.599975586</ele>
        <time>2014-02-09T09:28:44Z</time>
      </trkpt>
      <trkpt lat="45.10713" lon="5.60383">
        <ele>1296.199951172</ele>
        <time>2014-02-09T09:28:51Z</time>
      </trkpt>
      <trkpt lat="45.10712" lon="5.60381">
        <ele>1296.599975586</ele>
        <time>2014-02-09T09:29:08Z</time>
      </trkpt>
    </trkseg>
  </trk>
</gpx>